<?xml version='1.0' encoding='UTF-8'?><gpx version="1.1" creator="JPX - https://github.com/jenetics/jpx" xmlns="http://www.topografix.com/GPX/1/1"><trk><trkseg><trkpt lat="43.7236114" lon="11.2937685"><ele>93.0</ele><time>2026-04-19T07:46:07.444Z</time></trkpt><trkpt lat="43.7233903" lon="11.2946057"><ele>93.0</ele><time>2026-04-19T07:46:15.194Z</time></trkpt><trkpt lat="43.723417" lon="11.294703"><ele>93.0</ele><time>2026-04-19T07:46:17.187Z</time></trkpt><trkpt lat="43.7235259" lon="11.294681"><ele>93.0</ele><time>2026-04-19T07:46:23.192Z</time></trkpt><trkpt lat="43.7235255" lon="11.2945767"><ele>93.0</ele><time>2026-04-19T07:46:24.183Z</time></trkpt><trkpt lat="43.7235154" lon="11.2944744"><ele>93.0</ele><time>2026-04-19T07:46:25.189Z</time></trkpt><trkpt lat="43.7235129" lon="11.2943606"><ele>93.0</ele><time>2026-04-19T07:46:26.187Z</time></trkpt><trkpt lat="43.7235098" lon="11.2942349"><ele>92.16666666666667</ele><time>2026-04-19T07:46:27.193Z</time></trkpt><trkpt lat="43.7235713" lon="11.2941208"><ele>91.33333333333333</ele><time>2026-04-19T07:46:29.197Z</time></trkpt><trkpt lat="43.7236036" lon="11.2940372"><ele>90.5</ele><time>2026-04-19T07:46:30.196Z</time></trkpt><trkpt lat="43.723591" lon="11.2939299"><ele>89.66666666666666</ele><time>2026-04-19T07:46:31.192Z</time></trkpt><trkpt lat="43.7235842" lon="11.2938256"><ele>88.83333333333333</ele><time>2026-04-19T07:46:32.192Z</time></trkpt><trkpt lat="43.7235829" lon="11.2937082"><ele>88.0</ele><time>2026-04-19T07:46:33.195Z</time></trkpt><trkpt lat="43.7236368" lon="11.2937722"><ele>88.0</ele><time>2026-04-19T07:46:46.025Z</time></trkpt><trkpt lat="43.7242724" lon="11.2947491"><ele>88.0</ele><time>2026-04-19T07:47:14.246Z</time></trkpt><trkpt lat="43.7242158" lon="11.294632"><ele>88.0</ele><time>2026-04-19T07:47:15.248Z</time></trkpt><trkpt lat="43.7241387" lon="11.2944696"><ele>88.0</ele><time>2026-04-19T07:47:16.24Z</time></trkpt><trkpt lat="43.7241032" lon="11.2943888"><ele>88.0</ele><time>2026-04-19T07:47:17.219Z</time></trkpt><trkpt lat="43.7240142" lon="11.2941901"><ele>88.0</ele><time>2026-04-19T07:47:19.237Z</time></trkpt><trkpt lat="43.7238878" lon="11.2940271"><ele>88.0</ele><time>2026-04-19T07:47:20.273Z</time></trkpt><trkpt lat="43.7238459" lon="11.2939327"><ele>88.0</ele><time>2026-04-19T07:47:21.238Z</time></trkpt><trkpt lat="43.7238171" lon="11.2938521"><ele>88.0</ele><time>2026-04-19T07:47:23.257Z</time></trkpt><trkpt lat="43.7237094" lon="11.2937118"><ele>88.0</ele><time>2026-04-19T07:47:28.276Z</time></trkpt><trkpt lat="43.7237835" lon="11.2936968"><ele>88.0</ele><time>2026-04-19T07:47:37.247Z</time></trkpt><trkpt lat="43.7238487" lon="11.2936631"><ele>88.0</ele><time>2026-04-19T07:47:41.256Z</time></trkpt><trkpt lat="43.723905" lon="11.2936143"><ele>88.0</ele><time>2026-04-19T07:47:47.29Z</time></trkpt><trkpt lat="43.7239662" lon="11.2935918"><ele>88.0</ele><time>2026-04-19T07:47:57.268Z</time></trkpt><trkpt lat="43.7239473" lon="11.2936891"><ele>88.0</ele><time>2026-04-19T07:48:15.27Z</time></trkpt><trkpt lat="43.723999" lon="11.2937464"><ele>88.0</ele><time>2026-04-19T07:48:23.26Z</time></trkpt><trkpt lat="43.7239993" lon="11.2936557"><ele>88.0</ele><time>2026-04-19T07:59:10.276Z</time></trkpt><trkpt lat="43.7240049" lon="11.2935604"><ele>88.0</ele><time>2026-04-19T07:59:19.284Z</time></trkpt><trkpt lat="43.7240569" lon="11.293504"><ele>88.0</ele><time>2026-04-19T07:59:26.287Z</time></trkpt><trkpt lat="43.7239841" lon="11.2934754"><ele>88.0</ele><time>2026-04-19T08:02:59.237Z</time></trkpt><trkpt lat="43.7239034" lon="11.2935202"><ele>88.0</ele><time>2026-04-19T08:03:02.235Z</time></trkpt><trkpt lat="43.7238608" lon="11.2935863"><ele>88.0</ele><time>2026-04-19T08:03:03.227Z</time></trkpt><trkpt lat="43.7238188" lon="11.2936706"><ele>88.0</ele><time>2026-04-19T08:03:04.235Z</time></trkpt><trkpt lat="43.7237703" lon="11.2937615"><ele>88.0</ele><time>2026-04-19T08:03:05.236Z</time></trkpt><trkpt lat="43.723704" lon="11.2938631"><ele>88.0</ele><time>2026-04-19T08:03:06.238Z</time></trkpt><trkpt lat="43.7236346" lon="11.2939725"><ele>88.0</ele><time>2026-04-19T08:03:07.239Z</time></trkpt><trkpt lat="43.7235678" lon="11.294082"><ele>88.0</ele><time>2026-04-19T08:03:08.242Z</time></trkpt><trkpt lat="43.7234976" lon="11.2941908"><ele>88.0</ele><time>2026-04-19T08:03:09.229Z</time></trkpt><trkpt lat="43.7234345" lon="11.2942898"><ele>88.83333333333333</ele><time>2026-04-19T08:03:10.234Z</time></trkpt><trkpt lat="43.7233734" lon="11.2943749"><ele>89.66666666666666</ele><time>2026-04-19T08:03:11.232Z</time></trkpt><trkpt lat="43.7233243" lon="11.2944328"><ele>90.5</ele><time>2026-04-19T08:03:12.235Z</time></trkpt><trkpt lat="43.7232582" lon="11.2944304"><ele>91.33333333333333</ele><time>2026-04-19T08:03:14.226Z</time></trkpt><trkpt lat="43.7232509" lon="11.2943376"><ele>92.16666666666667</ele><time>2026-04-19T08:03:15.225Z</time></trkpt><trkpt lat="43.7232937" lon="11.2941692"><ele>93.0</ele><time>2026-04-19T08:03:17.23Z</time></trkpt><trkpt lat="43.7233036" lon="11.2940757"><ele>93.0</ele><time>2026-04-19T08:03:18.229Z</time></trkpt><trkpt lat="43.7233144" lon="11.2939791"><ele>93.0</ele><time>2026-04-19T08:03:19.223Z</time></trkpt><trkpt lat="43.7233341" lon="11.2938797"><ele>93.0</ele><time>2026-04-19T08:03:20.235Z</time></trkpt><trkpt lat="43.7233496" lon="11.2937732"><ele>93.0</ele><time>2026-04-19T08:03:21.237Z</time></trkpt><trkpt lat="43.7233588" lon="11.293655"><ele>93.0</ele><time>2026-04-19T08:03:22.225Z</time></trkpt><trkpt lat="43.7233558" lon="11.2935392"><ele>93.0</ele><time>2026-04-19T08:03:23.209Z</time></trkpt><trkpt lat="43.7233618" lon="11.2934276"><ele>93.0</ele><time>2026-04-19T08:03:24.217Z</time></trkpt><trkpt lat="43.7233738" lon="11.293327"><ele>93.0</ele><time>2026-04-19T08:03:25.225Z</time></trkpt><trkpt lat="43.7233908" lon="11.2932387"><ele>93.0</ele><time>2026-04-19T08:03:26.213Z</time></trkpt><trkpt lat="43.7233989" lon="11.2931212"><ele>93.0</ele><time>2026-04-19T08:03:28.227Z</time></trkpt><trkpt lat="43.7233972" lon="11.2930034"><ele>93.0</ele><time>2026-04-19T08:03:30.224Z</time></trkpt><trkpt lat="43.7233721" lon="11.2928551"><ele>93.0</ele><time>2026-04-19T08:03:32.245Z</time></trkpt><trkpt lat="43.7233447" lon="11.2927232"><ele>92.60000000000001</ele><time>2026-04-19T08:03:34.235Z</time></trkpt><trkpt lat="43.7233215" lon="11.2926132"><ele>92.2</ele><time>2026-04-19T08:03:36.228Z</time></trkpt><trkpt lat="43.7232649" lon="11.2924814"><ele>91.8</ele><time>2026-04-19T08:03:38.236Z</time></trkpt><trkpt lat="43.7232155" lon="11.2923537"><ele>91.4</ele><time>2026-04-19T08:03:40.247Z</time></trkpt><trkpt lat="43.7231609" lon="11.2922133"><ele>91.0</ele><time>2026-04-19T08:03:42.237Z</time></trkpt><trkpt lat="43.7231212" lon="11.2921305"><ele>91.0</ele><time>2026-04-19T08:03:43.232Z</time></trkpt><trkpt lat="43.7230718" lon="11.2920247"><ele>91.0</ele><time>2026-04-19T08:03:44.22Z</time></trkpt><trkpt lat="43.7230194" lon="11.2919072"><ele>91.0</ele><time>2026-04-19T08:03:45.221Z</time></trkpt><trkpt lat="43.7229621" lon="11.2917759"><ele>91.0</ele><time>2026-04-19T08:03:46.225Z</time></trkpt><trkpt lat="43.722914" lon="11.2916688"><ele>91.0</ele><time>2026-04-19T08:03:47.228Z</time></trkpt><trkpt lat="43.7228663" lon="11.2915768"><ele>91.0</ele><time>2026-04-19T08:03:48.23Z</time></trkpt><trkpt lat="43.7228135" lon="11.291512"><ele>91.0</ele><time>2026-04-19T08:03:49.224Z</time></trkpt><trkpt lat="43.7227579" lon="11.2914519"><ele>91.0</ele><time>2026-04-19T08:03:50.214Z</time></trkpt><trkpt lat="43.7227138" lon="11.2913655"><ele>91.0</ele><time>2026-04-19T08:03:51.242Z</time></trkpt><trkpt lat="43.722676" lon="11.2912613"><ele>91.0</ele><time>2026-04-19T08:03:52.234Z</time></trkpt><trkpt lat="43.7226425" lon="11.2911536"><ele>91.0</ele><time>2026-04-19T08:03:53.237Z</time></trkpt><trkpt lat="43.7226136" lon="11.2910594"><ele>91.19999999999999</ele><time>2026-04-19T08:03:54.226Z</time></trkpt><trkpt lat="43.7226019" lon="11.2909382"><ele>91.39999999999999</ele><time>2026-04-19T08:03:55.223Z</time></trkpt><trkpt lat="43.722586" lon="11.290822"><ele>91.6</ele><time>2026-04-19T08:03:56.234Z</time></trkpt><trkpt lat="43.7225687" lon="11.2906941"><ele>91.8</ele><time>2026-04-19T08:03:57.225Z</time></trkpt><trkpt lat="43.7225488" lon="11.2905715"><ele>92.0</ele><time>2026-04-19T08:03:58.239Z</time></trkpt><trkpt lat="43.7225275" lon="11.2904432"><ele>92.33333333333334</ele><time>2026-04-19T08:03:59.236Z</time></trkpt><trkpt lat="43.7225017" lon="11.2903308"><ele>92.66666666666667</ele><time>2026-04-19T08:04:00.239Z</time></trkpt><trkpt lat="43.722476" lon="11.2902127"><ele>93.0</ele><time>2026-04-19T08:04:01.233Z</time></trkpt><trkpt lat="43.7224447" lon="11.2900963"><ele>93.33333333333333</ele><time>2026-04-19T08:04:02.243Z</time></trkpt><trkpt lat="43.7224157" lon="11.2899782"><ele>93.66666666666666</ele><time>2026-04-19T08:04:03.24Z</time></trkpt><trkpt lat="43.7223926" lon="11.2898525"><ele>94.0</ele><time>2026-04-19T08:04:04.241Z</time></trkpt><trkpt lat="43.7223637" lon="11.2897268"><ele>95.0</ele><time>2026-04-19T08:04:05.245Z</time></trkpt><trkpt lat="43.7223323" lon="11.2896037"><ele>96.0</ele><time>2026-04-19T08:04:06.232Z</time></trkpt><trkpt lat="43.7223047" lon="11.2894871"><ele>97.0</ele><time>2026-04-19T08:04:07.237Z</time></trkpt><trkpt lat="43.7222727" lon="11.2893873"><ele>98.0</ele><time>2026-04-19T08:04:08.239Z</time></trkpt><trkpt lat="43.722243" lon="11.2892958"><ele>99.00000000000001</ele><time>2026-04-19T08:04:09.221Z</time></trkpt><trkpt lat="43.7222125" lon="11.2892018"><ele>100.0</ele><time>2026-04-19T08:04:10.224Z</time></trkpt><trkpt lat="43.7221901" lon="11.2891099"><ele>100.00000000000001</ele><time>2026-04-19T08:04:11.224Z</time></trkpt><trkpt lat="43.72217" lon="11.2890137"><ele>100.0</ele><time>2026-04-19T08:04:12.223Z</time></trkpt><trkpt lat="43.7221491" lon="11.2889077"><ele>100.0</ele><time>2026-04-19T08:04:13.238Z</time></trkpt><trkpt lat="43.7221227" lon="11.2888002"><ele>100.0</ele><time>2026-04-19T08:04:14.237Z</time></trkpt><trkpt lat="43.7220981" lon="11.2886972"><ele>100.00000000000001</ele><time>2026-04-19T08:04:15.248Z</time></trkpt><trkpt lat="43.7220595" lon="11.2885956"><ele>100.0</ele><time>2026-04-19T08:04:16.234Z</time></trkpt><trkpt lat="43.7220191" lon="11.2884946"><ele>100.66666666666667</ele><time>2026-04-19T08:04:17.23Z</time></trkpt><trkpt lat="43.7219822" lon="11.2883908"><ele>101.33333333333334</ele><time>2026-04-19T08:04:18.243Z</time></trkpt><trkpt lat="43.7219352" lon="11.2883102"><ele>102.0</ele><time>2026-04-19T08:04:19.236Z</time></trkpt><trkpt lat="43.7218809" lon="11.2882315"><ele>102.66666666666666</ele><time>2026-04-19T08:04:20.236Z</time></trkpt><trkpt lat="43.7218208" lon="11.288161"><ele>103.33333333333333</ele><time>2026-04-19T08:04:21.225Z</time></trkpt><trkpt lat="43.7217531" lon="11.2881001"><ele>104.0</ele><time>2026-04-19T08:04:22.24Z</time></trkpt><trkpt lat="43.7216866" lon="11.2880585"><ele>102.4</ele><time>2026-04-19T08:04:23.22Z</time></trkpt><trkpt lat="43.7216202" lon="11.2880333"><ele>100.80000000000001</ele><time>2026-04-19T08:04:24.211Z</time></trkpt><trkpt lat="43.7214971" lon="11.2880714"><ele>99.19999999999999</ele><time>2026-04-19T08:04:26.219Z</time></trkpt><trkpt lat="43.7214302" lon="11.2881677"><ele>97.6</ele><time>2026-04-19T08:04:27.221Z</time></trkpt><trkpt lat="43.7213698" lon="11.2882822"><ele>96.0</ele><time>2026-04-19T08:04:28.226Z</time></trkpt><trkpt lat="43.721292" lon="11.2883707"><ele>95.8</ele><time>2026-04-19T08:04:29.233Z</time></trkpt><trkpt lat="43.7212455" lon="11.2884816"><ele>95.6</ele><time>2026-04-19T08:04:30.24Z</time></trkpt><trkpt lat="43.7211964" lon="11.2885689"><ele>95.4</ele><time>2026-04-19T08:04:31.237Z</time></trkpt><trkpt lat="43.7211375" lon="11.2886407"><ele>95.2</ele><time>2026-04-19T08:04:32.231Z</time></trkpt><trkpt lat="43.7210059" lon="11.2886469"><ele>95.0</ele><time>2026-04-19T08:04:34.253Z</time></trkpt><trkpt lat="43.7209266" lon="11.2886155"><ele>94.8</ele><time>2026-04-19T08:04:35.24Z</time></trkpt><trkpt lat="43.7208501" lon="11.2885494"><ele>94.6</ele><time>2026-04-19T08:04:36.247Z</time></trkpt><trkpt lat="43.7207967" lon="11.2884437"><ele>94.4</ele><time>2026-04-19T08:04:37.25Z</time></trkpt><trkpt lat="43.7207403" lon="11.28832"><ele>94.2</ele><time>2026-04-19T08:04:38.252Z</time></trkpt><trkpt lat="43.7206778" lon="11.2882003"><ele>94.0</ele><time>2026-04-19T08:04:39.229Z</time></trkpt><trkpt lat="43.720608" lon="11.2880747"><ele>94.0</ele><time>2026-04-19T08:04:40.264Z</time></trkpt><trkpt lat="43.7205415" lon="11.2879482"><ele>94.0</ele><time>2026-04-19T08:04:41.25Z</time></trkpt><trkpt lat="43.72048" lon="11.2878105"><ele>94.0</ele><time>2026-04-19T08:04:42.242Z</time></trkpt><trkpt lat="43.7204267" lon="11.2876628"><ele>94.0</ele><time>2026-04-19T08:04:43.239Z</time></trkpt><trkpt lat="43.7203686" lon="11.2875049"><ele>94.0</ele><time>2026-04-19T08:04:44.24Z</time></trkpt><trkpt lat="43.7203138" lon="11.2873471"><ele>94.0</ele><time>2026-04-19T08:04:45.248Z</time></trkpt><trkpt lat="43.7202576" lon="11.2872134"><ele>94.0</ele><time>2026-04-19T08:04:46.235Z</time></trkpt><trkpt lat="43.7202014" lon="11.2870788"><ele>94.0</ele><time>2026-04-19T08:04:47.268Z</time></trkpt><trkpt lat="43.7201544" lon="11.2869607"><ele>94.0</ele><time>2026-04-19T08:04:48.234Z</time></trkpt><trkpt lat="43.7201096" lon="11.2868456"><ele>94.0</ele><time>2026-04-19T08:04:49.236Z</time></trkpt><trkpt lat="43.7200739" lon="11.2867251"><ele>94.0</ele><time>2026-04-19T08:04:50.243Z</time></trkpt><trkpt lat="43.7200413" lon="11.2865967"><ele>94.0</ele><time>2026-04-19T08:04:51.236Z</time></trkpt><trkpt lat="43.720023" lon="11.2864472"><ele>94.0</ele><time>2026-04-19T08:04:52.236Z</time></trkpt><trkpt lat="43.7200049" lon="11.2862854"><ele>94.0</ele><time>2026-04-19T08:04:53.233Z</time></trkpt><trkpt lat="43.7199939" lon="11.2861109"><ele>94.0</ele><time>2026-04-19T08:04:54.255Z</time></trkpt><trkpt lat="43.7199798" lon="11.2859426"><ele>94.0</ele><time>2026-04-19T08:04:55.241Z</time></trkpt><trkpt lat="43.719963" lon="11.2857768"><ele>94.0</ele><time>2026-04-19T08:04:56.235Z</time></trkpt><trkpt lat="43.7199459" lon="11.285614"><ele>94.0</ele><time>2026-04-19T08:04:57.236Z</time></trkpt><trkpt lat="43.7199323" lon="11.2854565"><ele>94.25</ele><time>2026-04-19T08:04:58.218Z</time></trkpt><trkpt lat="43.71992" lon="11.2852835"><ele>94.5</ele><time>2026-04-19T08:04:59.236Z</time></trkpt><trkpt lat="43.7199049" lon="11.2851266"><ele>94.75</ele><time>2026-04-19T08:05:00.221Z</time></trkpt><trkpt lat="43.7198927" lon="11.2849654"><ele>95.0</ele><time>2026-04-19T08:05:01.228Z</time></trkpt><trkpt lat="43.719881" lon="11.2848068"><ele>95.5</ele><time>2026-04-19T08:05:02.236Z</time></trkpt><trkpt lat="43.7198699" lon="11.2846504"><ele>96.0</ele><time>2026-04-19T08:05:03.236Z</time></trkpt><trkpt lat="43.7198653" lon="11.2844961"><ele>96.5</ele><time>2026-04-19T08:05:04.232Z</time></trkpt><trkpt lat="43.7198641" lon="11.2843423"><ele>97.0</ele><time>2026-04-19T08:05:05.218Z</time></trkpt><trkpt lat="43.7198626" lon="11.2841845"><ele>97.0</ele><time>2026-04-19T08:05:06.228Z</time></trkpt><trkpt lat="43.7198649" lon="11.2840242"><ele>97.0</ele><time>2026-04-19T08:05:07.222Z</time></trkpt><trkpt lat="43.7198676" lon="11.2838706"><ele>97.0</ele><time>2026-04-19T08:05:08.239Z</time></trkpt><trkpt lat="43.7198648" lon="11.2837288"><ele>97.0</ele><time>2026-04-19T08:05:09.23Z</time></trkpt><trkpt lat="43.7198753" lon="11.283587"><ele>97.0</ele><time>2026-04-19T08:05:10.223Z</time></trkpt><trkpt lat="43.7198937" lon="11.2834541"><ele>96.39999999999999</ele><time>2026-04-19T08:05:11.232Z</time></trkpt><trkpt lat="43.7199218" lon="11.2833272"><ele>95.8</ele><time>2026-04-19T08:05:12.25Z</time></trkpt><trkpt lat="43.7199717" lon="11.2831944"><ele>95.2</ele><time>2026-04-19T08:05:13.235Z</time></trkpt><trkpt lat="43.7200238" lon="11.2830559"><ele>94.6</ele><time>2026-04-19T08:05:14.23Z</time></trkpt><trkpt lat="43.7200702" lon="11.2829271"><ele>94.0</ele><time>2026-04-19T08:05:15.228Z</time></trkpt><trkpt lat="43.7200946" lon="11.2828012"><ele>94.0</ele><time>2026-04-19T08:05:16.245Z</time></trkpt><trkpt lat="43.7200943" lon="11.2826703"><ele>94.0</ele><time>2026-04-19T08:05:17.236Z</time></trkpt><trkpt lat="43.7200697" lon="11.2825519"><ele>94.0</ele><time>2026-04-19T08:05:18.236Z</time></trkpt><trkpt lat="43.7200145" lon="11.2824458"><ele>94.0</ele><time>2026-04-19T08:05:19.24Z</time></trkpt><trkpt lat="43.7199426" lon="11.2823474"><ele>94.0</ele><time>2026-04-19T08:05:20.225Z</time></trkpt><trkpt lat="43.7198585" lon="11.2822519"><ele>95.75</ele><time>2026-04-19T08:05:21.24Z</time></trkpt><trkpt lat="43.7197624" lon="11.2821583"><ele>97.5</ele><time>2026-04-19T08:05:22.244Z</time></trkpt><trkpt lat="43.7196615" lon="11.2820713"><ele>99.25</ele><time>2026-04-19T08:05:23.238Z</time></trkpt><trkpt lat="43.7195523" lon="11.281987"><ele>101.0</ele><time>2026-04-19T08:05:24.243Z</time></trkpt><trkpt lat="43.7194385" lon="11.2819024"><ele>100.4</ele><time>2026-04-19T08:05:25.233Z</time></trkpt><trkpt lat="43.7193329" lon="11.2818282"><ele>99.8</ele><time>2026-04-19T08:05:26.231Z</time></trkpt><trkpt lat="43.7192281" lon="11.2817496"><ele>99.2</ele><time>2026-04-19T08:05:27.238Z</time></trkpt><trkpt lat="43.719142" lon="11.2816867"><ele>98.60000000000001</ele><time>2026-04-19T08:05:28.238Z</time></trkpt><trkpt lat="43.7190651" lon="11.2816231"><ele>98.0</ele><time>2026-04-19T08:05:29.234Z</time></trkpt><trkpt lat="43.7190098" lon="11.281562"><ele>97.99999999999999</ele><time>2026-04-19T08:05:30.245Z</time></trkpt><trkpt lat="43.7189669" lon="11.2814971"><ele>98.0</ele><time>2026-04-19T08:05:31.23Z</time></trkpt><trkpt lat="43.7189245" lon="11.2814285"><ele>98.0</ele><time>2026-04-19T08:05:32.243Z</time></trkpt><trkpt lat="43.7189216" lon="11.2812728"><ele>98.0</ele><time>2026-04-19T08:05:34.235Z</time></trkpt><trkpt lat="43.7189568" lon="11.2811777"><ele>97.99999999999999</ele><time>2026-04-19T08:05:35.234Z</time></trkpt><trkpt lat="43.7189929" lon="11.2810653"><ele>98.0</ele><time>2026-04-19T08:05:36.238Z</time></trkpt><trkpt lat="43.7190332" lon="11.2809189"><ele>99.4</ele><time>2026-04-19T08:05:37.254Z</time></trkpt><trkpt lat="43.719067" lon="11.2807761"><ele>100.80000000000001</ele><time>2026-04-19T08:05:38.237Z</time></trkpt><trkpt lat="43.7190986" lon="11.2806317"><ele>102.2</ele><time>2026-04-19T08:05:39.246Z</time></trkpt><trkpt lat="43.7191249" lon="11.2804784"><ele>103.6</ele><time>2026-04-19T08:05:40.243Z</time></trkpt><trkpt lat="43.719126" lon="11.2803251"><ele>105.0</ele><time>2026-04-19T08:05:41.246Z</time></trkpt><trkpt lat="43.7191171" lon="11.2801625"><ele>106.8</ele><time>2026-04-19T08:05:42.248Z</time></trkpt><trkpt lat="43.719089" lon="11.2800035"><ele>108.6</ele><time>2026-04-19T08:05:43.24Z</time></trkpt><trkpt lat="43.7190548" lon="11.2798456"><ele>110.4</ele><time>2026-04-19T08:05:44.237Z</time></trkpt><trkpt lat="43.7190089" lon="11.2797119"><ele>112.2</ele><time>2026-04-19T08:05:45.237Z</time></trkpt><trkpt lat="43.7189539" lon="11.2796006"><ele>114.0</ele><time>2026-04-19T08:05:46.258Z</time></trkpt><trkpt lat="43.7188836" lon="11.2795066"><ele>114.2</ele><time>2026-04-19T08:05:47.23Z</time></trkpt><trkpt lat="43.7188048" lon="11.279424"><ele>114.4</ele><time>2026-04-19T08:05:48.238Z</time></trkpt><trkpt lat="43.7187209" lon="11.2793648"><ele>114.6</ele><time>2026-04-19T08:05:49.232Z</time></trkpt><trkpt lat="43.7186264" lon="11.2793575"><ele>114.8</ele><time>2026-04-19T08:05:50.241Z</time></trkpt><trkpt lat="43.718529" lon="11.2793755"><ele>115.0</ele><time>2026-04-19T08:05:51.228Z</time></trkpt><trkpt lat="43.718411" lon="11.279416"><ele>117.0</ele><time>2026-04-19T08:05:52.245Z</time></trkpt><trkpt lat="43.7183022" lon="11.2794508"><ele>119.0</ele><time>2026-04-19T08:05:53.232Z</time></trkpt><trkpt lat="43.7181943" lon="11.2794752"><ele>121.0</ele><time>2026-04-19T08:05:54.231Z</time></trkpt><trkpt lat="43.7180786" lon="11.2794936"><ele>123.0</ele><time>2026-04-19T08:05:55.244Z</time></trkpt><trkpt lat="43.7179633" lon="11.2795011"><ele>123.0</ele><time>2026-04-19T08:05:56.252Z</time></trkpt><trkpt lat="43.7178506" lon="11.2795066"><ele>123.00000000000001</ele><time>2026-04-19T08:05:57.244Z</time></trkpt><trkpt lat="43.7177457" lon="11.2795212"><ele>123.00000000000001</ele><time>2026-04-19T08:05:58.242Z</time></trkpt><trkpt lat="43.7176591" lon="11.279515"><ele>123.0</ele><time>2026-04-19T08:05:59.231Z</time></trkpt><trkpt lat="43.7175842" lon="11.2794679"><ele>123.0</ele><time>2026-04-19T08:06:00.236Z</time></trkpt><trkpt lat="43.7175087" lon="11.2793833"><ele>124.80000000000001</ele><time>2026-04-19T08:06:01.239Z</time></trkpt><trkpt lat="43.7174604" lon="11.279294"><ele>126.60000000000001</ele><time>2026-04-19T08:06:02.241Z</time></trkpt><trkpt lat="43.7174128" lon="11.2791836"><ele>128.39999999999998</ele><time>2026-04-19T08:06:03.241Z</time></trkpt><trkpt lat="43.7173579" lon="11.2790662"><ele>130.2</ele><time>2026-04-19T08:06:04.242Z</time></trkpt><trkpt lat="43.7172994" lon="11.2789332"><ele>132.0</ele><time>2026-04-19T08:06:05.241Z</time></trkpt><trkpt lat="43.7172342" lon="11.2788008"><ele>132.5</ele><time>2026-04-19T08:06:06.251Z</time></trkpt><trkpt lat="43.7171615" lon="11.278681"><ele>133.0</ele><time>2026-04-19T08:06:07.246Z</time></trkpt><trkpt lat="43.7170927" lon="11.2785566"><ele>133.5</ele><time>2026-04-19T08:06:08.245Z</time></trkpt><trkpt lat="43.7170075" lon="11.2784343"><ele>134.0</ele><time>2026-04-19T08:06:09.242Z</time></trkpt><trkpt lat="43.7168969" lon="11.2783176"><ele>136.0</ele><time>2026-04-19T08:06:10.23Z</time></trkpt><trkpt lat="43.7167793" lon="11.2782098"><ele>138.0</ele><time>2026-04-19T08:06:11.231Z</time></trkpt><trkpt lat="43.716667" lon="11.2780981"><ele>140.0</ele><time>2026-04-19T08:06:12.234Z</time></trkpt><trkpt lat="43.7165549" lon="11.2779897"><ele>142.0</ele><time>2026-04-19T08:06:13.238Z</time></trkpt><trkpt lat="43.7164437" lon="11.2778777"><ele>144.75</ele><time>2026-04-19T08:06:14.235Z</time></trkpt><trkpt lat="43.7163304" lon="11.2777654"><ele>147.5</ele><time>2026-04-19T08:06:15.235Z</time></trkpt><trkpt lat="43.7162213" lon="11.2776557"><ele>150.25</ele><time>2026-04-19T08:06:16.247Z</time></trkpt><trkpt lat="43.7161046" lon="11.2775417"><ele>153.0</ele><time>2026-04-19T08:06:17.233Z</time></trkpt><trkpt lat="43.7159955" lon="11.2774264"><ele>153.25</ele><time>2026-04-19T08:06:18.225Z</time></trkpt><trkpt lat="43.7158882" lon="11.2773162"><ele>153.5</ele><time>2026-04-19T08:06:19.235Z</time></trkpt><trkpt lat="43.7157815" lon="11.2772109"><ele>153.75</ele><time>2026-04-19T08:06:20.229Z</time></trkpt><trkpt lat="43.7156699" lon="11.2770935"><ele>154.0</ele><time>2026-04-19T08:06:21.22Z</time></trkpt><trkpt lat="43.7155502" lon="11.2769626"><ele>156.0</ele><time>2026-04-19T08:06:22.244Z</time></trkpt><trkpt lat="43.7154342" lon="11.2768335"><ele>158.0</ele><time>2026-04-19T08:06:23.244Z</time></trkpt><trkpt lat="43.7153293" lon="11.276709"><ele>160.0</ele><time>2026-04-19T08:06:24.231Z</time></trkpt><trkpt lat="43.7152268" lon="11.2765811"><ele>162.0</ele><time>2026-04-19T08:06:25.225Z</time></trkpt><trkpt lat="43.7151235" lon="11.27646"><ele>164.25</ele><time>2026-04-19T08:06:26.236Z</time></trkpt><trkpt lat="43.7150177" lon="11.2763398"><ele>166.5</ele><time>2026-04-19T08:06:27.244Z</time></trkpt><trkpt lat="43.7149168" lon="11.2762204"><ele>168.75</ele><time>2026-04-19T08:06:28.233Z</time></trkpt><trkpt lat="43.7148213" lon="11.2761046"><ele>171.0</ele><time>2026-04-19T08:06:29.228Z</time></trkpt><trkpt lat="43.7147157" lon="11.2759891"><ele>171.0</ele><time>2026-04-19T08:06:30.223Z</time></trkpt><trkpt lat="43.7146122" lon="11.2758756"><ele>171.0</ele><time>2026-04-19T08:06:31.226Z</time></trkpt><trkpt lat="43.7145135" lon="11.2757651"><ele>171.0</ele><time>2026-04-19T08:06:32.244Z</time></trkpt><trkpt lat="43.7144278" lon="11.2756657"><ele>171.0</ele><time>2026-04-19T08:06:33.241Z</time></trkpt><trkpt lat="43.7143359" lon="11.2755843"><ele>172.60000000000002</ele><time>2026-04-19T08:06:34.23Z</time></trkpt><trkpt lat="43.7142325" lon="11.2755184"><ele>174.2</ele><time>2026-04-19T08:06:35.241Z</time></trkpt><trkpt lat="43.714121" lon="11.27548"><ele>175.8</ele><time>2026-04-19T08:06:36.242Z</time></trkpt><trkpt lat="43.7140133" lon="11.2754474"><ele>177.39999999999998</ele><time>2026-04-19T08:06:37.236Z</time></trkpt><trkpt lat="43.7139199" lon="11.275427"><ele>179.0</ele><time>2026-04-19T08:06:38.217Z</time></trkpt><trkpt lat="43.7138325" lon="11.2754149"><ele>179.00000000000003</ele><time>2026-04-19T08:06:39.224Z</time></trkpt><trkpt lat="43.713753" lon="11.2753962"><ele>179.0</ele><time>2026-04-19T08:06:40.232Z</time></trkpt><trkpt lat="43.713688" lon="11.2753755"><ele>179.0</ele><time>2026-04-19T08:06:41.225Z</time></trkpt><trkpt lat="43.7136244" lon="11.2753582"><ele>179.0</ele><time>2026-04-19T08:06:42.23Z</time></trkpt><trkpt lat="43.7135569" lon="11.2753409"><ele>179.0</ele><time>2026-04-19T08:06:43.229Z</time></trkpt><trkpt lat="43.7134912" lon="11.2753115"><ele>179.00000000000003</ele><time>2026-04-19T08:06:44.228Z</time></trkpt><trkpt lat="43.7134255" lon="11.2752844"><ele>179.0</ele><time>2026-04-19T08:06:45.238Z</time></trkpt><trkpt lat="43.7133623" lon="11.2752382"><ele>179.83333333333331</ele><time>2026-04-19T08:06:46.238Z</time></trkpt><trkpt lat="43.7132965" lon="11.2751828"><ele>180.66666666666666</ele><time>2026-04-19T08:06:47.245Z</time></trkpt><trkpt lat="43.7132386" lon="11.2751261"><ele>181.5</ele><time>2026-04-19T08:06:48.239Z</time></trkpt><trkpt lat="43.713178" lon="11.2750557"><ele>182.33333333333334</ele><time>2026-04-19T08:06:49.234Z</time></trkpt><trkpt lat="43.7131255" lon="11.2749867"><ele>183.16666666666669</ele><time>2026-04-19T08:06:50.23Z</time></trkpt><trkpt lat="43.713072" lon="11.2749127"><ele>184.0</ele><time>2026-04-19T08:06:51.226Z</time></trkpt><trkpt lat="43.7130082" lon="11.2748374"><ele>184.16666666666669</ele><time>2026-04-19T08:06:52.24Z</time></trkpt><trkpt lat="43.7129501" lon="11.2747649"><ele>184.33333333333334</ele><time>2026-04-19T08:06:53.233Z</time></trkpt><trkpt lat="43.7128868" lon="11.2747005"><ele>184.5</ele><time>2026-04-19T08:06:54.229Z</time></trkpt><trkpt lat="43.7128234" lon="11.2746329"><ele>184.66666666666666</ele><time>2026-04-19T08:06:55.24Z</time></trkpt><trkpt lat="43.7127641" lon="11.2745594"><ele>184.83333333333331</ele><time>2026-04-19T08:06:56.241Z</time></trkpt><trkpt lat="43.7127062" lon="11.2744654"><ele>185.0</ele><time>2026-04-19T08:06:57.251Z</time></trkpt><trkpt lat="43.7126561" lon="11.2743599"><ele>183.2</ele><time>2026-04-19T08:06:58.23Z</time></trkpt><trkpt lat="43.7126078" lon="11.2742478"><ele>181.4</ele><time>2026-04-19T08:06:59.23Z</time></trkpt><trkpt lat="43.7125628" lon="11.2741341"><ele>179.60000000000002</ele><time>2026-04-19T08:07:00.236Z</time></trkpt><trkpt lat="43.7125219" lon="11.27402"><ele>177.8</ele><time>2026-04-19T08:07:01.243Z</time></trkpt><trkpt lat="43.7124828" lon="11.2739087"><ele>176.0</ele><time>2026-04-19T08:07:02.23Z</time></trkpt><trkpt lat="43.7124447" lon="11.2737949"><ele>176.0</ele><time>2026-04-19T08:07:03.239Z</time></trkpt><trkpt lat="43.7124105" lon="11.2736831"><ele>176.0</ele><time>2026-04-19T08:07:04.236Z</time></trkpt><trkpt lat="43.7123716" lon="11.2735617"><ele>176.0</ele><time>2026-04-19T08:07:05.229Z</time></trkpt><trkpt lat="43.7123272" lon="11.2734443"><ele>176.0</ele><time>2026-04-19T08:07:06.222Z</time></trkpt><trkpt lat="43.7122764" lon="11.2733266"><ele>176.0</ele><time>2026-04-19T08:07:07.231Z</time></trkpt><trkpt lat="43.7122184" lon="11.2732049"><ele>176.4</ele><time>2026-04-19T08:07:08.235Z</time></trkpt><trkpt lat="43.7121595" lon="11.273084"><ele>176.8</ele><time>2026-04-19T08:07:09.234Z</time></trkpt><trkpt lat="43.7120971" lon="11.2729539"><ele>177.20000000000002</ele><time>2026-04-19T08:07:10.235Z</time></trkpt><trkpt lat="43.7120352" lon="11.2728294"><ele>177.60000000000002</ele><time>2026-04-19T08:07:11.232Z</time></trkpt><trkpt lat="43.7119763" lon="11.2727072"><ele>178.0</ele><time>2026-04-19T08:07:12.246Z</time></trkpt><trkpt lat="43.711917" lon="11.2725878"><ele>177.8</ele><time>2026-04-19T08:07:13.236Z</time></trkpt><trkpt lat="43.7118519" lon="11.2724674"><ele>177.60000000000002</ele><time>2026-04-19T08:07:14.245Z</time></trkpt><trkpt lat="43.7117903" lon="11.2723514"><ele>177.39999999999998</ele><time>2026-04-19T08:07:15.238Z</time></trkpt><trkpt lat="43.7117249" lon="11.2722344"><ele>177.2</ele><time>2026-04-19T08:07:16.24Z</time></trkpt><trkpt lat="43.7116539" lon="11.2721239"><ele>177.0</ele><time>2026-04-19T08:07:17.242Z</time></trkpt><trkpt lat="43.7115852" lon="11.2720102"><ele>177.0</ele><time>2026-04-19T08:07:18.234Z</time></trkpt><trkpt lat="43.7115154" lon="11.2719036"><ele>177.0</ele><time>2026-04-19T08:07:19.253Z</time></trkpt><trkpt lat="43.7114464" lon="11.2717896"><ele>177.0</ele><time>2026-04-19T08:07:20.228Z</time></trkpt><trkpt lat="43.7113734" lon="11.2716631"><ele>177.0</ele><time>2026-04-19T08:07:21.237Z</time></trkpt><trkpt lat="43.7112923" lon="11.2715383"><ele>176.0</ele><time>2026-04-19T08:07:22.231Z</time></trkpt><trkpt lat="43.7112161" lon="11.2713971"><ele>175.0</ele><time>2026-04-19T08:07:23.246Z</time></trkpt><trkpt lat="43.7111436" lon="11.2712509"><ele>174.0</ele><time>2026-04-19T08:07:24.227Z</time></trkpt><trkpt lat="43.7110693" lon="11.2711081"><ele>173.0</ele><time>2026-04-19T08:07:25.227Z</time></trkpt><trkpt lat="43.7110013" lon="11.270966"><ele>176.75</ele><time>2026-04-19T08:07:26.236Z</time></trkpt><trkpt lat="43.7109368" lon="11.2708388"><ele>180.5</ele><time>2026-04-19T08:07:27.243Z</time></trkpt><trkpt lat="43.7108627" lon="11.2707225"><ele>184.25</ele><time>2026-04-19T08:07:28.232Z</time></trkpt><trkpt lat="43.7107761" lon="11.2706258"><ele>188.0</ele><time>2026-04-19T08:07:29.238Z</time></trkpt><trkpt lat="43.7106662" lon="11.2705382"><ele>188.0</ele><time>2026-04-19T08:07:30.246Z</time></trkpt><trkpt lat="43.7105453" lon="11.2704588"><ele>188.0</ele><time>2026-04-19T08:07:31.245Z</time></trkpt><trkpt lat="43.7104196" lon="11.2703798"><ele>188.0</ele><time>2026-04-19T08:07:32.248Z</time></trkpt><trkpt lat="43.7103059" lon="11.2702987"><ele>188.0</ele><time>2026-04-19T08:07:33.242Z</time></trkpt><trkpt lat="43.7101986" lon="11.2702016"><ele>191.2</ele><time>2026-04-19T08:07:34.241Z</time></trkpt><trkpt lat="43.7101046" lon="11.2701089"><ele>194.4</ele><time>2026-04-19T08:07:35.248Z</time></trkpt><trkpt lat="43.7100191" lon="11.2700213"><ele>197.6</ele><time>2026-04-19T08:07:36.242Z</time></trkpt><trkpt lat="43.7099348" lon="11.2699613"><ele>200.79999999999998</ele><time>2026-04-19T08:07:37.249Z</time></trkpt><trkpt lat="43.709849" lon="11.2699351"><ele>204.0</ele><time>2026-04-19T08:07:38.25Z</time></trkpt><trkpt lat="43.7097526" lon="11.2699319"><ele>204.0</ele><time>2026-04-19T08:07:39.243Z</time></trkpt><trkpt lat="43.7096472" lon="11.2699279"><ele>204.0</ele><time>2026-04-19T08:07:40.251Z</time></trkpt><trkpt lat="43.709533" lon="11.2699315"><ele>204.0</ele><time>2026-04-19T08:07:41.245Z</time></trkpt><trkpt lat="43.7094177" lon="11.2699302"><ele>204.0</ele><time>2026-04-19T08:07:42.241Z</time></trkpt><trkpt lat="43.7093068" lon="11.2699354"><ele>204.0</ele><time>2026-04-19T08:07:43.244Z</time></trkpt><trkpt lat="43.709185" lon="11.2699395"><ele>206.5</ele><time>2026-04-19T08:07:44.247Z</time></trkpt><trkpt lat="43.7090623" lon="11.2699358"><ele>209.0</ele><time>2026-04-19T08:07:45.224Z</time></trkpt><trkpt lat="43.7089364" lon="11.2699243"><ele>211.5</ele><time>2026-04-19T08:07:46.242Z</time></trkpt><trkpt lat="43.7088096" lon="11.2699142"><ele>214.0</ele><time>2026-04-19T08:07:47.23Z</time></trkpt><trkpt lat="43.7086893" lon="11.2699016"><ele>215.75</ele><time>2026-04-19T08:07:48.232Z</time></trkpt><trkpt lat="43.7085702" lon="11.2698867"><ele>217.5</ele><time>2026-04-19T08:07:49.236Z</time></trkpt><trkpt lat="43.7084593" lon="11.2698796"><ele>219.25</ele><time>2026-04-19T08:07:50.222Z</time></trkpt><trkpt lat="43.7083434" lon="11.2698722"><ele>221.0</ele><time>2026-04-19T08:07:51.235Z</time></trkpt><trkpt lat="43.7082334" lon="11.269867"><ele>221.00000000000003</ele><time>2026-04-19T08:07:52.226Z</time></trkpt><trkpt lat="43.708135" lon="11.2698613"><ele>221.0</ele><time>2026-04-19T08:07:53.239Z</time></trkpt><trkpt lat="43.7080483" lon="11.2698662"><ele>221.0</ele><time>2026-04-19T08:07:54.227Z</time></trkpt><trkpt lat="43.707973" lon="11.2698648"><ele>221.0</ele><time>2026-04-19T08:07:55.228Z</time></trkpt><trkpt lat="43.7079075" lon="11.2698658"><ele>221.00000000000003</ele><time>2026-04-19T08:07:56.228Z</time></trkpt><trkpt lat="43.7078401" lon="11.2698365"><ele>221.0</ele><time>2026-04-19T08:07:58.233Z</time></trkpt><trkpt lat="43.7078024" lon="11.2697402"><ele>221.25</ele><time>2026-04-19T08:08:29.251Z</time></trkpt><trkpt lat="43.7077992" lon="11.2695463"><ele>221.5</ele><time>2026-04-19T08:08:31.259Z</time></trkpt><trkpt lat="43.7078034" lon="11.2694052"><ele>221.75</ele><time>2026-04-19T08:08:32.238Z</time></trkpt><trkpt lat="43.7078147" lon="11.269252"><ele>222.0</ele><time>2026-04-19T08:08:33.239Z</time></trkpt><trkpt lat="43.7078282" lon="11.2691092"><ele>222.0</ele><time>2026-04-19T08:08:34.24Z</time></trkpt><trkpt lat="43.7078344" lon="11.2689485"><ele>222.0</ele><time>2026-04-19T08:08:35.239Z</time></trkpt><trkpt lat="43.7078392" lon="11.2687885"><ele>222.0</ele><time>2026-04-19T08:08:36.236Z</time></trkpt><trkpt lat="43.7078475" lon="11.268617"><ele>222.0</ele><time>2026-04-19T08:08:37.249Z</time></trkpt><trkpt lat="43.7078579" lon="11.2684486"><ele>222.0</ele><time>2026-04-19T08:08:38.233Z</time></trkpt><trkpt lat="43.7078666" lon="11.2682751"><ele>222.0</ele><time>2026-04-19T08:08:39.242Z</time></trkpt><trkpt lat="43.7078788" lon="11.2680972"><ele>222.0</ele><time>2026-04-19T08:08:40.233Z</time></trkpt><trkpt lat="43.7078974" lon="11.2679178"><ele>222.0</ele><time>2026-04-19T08:08:41.237Z</time></trkpt><trkpt lat="43.7079126" lon="11.2677335"><ele>222.0</ele><time>2026-04-19T08:08:42.234Z</time></trkpt><trkpt lat="43.707928" lon="11.2675618"><ele>222.0</ele><time>2026-04-19T08:08:43.237Z</time></trkpt><trkpt lat="43.7079304" lon="11.2674064"><ele>222.0</ele><time>2026-04-19T08:08:44.24Z</time></trkpt><trkpt lat="43.7079319" lon="11.2672715"><ele>222.0</ele><time>2026-04-19T08:08:45.234Z</time></trkpt><trkpt lat="43.7079343" lon="11.2671676"><ele>222.0</ele><time>2026-04-19T08:08:46.231Z</time></trkpt><trkpt lat="43.7079342" lon="11.2670618"><ele>221.2</ele><time>2026-04-19T08:08:47.236Z</time></trkpt><trkpt lat="43.7079153" lon="11.2669392"><ele>220.39999999999998</ele><time>2026-04-19T08:08:48.233Z</time></trkpt><trkpt lat="43.7078904" lon="11.2668048"><ele>219.60000000000002</ele><time>2026-04-19T08:08:49.236Z</time></trkpt><trkpt lat="43.7078681" lon="11.2666676"><ele>218.8</ele><time>2026-04-19T08:08:50.227Z</time></trkpt><trkpt lat="43.707843" lon="11.2665244"><ele>218.0</ele><time>2026-04-19T08:08:51.239Z</time></trkpt><trkpt lat="43.7078139" lon="11.2663756"><ele>218.2</ele><time>2026-04-19T08:08:52.224Z</time></trkpt><trkpt lat="43.7077884" lon="11.266223"><ele>218.4</ele><time>2026-04-19T08:08:53.232Z</time></trkpt><trkpt lat="43.7077657" lon="11.2660762"><ele>218.59999999999997</ele><time>2026-04-19T08:08:54.23Z</time></trkpt><trkpt lat="43.7077388" lon="11.2659303"><ele>218.79999999999998</ele><time>2026-04-19T08:08:55.237Z</time></trkpt><trkpt lat="43.7077254" lon="11.2658071"><ele>219.0</ele><time>2026-04-19T08:08:56.241Z</time></trkpt><trkpt lat="43.7077248" lon="11.2656742"><ele>219.0</ele><time>2026-04-19T08:08:57.243Z</time></trkpt><trkpt lat="43.7077575" lon="11.2655489"><ele>219.0</ele><time>2026-04-19T08:08:58.228Z</time></trkpt><trkpt lat="43.7078046" lon="11.2654118"><ele>219.0</ele><time>2026-04-19T08:08:59.252Z</time></trkpt><trkpt lat="43.7078587" lon="11.2652636"><ele>219.0</ele><time>2026-04-19T08:09:00.242Z</time></trkpt><trkpt lat="43.707917" lon="11.2650897"><ele>219.0</ele><time>2026-04-19T08:09:01.245Z</time></trkpt><trkpt lat="43.7079683" lon="11.264937"><ele>218.99999999999997</ele><time>2026-04-19T08:09:02.232Z</time></trkpt><trkpt lat="43.7080088" lon="11.2647945"><ele>218.99999999999997</ele><time>2026-04-19T08:09:03.236Z</time></trkpt><trkpt lat="43.708037" lon="11.2646685"><ele>219.0</ele><time>2026-04-19T08:09:04.236Z</time></trkpt><trkpt lat="43.7080637" lon="11.2645688"><ele>219.0</ele><time>2026-04-19T08:09:05.236Z</time></trkpt><trkpt lat="43.7080521" lon="11.264477"><ele>219.66666666666666</ele><time>2026-04-19T08:09:08.236Z</time></trkpt><trkpt lat="43.7079824" lon="11.2644682"><ele>220.33333333333331</ele><time>2026-04-19T08:09:10.221Z</time></trkpt><trkpt lat="43.7079178" lon="11.2644465"><ele>221.0</ele><time>2026-04-19T08:09:11.225Z</time></trkpt><trkpt lat="43.7078554" lon="11.2644207"><ele>221.66666666666666</ele><time>2026-04-19T08:09:12.252Z</time></trkpt><trkpt lat="43.7077394" lon="11.2643569"><ele>222.33333333333331</ele><time>2026-04-19T08:09:14.256Z</time></trkpt><trkpt lat="43.7076679" lon="11.264312"><ele>223.0</ele><time>2026-04-19T08:09:15.235Z</time></trkpt><trkpt lat="43.7075974" lon="11.2642683"><ele>223.49999999999997</ele><time>2026-04-19T08:09:16.228Z</time></trkpt><trkpt lat="43.7075147" lon="11.264232"><ele>224.0</ele><time>2026-04-19T08:09:17.239Z</time></trkpt><trkpt lat="43.7074306" lon="11.2642131"><ele>224.5</ele><time>2026-04-19T08:09:18.233Z</time></trkpt><trkpt lat="43.7073584" lon="11.2642021"><ele>225.0</ele><time>2026-04-19T08:09:19.245Z</time></trkpt><trkpt lat="43.7072553" lon="11.2641752"><ele>225.49999999999997</ele><time>2026-04-19T08:09:21.271Z</time></trkpt><trkpt lat="43.7071947" lon="11.2640917"><ele>226.0</ele><time>2026-04-19T08:09:23.239Z</time></trkpt><trkpt lat="43.7071532" lon="11.263978"><ele>225.57142857142858</ele><time>2026-04-19T08:09:39.247Z</time></trkpt><trkpt lat="43.7071153" lon="11.2639061"><ele>225.14285714285714</ele><time>2026-04-19T08:09:40.229Z</time></trkpt><trkpt lat="43.7070737" lon="11.2638173"><ele>224.71428571428572</ele><time>2026-04-19T08:09:41.245Z</time></trkpt><trkpt lat="43.7070272" lon="11.2637271"><ele>224.28571428571428</ele><time>2026-04-19T08:09:42.248Z</time></trkpt><trkpt lat="43.7069854" lon="11.2636335"><ele>223.85714285714283</ele><time>2026-04-19T08:09:43.237Z</time></trkpt><trkpt lat="43.7069406" lon="11.2635534"><ele>223.42857142857142</ele><time>2026-04-19T08:09:44.232Z</time></trkpt><trkpt lat="43.7068969" lon="11.2634765"><ele>223.0</ele><time>2026-04-19T08:09:45.237Z</time></trkpt><trkpt lat="43.7068484" lon="11.2633939"><ele>222.99999999999997</ele><time>2026-04-19T08:09:46.242Z</time></trkpt><trkpt lat="43.7067959" lon="11.2633027"><ele>223.0</ele><time>2026-04-19T08:09:47.259Z</time></trkpt><trkpt lat="43.7067382" lon="11.2632119"><ele>223.0</ele><time>2026-04-19T08:09:48.236Z</time></trkpt><trkpt lat="43.7066873" lon="11.2631442"><ele>223.0</ele><time>2026-04-19T08:09:49.239Z</time></trkpt><trkpt lat="43.7066259" lon="11.2630896"><ele>222.99999999999997</ele><time>2026-04-19T08:09:50.243Z</time></trkpt><trkpt lat="43.7065483" lon="11.263056"><ele>223.0</ele><time>2026-04-19T08:09:51.224Z</time></trkpt><trkpt lat="43.7064521" lon="11.2630052"><ele>223.0</ele><time>2026-04-19T08:09:52.217Z</time></trkpt><trkpt lat="43.7063361" lon="11.262953"><ele>223.0</ele><time>2026-04-19T08:09:53.226Z</time></trkpt><trkpt lat="43.7062258" lon="11.2628964"><ele>223.0</ele><time>2026-04-19T08:09:54.235Z</time></trkpt><trkpt lat="43.7061275" lon="11.2628463"><ele>223.0</ele><time>2026-04-19T08:09:55.247Z</time></trkpt><trkpt lat="43.7060469" lon="11.2627953"><ele>223.0</ele><time>2026-04-19T08:09:56.236Z</time></trkpt><trkpt lat="43.7059795" lon="11.2627571"><ele>222.99999999999997</ele><time>2026-04-19T08:09:57.26Z</time></trkpt><trkpt lat="43.7058882" lon="11.2626882"><ele>223.0</ele><time>2026-04-19T08:09:59.231Z</time></trkpt><trkpt lat="43.7058204" lon="11.2626381"><ele>223.0</ele><time>2026-04-19T08:10:01.228Z</time></trkpt><trkpt lat="43.7057775" lon="11.2625449"><ele>223.0</ele><time>2026-04-19T08:10:03.225Z</time></trkpt><trkpt lat="43.7057273" lon="11.2624486"><ele>222.99999999999997</ele><time>2026-04-19T08:10:06.228Z</time></trkpt><trkpt lat="43.7056833" lon="11.2623441"><ele>223.0</ele><time>2026-04-19T08:10:09.23Z</time></trkpt><trkpt lat="43.705644" lon="11.2622704"><ele>223.99999999999997</ele><time>2026-04-19T08:10:12.231Z</time></trkpt><trkpt lat="43.7056037" lon="11.2622018"><ele>225.0</ele><time>2026-04-19T08:10:16.237Z</time></trkpt><trkpt lat="43.7055462" lon="11.2621449"><ele>226.0</ele><time>2026-04-19T08:10:20.232Z</time></trkpt><trkpt lat="43.7054889" lon="11.2620798"><ele>227.0</ele><time>2026-04-19T08:10:23.226Z</time></trkpt><trkpt lat="43.7054416" lon="11.2619868"><ele>227.99999999999997</ele><time>2026-04-19T08:10:26.228Z</time></trkpt><trkpt lat="43.7054043" lon="11.2619089"><ele>229.0</ele><time>2026-04-19T08:10:28.233Z</time></trkpt><trkpt lat="43.7053412" lon="11.2617918"><ele>229.0</ele><time>2026-04-19T08:10:30.226Z</time></trkpt><trkpt lat="43.7052801" lon="11.2616886"><ele>228.99999999999997</ele><time>2026-04-19T08:10:32.224Z</time></trkpt><trkpt lat="43.7052184" lon="11.2615689"><ele>228.99999999999997</ele><time>2026-04-19T08:10:34.231Z</time></trkpt><trkpt lat="43.7051654" lon="11.2614555"><ele>229.0</ele><time>2026-04-19T08:10:36.241Z</time></trkpt><trkpt lat="43.7051101" lon="11.2613623"><ele>229.0</ele><time>2026-04-19T08:10:38.239Z</time></trkpt><trkpt lat="43.7050425" lon="11.2612605"><ele>227.6</ele><time>2026-04-19T08:10:40.231Z</time></trkpt><trkpt lat="43.7049841" lon="11.2611549"><ele>226.2</ele><time>2026-04-19T08:10:42.229Z</time></trkpt><trkpt lat="43.704909" lon="11.2610261"><ele>224.79999999999998</ele><time>2026-04-19T08:10:44.22Z</time></trkpt><trkpt lat="43.7048375" lon="11.2609061"><ele>223.39999999999998</ele><time>2026-04-19T08:10:46.231Z</time></trkpt><trkpt lat="43.7047887" lon="11.2608006"><ele>222.0</ele><time>2026-04-19T08:10:48.239Z</time></trkpt><trkpt lat="43.7047386" lon="11.2606977"><ele>222.66666666666666</ele><time>2026-04-19T08:10:50.241Z</time></trkpt><trkpt lat="43.7046846" lon="11.2606157"><ele>223.33333333333331</ele><time>2026-04-19T08:10:52.231Z</time></trkpt><trkpt lat="43.7046325" lon="11.2605129"><ele>224.0</ele><time>2026-04-19T08:10:55.248Z</time></trkpt><trkpt lat="43.7045849" lon="11.2604247"><ele>224.66666666666666</ele><time>2026-04-19T08:10:58.238Z</time></trkpt><trkpt lat="43.7045407" lon="11.2603317"><ele>225.33333333333331</ele><time>2026-04-19T08:11:01.229Z</time></trkpt><trkpt lat="43.7045074" lon="11.260233"><ele>226.0</ele><time>2026-04-19T08:11:04.226Z</time></trkpt><trkpt lat="43.7044598" lon="11.2601362"><ele>226.0</ele><time>2026-04-19T08:11:07.231Z</time></trkpt><trkpt lat="43.7044219" lon="11.2600586"><ele>226.0</ele><time>2026-04-19T08:11:10.239Z</time></trkpt><trkpt lat="43.7043963" lon="11.2599725"><ele>226.0</ele><time>2026-04-19T08:11:14.232Z</time></trkpt><trkpt lat="43.7043745" lon="11.2598894"><ele>226.0</ele><time>2026-04-19T08:11:18.236Z</time></trkpt><trkpt lat="43.7043309" lon="11.2598102"><ele>226.0</ele><time>2026-04-19T08:11:21.234Z</time></trkpt><trkpt lat="43.70429" lon="11.2597111"><ele>226.0</ele><time>2026-04-19T08:11:24.233Z</time></trkpt><trkpt lat="43.7042509" lon="11.2596297"><ele>226.0</ele><time>2026-04-19T08:11:27.239Z</time></trkpt><trkpt lat="43.7042089" lon="11.2595431"><ele>223.49999999999997</ele><time>2026-04-19T08:11:30.229Z</time></trkpt><trkpt lat="43.7041766" lon="11.2594391"><ele>221.0</ele><time>2026-04-19T08:11:33.232Z</time></trkpt><trkpt lat="43.7041377" lon="11.2593477"><ele>218.5</ele><time>2026-04-19T08:11:36.228Z</time></trkpt><trkpt lat="43.7041072" lon="11.2592573"><ele>216.0</ele><time>2026-04-19T08:11:39.234Z</time></trkpt><trkpt lat="43.7040693" lon="11.259164"><ele>213.49999999999997</ele><time>2026-04-19T08:11:42.235Z</time></trkpt><trkpt lat="43.704046" lon="11.2590759"><ele>211.0</ele><time>2026-04-19T08:11:45.231Z</time></trkpt><trkpt lat="43.7040036" lon="11.2589742"><ele>210.99999999999997</ele><time>2026-04-19T08:11:49.24Z</time></trkpt><trkpt lat="43.7039527" lon="11.2588742"><ele>211.0</ele><time>2026-04-19T08:11:52.24Z</time></trkpt><trkpt lat="43.7039057" lon="11.2587688"><ele>211.0</ele><time>2026-04-19T08:11:55.226Z</time></trkpt><trkpt lat="43.7038619" lon="11.2586705"><ele>211.0</ele><time>2026-04-19T08:11:58.231Z</time></trkpt><trkpt lat="43.7038296" lon="11.2585863"><ele>210.99999999999997</ele><time>2026-04-19T08:12:01.237Z</time></trkpt><trkpt lat="43.7037872" lon="11.2585106"><ele>211.0</ele><time>2026-04-19T08:12:04.231Z</time></trkpt><trkpt lat="43.7037507" lon="11.2584205"><ele>210.99999999999997</ele><time>2026-04-19T08:12:07.245Z</time></trkpt><trkpt lat="43.7037175" lon="11.2583298"><ele>211.0</ele><time>2026-04-19T08:12:10.238Z</time></trkpt><trkpt lat="43.7036983" lon="11.2582441"><ele>211.0</ele><time>2026-04-19T08:12:31.226Z</time></trkpt><trkpt lat="43.7037076" lon="11.2581377"><ele>211.0</ele><time>2026-04-19T08:12:34.237Z</time></trkpt><trkpt lat="43.7036398" lon="11.2580331"><ele>210.99999999999997</ele><time>2026-04-19T08:12:36.229Z</time></trkpt><trkpt lat="43.7035603" lon="11.257903"><ele>211.0</ele><time>2026-04-19T08:12:38.238Z</time></trkpt><trkpt lat="43.703482" lon="11.2577748"><ele>211.0</ele><time>2026-04-19T08:12:40.232Z</time></trkpt><trkpt lat="43.7034078" lon="11.2576487"><ele>211.0</ele><time>2026-04-19T08:12:42.238Z</time></trkpt><trkpt lat="43.7033637" lon="11.2575798"><ele>211.0</ele><time>2026-04-19T08:12:43.234Z</time></trkpt><trkpt lat="43.7033207" lon="11.2575137"><ele>211.0</ele><time>2026-04-19T08:12:44.24Z</time></trkpt><trkpt lat="43.7032785" lon="11.2574457"><ele>211.0</ele><time>2026-04-19T08:12:45.228Z</time></trkpt><trkpt lat="43.7032332" lon="11.2573735"><ele>211.0</ele><time>2026-04-19T08:12:46.231Z</time></trkpt><trkpt lat="43.7031882" lon="11.2573051"><ele>211.0</ele><time>2026-04-19T08:12:47.244Z</time></trkpt><trkpt lat="43.7031183" lon="11.2571901"><ele>212.33333333333331</ele><time>2026-04-19T08:12:49.229Z</time></trkpt><trkpt lat="43.7030473" lon="11.2570811"><ele>213.66666666666666</ele><time>2026-04-19T08:12:51.235Z</time></trkpt><trkpt lat="43.7029939" lon="11.256985"><ele>215.0</ele><time>2026-04-19T08:12:53.229Z</time></trkpt><trkpt lat="43.7029312" lon="11.2569261"><ele>216.33333333333331</ele><time>2026-04-19T08:12:57.23Z</time></trkpt><trkpt lat="43.7028634" lon="11.2569452"><ele>217.66666666666666</ele><time>2026-04-19T08:13:00.231Z</time></trkpt><trkpt lat="43.7027915" lon="11.2569833"><ele>219.0</ele><time>2026-04-19T08:13:55.24Z</time></trkpt><trkpt lat="43.7027311" lon="11.2571037"><ele>219.0</ele><time>2026-04-19T08:13:57.236Z</time></trkpt><trkpt lat="43.7027014" lon="11.2571888"><ele>219.0</ele><time>2026-04-19T08:13:58.233Z</time></trkpt><trkpt lat="43.7026699" lon="11.2572687"><ele>219.0</ele><time>2026-04-19T08:13:59.233Z</time></trkpt><trkpt lat="43.7026353" lon="11.2573469"><ele>219.0</ele><time>2026-04-19T08:14:00.231Z</time></trkpt><trkpt lat="43.7026026" lon="11.2574298"><ele>219.0</ele><time>2026-04-19T08:14:01.237Z</time></trkpt><trkpt lat="43.7025729" lon="11.2575123"><ele>219.0</ele><time>2026-04-19T08:14:02.237Z</time></trkpt><trkpt lat="43.7025289" lon="11.2576421"><ele>219.0</ele><time>2026-04-19T08:14:04.234Z</time></trkpt><trkpt lat="43.7024593" lon="11.257708"><ele>218.39999999999998</ele><time>2026-04-19T08:14:06.232Z</time></trkpt><trkpt lat="43.7023632" lon="11.2577543"><ele>217.79999999999998</ele><time>2026-04-19T08:14:08.227Z</time></trkpt><trkpt lat="43.7022904" lon="11.2578284"><ele>217.20000000000002</ele><time>2026-04-19T08:14:10.223Z</time></trkpt><trkpt lat="43.7022385" lon="11.2579158"><ele>216.60000000000002</ele><time>2026-04-19T08:14:12.212Z</time></trkpt><trkpt lat="43.7021895" lon="11.2580327"><ele>216.0</ele><time>2026-04-19T08:14:14.224Z</time></trkpt><trkpt lat="43.7021366" lon="11.2581663"><ele>216.0</ele><time>2026-04-19T08:14:16.228Z</time></trkpt><trkpt lat="43.7020932" lon="11.2583154"><ele>216.00000000000003</ele><time>2026-04-19T08:14:18.225Z</time></trkpt><trkpt lat="43.7020874" lon="11.2584032"><ele>216.00000000000003</ele><time>2026-04-19T08:14:19.224Z</time></trkpt><trkpt lat="43.7020642" lon="11.2585493"><ele>216.0</ele><time>2026-04-19T08:14:21.224Z</time></trkpt><trkpt lat="43.7020397" lon="11.2586488"><ele>216.0</ele><time>2026-04-19T08:14:23.237Z</time></trkpt><trkpt lat="43.7019607" lon="11.2587543"><ele>215.5</ele><time>2026-04-19T08:14:25.235Z</time></trkpt><trkpt lat="43.701905" lon="11.2588286"><ele>215.0</ele><time>2026-04-19T08:14:26.229Z</time></trkpt><trkpt lat="43.7018525" lon="11.2589156"><ele>214.5</ele><time>2026-04-19T08:14:27.223Z</time></trkpt><trkpt lat="43.7017911" lon="11.2589987"><ele>214.0</ele><time>2026-04-19T08:14:28.255Z</time></trkpt><trkpt lat="43.7017295" lon="11.2590577"><ele>213.5</ele><time>2026-04-19T08:14:29.227Z</time></trkpt><trkpt lat="43.7016714" lon="11.2590924"><ele>213.0</ele><time>2026-04-19T08:14:30.237Z</time></trkpt><trkpt lat="43.7015406" lon="11.2590802"><ele>214.33333333333334</ele><time>2026-04-19T08:14:32.227Z</time></trkpt><trkpt lat="43.701444" lon="11.2590743"><ele>215.66666666666669</ele><time>2026-04-19T08:14:34.226Z</time></trkpt><trkpt lat="43.7013999" lon="11.2591366"><ele>217.0</ele><time>2026-04-19T08:14:48.226Z</time></trkpt><trkpt lat="43.7014674" lon="11.2591091"><ele>218.33333333333334</ele><time>2026-04-19T08:14:53.238Z</time></trkpt><trkpt lat="43.7015712" lon="11.259117"><ele>219.66666666666669</ele><time>2026-04-19T08:14:56.232Z</time></trkpt><trkpt lat="43.7016725" lon="11.259134"><ele>221.0</ele><time>2026-04-19T08:14:58.237Z</time></trkpt><trkpt lat="43.701738" lon="11.2591219"><ele>221.0</ele><time>2026-04-19T08:15:00.239Z</time></trkpt><trkpt lat="43.7018079" lon="11.2590615"><ele>221.00000000000003</ele><time>2026-04-19T08:15:03.227Z</time></trkpt><trkpt lat="43.701865" lon="11.2589761"><ele>221.00000000000003</ele><time>2026-04-19T08:15:05.232Z</time></trkpt><trkpt lat="43.7019343" lon="11.2588815"><ele>221.0</ele><time>2026-04-19T08:15:07.234Z</time></trkpt><trkpt lat="43.7019966" lon="11.2587867"><ele>221.0</ele><time>2026-04-19T08:15:09.224Z</time></trkpt><trkpt lat="43.7020595" lon="11.2586894"><ele>220.16666666666669</ele><time>2026-04-19T08:15:11.24Z</time></trkpt><trkpt lat="43.7020853" lon="11.2585877"><ele>219.33333333333334</ele><time>2026-04-19T08:15:13.241Z</time></trkpt><trkpt lat="43.7020813" lon="11.2584658"><ele>218.5</ele><time>2026-04-19T08:15:16.232Z</time></trkpt><trkpt lat="43.7020879" lon="11.2583695"><ele>217.66666666666669</ele><time>2026-04-19T08:15:42.222Z</time></trkpt><trkpt lat="43.7020995" lon="11.2582741"><ele>216.83333333333334</ele><time>2026-04-19T08:16:11.217Z</time></trkpt><trkpt lat="43.7021629" lon="11.2581339"><ele>216.0</ele><time>2026-04-19T08:16:13.231Z</time></trkpt><trkpt lat="43.702233" lon="11.2579912"><ele>216.0</ele><time>2026-04-19T08:16:15.22Z</time></trkpt><trkpt lat="43.7022757" lon="11.2579084"><ele>216.00000000000003</ele><time>2026-04-19T08:16:16.226Z</time></trkpt><trkpt lat="43.7023295" lon="11.2578278"><ele>216.00000000000003</ele><time>2026-04-19T08:16:17.226Z</time></trkpt><trkpt lat="43.7024298" lon="11.2577661"><ele>216.0</ele><time>2026-04-19T08:16:19.23Z</time></trkpt><trkpt lat="43.7025463" lon="11.2577232"><ele>216.0</ele><time>2026-04-19T08:16:21.235Z</time></trkpt><trkpt lat="43.7026076" lon="11.2576237"><ele>216.0</ele><time>2026-04-19T08:16:23.226Z</time></trkpt><trkpt lat="43.7026482" lon="11.2574757"><ele>216.00000000000003</ele><time>2026-04-19T08:16:25.237Z</time></trkpt><trkpt lat="43.7026883" lon="11.2573817"><ele>216.00000000000003</ele><time>2026-04-19T08:16:26.232Z</time></trkpt><trkpt lat="43.7027249" lon="11.2572756"><ele>216.0</ele><time>2026-04-19T08:16:27.246Z</time></trkpt><trkpt lat="43.7027679" lon="11.2571638"><ele>216.0</ele><time>2026-04-19T08:16:28.228Z</time></trkpt><trkpt lat="43.7028015" lon="11.2570565"><ele>216.66666666666666</ele><time>2026-04-19T08:16:29.235Z</time></trkpt><trkpt lat="43.7028354" lon="11.2569535"><ele>217.33333333333331</ele><time>2026-04-19T08:16:30.232Z</time></trkpt><trkpt lat="43.7028666" lon="11.2568557"><ele>218.0</ele><time>2026-04-19T08:16:31.235Z</time></trkpt><trkpt lat="43.7028938" lon="11.2567748"><ele>218.66666666666666</ele><time>2026-04-19T08:16:32.24Z</time></trkpt><trkpt lat="43.702907" lon="11.2566831"><ele>219.33333333333331</ele><time>2026-04-19T08:16:34.315Z</time></trkpt><trkpt lat="43.7028592" lon="11.2565924"><ele>220.0</ele><time>2026-04-19T08:16:36.224Z</time></trkpt><trkpt lat="43.7027985" lon="11.256465"><ele>220.7142857142857</ele><time>2026-04-19T08:16:38.235Z</time></trkpt><trkpt lat="43.7027655" lon="11.2563897"><ele>221.42857142857144</ele><time>2026-04-19T08:16:39.242Z</time></trkpt><trkpt lat="43.7027219" lon="11.256306"><ele>222.14285714285717</ele><time>2026-04-19T08:16:40.241Z</time></trkpt><trkpt lat="43.7026766" lon="11.2562226"><ele>222.85714285714286</ele><time>2026-04-19T08:16:41.229Z</time></trkpt><trkpt lat="43.7026344" lon="11.2561433"><ele>223.57142857142858</ele><time>2026-04-19T08:16:42.239Z</time></trkpt><trkpt lat="43.7025974" lon="11.2560618"><ele>224.2857142857143</ele><time>2026-04-19T08:16:43.227Z</time></trkpt><trkpt lat="43.7025537" lon="11.255989"><ele>225.00000000000003</ele><time>2026-04-19T08:16:44.236Z</time></trkpt><trkpt lat="43.7025021" lon="11.2559194"><ele>225.00000000000003</ele><time>2026-04-19T08:16:45.231Z</time></trkpt><trkpt lat="43.7024452" lon="11.2558426"><ele>225.0</ele><time>2026-04-19T08:16:46.237Z</time></trkpt><trkpt lat="43.7023841" lon="11.2557689"><ele>225.00000000000003</ele><time>2026-04-19T08:16:47.23Z</time></trkpt><trkpt lat="43.7023322" lon="11.2557044"><ele>225.00000000000003</ele><time>2026-04-19T08:16:48.233Z</time></trkpt><trkpt lat="43.7022821" lon="11.2556355"><ele>225.0</ele><time>2026-04-19T08:16:49.221Z</time></trkpt><trkpt lat="43.7022322" lon="11.255581"><ele>225.00000000000003</ele><time>2026-04-19T08:16:50.243Z</time></trkpt><trkpt lat="43.7021816" lon="11.2555248"><ele>225.00000000000003</ele><time>2026-04-19T08:16:51.246Z</time></trkpt><trkpt lat="43.7021" lon="11.2554196"><ele>225.8</ele><time>2026-04-19T08:16:53.238Z</time></trkpt><trkpt lat="43.702031" lon="11.255319"><ele>226.6</ele><time>2026-04-19T08:16:55.243Z</time></trkpt><trkpt lat="43.7019672" lon="11.2552431"><ele>227.39999999999998</ele><time>2026-04-19T08:16:57.245Z</time></trkpt><trkpt lat="43.7018974" lon="11.2551495"><ele>228.2</ele><time>2026-04-19T08:16:59.233Z</time></trkpt><trkpt lat="43.7018199" lon="11.2550809"><ele>229.0</ele><time>2026-04-19T08:17:01.226Z</time></trkpt><trkpt lat="43.7017545" lon="11.2550161"><ele>227.57142857142856</ele><time>2026-04-19T08:17:03.23Z</time></trkpt><trkpt lat="43.7017186" lon="11.2549303"><ele>226.14285714285717</ele><time>2026-04-19T08:17:05.264Z</time></trkpt><trkpt lat="43.7016978" lon="11.2548261"><ele>224.71428571428572</ele><time>2026-04-19T08:17:09.239Z</time></trkpt><trkpt lat="43.7016575" lon="11.2547426"><ele>223.28571428571428</ele><time>2026-04-19T08:17:13.229Z</time></trkpt><trkpt lat="43.7016082" lon="11.2546759"><ele>221.85714285714283</ele><time>2026-04-19T08:17:16.22Z</time></trkpt><trkpt lat="43.7015579" lon="11.2546177"><ele>220.42857142857144</ele><time>2026-04-19T08:17:21.223Z</time></trkpt><trkpt lat="43.7015639" lon="11.2545079"><ele>219.0</ele><time>2026-04-19T08:22:41.226Z</time></trkpt><trkpt lat="43.7015191" lon="11.2544168"><ele>219.0</ele><time>2026-04-19T08:22:44.222Z</time></trkpt><trkpt lat="43.7014751" lon="11.2543531"><ele>219.0</ele><time>2026-04-19T08:22:51.215Z</time></trkpt><trkpt lat="43.7014103" lon="11.2543087"><ele>219.0</ele><time>2026-04-19T08:23:00.217Z</time></trkpt><trkpt lat="43.701357" lon="11.254251"><ele>219.0</ele><time>2026-04-19T08:23:04.23Z</time></trkpt><trkpt lat="43.7012979" lon="11.2542083"><ele>219.0</ele><time>2026-04-19T08:23:20.214Z</time></trkpt><trkpt lat="43.7012427" lon="11.2541401"><ele>219.0</ele><time>2026-04-19T08:23:25.213Z</time></trkpt><trkpt lat="43.701166" lon="11.2541035"><ele>219.0</ele><time>2026-04-19T08:23:44.219Z</time></trkpt><trkpt lat="43.7011041" lon="11.2540697"><ele>219.0</ele><time>2026-04-19T08:23:52.221Z</time></trkpt><trkpt lat="43.7010572" lon="11.2541513"><ele>219.0</ele><time>2026-04-19T08:23:56.208Z</time></trkpt><trkpt lat="43.7010125" lon="11.2542254"><ele>219.0</ele><time>2026-04-19T08:24:03.218Z</time></trkpt><trkpt lat="43.7010773" lon="11.2541793"><ele>219.0</ele><time>2026-04-19T08:24:16.233Z</time></trkpt><trkpt lat="43.7011015" lon="11.2540702"><ele>219.0</ele><time>2026-04-19T08:24:18.224Z</time></trkpt><trkpt lat="43.7011548" lon="11.2540193"><ele>219.0</ele><time>2026-04-19T08:24:21.215Z</time></trkpt><trkpt lat="43.701213" lon="11.2541077"><ele>219.0</ele><time>2026-04-19T08:24:31.215Z</time></trkpt><trkpt lat="43.701269" lon="11.2541842"><ele>219.0</ele><time>2026-04-19T08:24:33.212Z</time></trkpt><trkpt lat="43.7013249" lon="11.2542386"><ele>219.0</ele><time>2026-04-19T08:24:35.215Z</time></trkpt><trkpt lat="43.7013883" lon="11.2542913"><ele>219.0</ele><time>2026-04-19T08:24:37.218Z</time></trkpt><trkpt lat="43.7014501" lon="11.2543453"><ele>219.0</ele><time>2026-04-19T08:24:41.217Z</time></trkpt><trkpt lat="43.7015181" lon="11.2543791"><ele>219.0</ele><time>2026-04-19T08:25:44.23Z</time></trkpt><trkpt lat="43.701578" lon="11.2544853"><ele>219.0</ele><time>2026-04-19T08:25:48.221Z</time></trkpt><trkpt lat="43.701616" lon="11.2545815"><ele>219.0</ele><time>2026-04-19T08:25:50.226Z</time></trkpt><trkpt lat="43.7016536" lon="11.2546971"><ele>219.0</ele><time>2026-04-19T08:25:52.219Z</time></trkpt><trkpt lat="43.7016981" lon="11.2548105"><ele>219.0</ele><time>2026-04-19T08:25:54.229Z</time></trkpt><trkpt lat="43.7017364" lon="11.2549179"><ele>219.0</ele><time>2026-04-19T08:25:56.233Z</time></trkpt><trkpt lat="43.7018069" lon="11.2550126"><ele>219.0</ele><time>2026-04-19T08:25:58.229Z</time></trkpt><trkpt lat="43.7018569" lon="11.2550679"><ele>220.66666666666666</ele><time>2026-04-19T08:25:59.221Z</time></trkpt><trkpt lat="43.7019201" lon="11.2551287"><ele>222.33333333333331</ele><time>2026-04-19T08:26:00.226Z</time></trkpt><trkpt lat="43.7019781" lon="11.2552202"><ele>224.0</ele><time>2026-04-19T08:26:01.228Z</time></trkpt><trkpt lat="43.7020401" lon="11.2552922"><ele>225.66666666666666</ele><time>2026-04-19T08:26:02.224Z</time></trkpt><trkpt lat="43.7021033" lon="11.2553785"><ele>227.33333333333331</ele><time>2026-04-19T08:26:03.213Z</time></trkpt><trkpt lat="43.7021651" lon="11.2554763"><ele>229.0</ele><time>2026-04-19T08:26:04.228Z</time></trkpt><trkpt lat="43.7022366" lon="11.2555786"><ele>228.33333333333331</ele><time>2026-04-19T08:26:05.217Z</time></trkpt><trkpt lat="43.7023101" lon="11.2556683"><ele>227.66666666666666</ele><time>2026-04-19T08:26:06.229Z</time></trkpt><trkpt lat="43.702385" lon="11.2557521"><ele>227.0</ele><time>2026-04-19T08:26:07.222Z</time></trkpt><trkpt lat="43.7024534" lon="11.2558271"><ele>226.33333333333331</ele><time>2026-04-19T08:26:08.228Z</time></trkpt><trkpt lat="43.7025199" lon="11.2559028"><ele>225.66666666666666</ele><time>2026-04-19T08:26:09.219Z</time></trkpt><trkpt lat="43.7025702" lon="11.2559784"><ele>225.0</ele><time>2026-04-19T08:26:10.227Z</time></trkpt><trkpt lat="43.7026072" lon="11.2560537"><ele>225.0</ele><time>2026-04-19T08:26:11.218Z</time></trkpt><trkpt lat="43.7026405" lon="11.2561347"><ele>225.0</ele><time>2026-04-19T08:26:12.22Z</time></trkpt><trkpt lat="43.7027011" lon="11.2562816"><ele>225.0</ele><time>2026-04-19T08:26:14.225Z</time></trkpt><trkpt lat="43.7027595" lon="11.256429"><ele>225.0</ele><time>2026-04-19T08:26:16.228Z</time></trkpt><trkpt lat="43.7028184" lon="11.2565632"><ele>225.0</ele><time>2026-04-19T08:26:18.231Z</time></trkpt><trkpt lat="43.7028539" lon="11.2566354"><ele>225.0</ele><time>2026-04-19T08:26:20.23Z</time></trkpt><trkpt lat="43.7029169" lon="11.2566329"><ele>225.0</ele><time>2026-04-19T08:26:24.217Z</time></trkpt><trkpt lat="43.7028589" lon="11.2565717"><ele>225.0</ele><time>2026-04-19T08:27:26.225Z</time></trkpt><trkpt lat="43.702812" lon="11.256423"><ele>225.0</ele><time>2026-04-19T08:27:28.225Z</time></trkpt><trkpt lat="43.7027719" lon="11.2563311"><ele>225.0</ele><time>2026-04-19T08:27:29.249Z</time></trkpt><trkpt lat="43.7027319" lon="11.2562508"><ele>225.0</ele><time>2026-04-19T08:27:30.227Z</time></trkpt><trkpt lat="43.7026977" lon="11.2561739"><ele>225.0</ele><time>2026-04-19T08:27:31.233Z</time></trkpt><trkpt lat="43.7026336" lon="11.2560348"><ele>225.0</ele><time>2026-04-19T08:27:33.222Z</time></trkpt><trkpt lat="43.7025637" lon="11.2559183"><ele>225.0</ele><time>2026-04-19T08:27:35.224Z</time></trkpt><trkpt lat="43.7025073" lon="11.2558201"><ele>225.0</ele><time>2026-04-19T08:27:37.234Z</time></trkpt><trkpt lat="43.7024197" lon="11.2557196"><ele>225.0</ele><time>2026-04-19T08:27:39.219Z</time></trkpt><trkpt lat="43.7023116" lon="11.255631"><ele>225.8</ele><time>2026-04-19T08:27:41.227Z</time></trkpt><trkpt lat="43.702209" lon="11.2555443"><ele>226.6</ele><time>2026-04-19T08:27:43.217Z</time></trkpt><trkpt lat="43.7021242" lon="11.2554499"><ele>227.39999999999998</ele><time>2026-04-19T08:27:45.215Z</time></trkpt><trkpt lat="43.7020696" lon="11.2553694"><ele>228.2</ele><time>2026-04-19T08:27:47.223Z</time></trkpt><trkpt lat="43.7020181" lon="11.2552887"><ele>229.0</ele><time>2026-04-19T08:27:50.221Z</time></trkpt><trkpt lat="43.7019674" lon="11.2552059"><ele>226.99999999999997</ele><time>2026-04-19T08:27:53.221Z</time></trkpt><trkpt lat="43.7019137" lon="11.2551441"><ele>225.0</ele><time>2026-04-19T08:27:55.224Z</time></trkpt><trkpt lat="43.701836" lon="11.2550641"><ele>223.0</ele><time>2026-04-19T08:27:57.231Z</time></trkpt><trkpt lat="43.7017661" lon="11.2550076"><ele>221.0</ele><time>2026-04-19T08:27:59.226Z</time></trkpt><trkpt lat="43.7016951" lon="11.2549281"><ele>218.99999999999997</ele><time>2026-04-19T08:28:02.224Z</time></trkpt><trkpt lat="43.7017647" lon="11.2549973"><ele>217.0</ele><time>2026-04-19T08:30:03.216Z</time></trkpt><trkpt lat="43.7018208" lon="11.2550612"><ele>217.0</ele><time>2026-04-19T08:30:04.226Z</time></trkpt><trkpt lat="43.7018871" lon="11.2551384"><ele>217.0</ele><time>2026-04-19T08:30:05.215Z</time></trkpt><trkpt lat="43.7019533" lon="11.255221"><ele>217.0</ele><time>2026-04-19T08:30:06.228Z</time></trkpt><trkpt lat="43.7020288" lon="11.2553213"><ele>217.0</ele><time>2026-04-19T08:30:07.218Z</time></trkpt><trkpt lat="43.7021128" lon="11.2554274"><ele>217.0</ele><time>2026-04-19T08:30:08.224Z</time></trkpt><trkpt lat="43.7021832" lon="11.2555273"><ele>218.33333333333331</ele><time>2026-04-19T08:30:09.224Z</time></trkpt><trkpt lat="43.7022485" lon="11.2556181"><ele>219.66666666666666</ele><time>2026-04-19T08:30:10.231Z</time></trkpt><trkpt lat="43.7023195" lon="11.2556963"><ele>221.0</ele><time>2026-04-19T08:30:11.229Z</time></trkpt><trkpt lat="43.7023902" lon="11.2557631"><ele>222.33333333333331</ele><time>2026-04-19T08:30:12.224Z</time></trkpt><trkpt lat="43.7024567" lon="11.2558331"><ele>223.66666666666666</ele><time>2026-04-19T08:30:13.224Z</time></trkpt><trkpt lat="43.7025108" lon="11.2559006"><ele>225.0</ele><time>2026-04-19T08:30:14.229Z</time></trkpt><trkpt lat="43.7025658" lon="11.255973"><ele>225.0</ele><time>2026-04-19T08:30:15.228Z</time></trkpt><trkpt lat="43.7026146" lon="11.2560531"><ele>225.0</ele><time>2026-04-19T08:30:16.23Z</time></trkpt><trkpt lat="43.7026534" lon="11.2561294"><ele>225.0</ele><time>2026-04-19T08:30:17.231Z</time></trkpt><trkpt lat="43.7027138" lon="11.2562734"><ele>225.0</ele><time>2026-04-19T08:30:19.228Z</time></trkpt><trkpt lat="43.7027696" lon="11.2564075"><ele>225.0</ele><time>2026-04-19T08:30:21.222Z</time></trkpt><trkpt lat="43.7028189" lon="11.2565346"><ele>224.16666666666666</ele><time>2026-04-19T08:30:23.227Z</time></trkpt><trkpt lat="43.7028609" lon="11.2566401"><ele>223.33333333333331</ele><time>2026-04-19T08:30:25.237Z</time></trkpt><trkpt lat="43.7029276" lon="11.256645"><ele>222.5</ele><time>2026-04-19T08:30:29.23Z</time></trkpt><trkpt lat="43.7029688" lon="11.2565587"><ele>221.66666666666666</ele><time>2026-04-19T08:30:32.225Z</time></trkpt><trkpt lat="43.7030001" lon="11.256471"><ele>220.83333333333331</ele><time>2026-04-19T08:30:34.233Z</time></trkpt><trkpt lat="43.7030287" lon="11.2563903"><ele>220.0</ele><time>2026-04-19T08:30:35.229Z</time></trkpt><trkpt lat="43.7030687" lon="11.2562498"><ele>221.83333333333331</ele><time>2026-04-19T08:30:37.241Z</time></trkpt><trkpt lat="43.7030932" lon="11.2561618"><ele>223.66666666666666</ele><time>2026-04-19T08:30:38.231Z</time></trkpt><trkpt lat="43.7031172" lon="11.2560672"><ele>225.5</ele><time>2026-04-19T08:30:39.224Z</time></trkpt><trkpt lat="43.7031428" lon="11.2559555"><ele>227.33333333333331</ele><time>2026-04-19T08:30:40.224Z</time></trkpt><trkpt lat="43.7031772" lon="11.2558434"><ele>229.16666666666666</ele><time>2026-04-19T08:30:41.222Z</time></trkpt><trkpt lat="43.7032138" lon="11.2557282"><ele>231.0</ele><time>2026-04-19T08:30:42.229Z</time></trkpt><trkpt lat="43.70325" lon="11.2556093"><ele>233.4</ele><time>2026-04-19T08:30:43.222Z</time></trkpt><trkpt lat="43.7032924" lon="11.2554805"><ele>235.8</ele><time>2026-04-19T08:30:44.224Z</time></trkpt><trkpt lat="43.7033389" lon="11.255343"><ele>238.20000000000002</ele><time>2026-04-19T08:30:45.221Z</time></trkpt><trkpt lat="43.7033954" lon="11.2552031"><ele>240.60000000000002</ele><time>2026-04-19T08:30:46.223Z</time></trkpt><trkpt lat="43.7034591" lon="11.2550768"><ele>243.0</ele><time>2026-04-19T08:30:47.222Z</time></trkpt><trkpt lat="43.7035267" lon="11.2549511"><ele>242.8</ele><time>2026-04-19T08:30:48.222Z</time></trkpt><trkpt lat="43.7035845" lon="11.2548365"><ele>242.60000000000002</ele><time>2026-04-19T08:30:49.228Z</time></trkpt><trkpt lat="43.7036454" lon="11.2547389"><ele>242.39999999999998</ele><time>2026-04-19T08:30:50.229Z</time></trkpt><trkpt lat="43.7037019" lon="11.254639"><ele>242.2</ele><time>2026-04-19T08:30:51.216Z</time></trkpt><trkpt lat="43.7037625" lon="11.2545383"><ele>242.0</ele><time>2026-04-19T08:30:52.227Z</time></trkpt><trkpt lat="43.7038323" lon="11.2544337"><ele>245.2</ele><time>2026-04-19T08:30:53.226Z</time></trkpt><trkpt lat="43.7039054" lon="11.2543386"><ele>248.39999999999998</ele><time>2026-04-19T08:30:54.227Z</time></trkpt><trkpt lat="43.703979" lon="11.254241"><ele>251.60000000000002</ele><time>2026-04-19T08:30:55.231Z</time></trkpt><trkpt lat="43.7040464" lon="11.2541383"><ele>254.8</ele><time>2026-04-19T08:30:56.23Z</time></trkpt><trkpt lat="43.7041177" lon="11.2540392"><ele>258.0</ele><time>2026-04-19T08:30:57.231Z</time></trkpt><trkpt lat="43.7041944" lon="11.2539339"><ele>259.3333333333333</ele><time>2026-04-19T08:30:58.222Z</time></trkpt><trkpt lat="43.7042615" lon="11.2538297"><ele>260.6666666666667</ele><time>2026-04-19T08:30:59.239Z</time></trkpt><trkpt lat="43.7043274" lon="11.2537306"><ele>262.0</ele><time>2026-04-19T08:31:00.23Z</time></trkpt><trkpt lat="43.7043858" lon="11.2536403"><ele>263.33333333333337</ele><time>2026-04-19T08:31:01.227Z</time></trkpt><trkpt lat="43.7044382" lon="11.2535646"><ele>264.6666666666667</ele><time>2026-04-19T08:31:02.219Z</time></trkpt><trkpt lat="43.7044886" lon="11.2534863"><ele>266.0</ele><time>2026-04-19T08:31:03.217Z</time></trkpt><trkpt lat="43.7045358" lon="11.2534149"><ele>266.83333333333337</ele><time>2026-04-19T08:31:04.22Z</time></trkpt><trkpt lat="43.7045768" lon="11.2533487"><ele>267.6666666666667</ele><time>2026-04-19T08:31:05.233Z</time></trkpt><trkpt lat="43.7046413" lon="11.2532332"><ele>268.5</ele><time>2026-04-19T08:31:07.225Z</time></trkpt><trkpt lat="43.7047134" lon="11.2531076"><ele>269.3333333333333</ele><time>2026-04-19T08:31:09.238Z</time></trkpt><trkpt lat="43.7047563" lon="11.2530373"><ele>270.16666666666663</ele><time>2026-04-19T08:31:10.224Z</time></trkpt><trkpt lat="43.7048008" lon="11.2529613"><ele>271.0</ele><time>2026-04-19T08:31:11.222Z</time></trkpt><trkpt lat="43.7048469" lon="11.2528843"><ele>272.16666666666663</ele><time>2026-04-19T08:31:12.229Z</time></trkpt><trkpt lat="43.7048945" lon="11.2527902"><ele>273.3333333333333</ele><time>2026-04-19T08:31:13.231Z</time></trkpt><trkpt lat="43.7049352" lon="11.2526974"><ele>274.5</ele><time>2026-04-19T08:31:14.23Z</time></trkpt><trkpt lat="43.7049848" lon="11.2526065"><ele>275.6666666666667</ele><time>2026-04-19T08:31:15.23Z</time></trkpt><trkpt lat="43.7050275" lon="11.2525199"><ele>276.83333333333337</ele><time>2026-04-19T08:31:16.225Z</time></trkpt><trkpt lat="43.7050683" lon="11.2524464"><ele>278.0</ele><time>2026-04-19T08:31:17.231Z</time></trkpt><trkpt lat="43.7051093" lon="11.2523752"><ele>277.6</ele><time>2026-04-19T08:31:18.236Z</time></trkpt><trkpt lat="43.7051787" lon="11.2522497"><ele>277.20000000000005</ele><time>2026-04-19T08:31:20.234Z</time></trkpt><trkpt lat="43.7052309" lon="11.2521452"><ele>276.8</ele><time>2026-04-19T08:31:22.222Z</time></trkpt><trkpt lat="43.7052544" lon="11.2520288"><ele>276.40000000000003</ele><time>2026-04-19T08:31:25.233Z</time></trkpt><trkpt lat="43.705224" lon="11.2518745"><ele>276.0</ele><time>2026-04-19T08:31:27.227Z</time></trkpt><trkpt lat="43.7051978" lon="11.25177"><ele>276.0</ele><time>2026-04-19T08:31:28.216Z</time></trkpt><trkpt lat="43.7051855" lon="11.2516435"><ele>276.0</ele><time>2026-04-19T08:31:29.227Z</time></trkpt><trkpt lat="43.7051891" lon="11.251476"><ele>276.0</ele><time>2026-04-19T08:31:30.229Z</time></trkpt><trkpt lat="43.7052059" lon="11.2513054"><ele>276.0</ele><time>2026-04-19T08:31:31.223Z</time></trkpt><trkpt lat="43.7052189" lon="11.2511409"><ele>275.75</ele><time>2026-04-19T08:31:32.225Z</time></trkpt><trkpt lat="43.7052316" lon="11.2509873"><ele>275.5</ele><time>2026-04-19T08:31:33.208Z</time></trkpt><trkpt lat="43.7052357" lon="11.2508244"><ele>275.25</ele><time>2026-04-19T08:31:34.226Z</time></trkpt><trkpt lat="43.7052379" lon="11.2506519"><ele>275.0</ele><time>2026-04-19T08:31:35.226Z</time></trkpt><trkpt lat="43.7052184" lon="11.2504773"><ele>275.0</ele><time>2026-04-19T08:31:36.229Z</time></trkpt><trkpt lat="43.7051824" lon="11.2503059"><ele>275.0</ele><time>2026-04-19T08:31:37.229Z</time></trkpt><trkpt lat="43.7051192" lon="11.2501385"><ele>275.0</ele><time>2026-04-19T08:31:38.22Z</time></trkpt><trkpt lat="43.7050399" lon="11.25"><ele>275.0</ele><time>2026-04-19T08:31:39.22Z</time></trkpt><trkpt lat="43.7049411" lon="11.2498794"><ele>274.75</ele><time>2026-04-19T08:31:40.23Z</time></trkpt><trkpt lat="43.704829" lon="11.2497835"><ele>274.5</ele><time>2026-04-19T08:31:41.228Z</time></trkpt><trkpt lat="43.7046971" lon="11.2497208"><ele>274.25</ele><time>2026-04-19T08:31:42.234Z</time></trkpt><trkpt lat="43.7045526" lon="11.2496832"><ele>274.0</ele><time>2026-04-19T08:31:43.232Z</time></trkpt><trkpt lat="43.704392" lon="11.249656"><ele>272.75</ele><time>2026-04-19T08:31:44.225Z</time></trkpt><trkpt lat="43.7042471" lon="11.2496552"><ele>271.5</ele><time>2026-04-19T08:31:45.228Z</time></trkpt><trkpt lat="43.7040991" lon="11.2496536"><ele>270.25</ele><time>2026-04-19T08:31:46.229Z</time></trkpt><trkpt lat="43.7039589" lon="11.2496602"><ele>269.0</ele><time>2026-04-19T08:31:47.229Z</time></trkpt><trkpt lat="43.7038213" lon="11.249661"><ele>269.0</ele><time>2026-04-19T08:31:48.229Z</time></trkpt><trkpt lat="43.7036905" lon="11.2496627"><ele>269.0</ele><time>2026-04-19T08:31:49.225Z</time></trkpt><trkpt lat="43.7035682" lon="11.2496627"><ele>269.0</ele><time>2026-04-19T08:31:50.235Z</time></trkpt><trkpt lat="43.7034434" lon="11.2496641"><ele>269.0</ele><time>2026-04-19T08:31:51.227Z</time></trkpt><trkpt lat="43.7033174" lon="11.2496671"><ele>268.25</ele><time>2026-04-19T08:31:52.247Z</time></trkpt><trkpt lat="43.7031829" lon="11.2496565"><ele>267.5</ele><time>2026-04-19T08:31:53.224Z</time></trkpt><trkpt lat="43.7030491" lon="11.2496391"><ele>266.75</ele><time>2026-04-19T08:31:54.239Z</time></trkpt><trkpt lat="43.7029151" lon="11.2496049"><ele>266.0</ele><time>2026-04-19T08:31:55.228Z</time></trkpt><trkpt lat="43.7027797" lon="11.2495613"><ele>265.0</ele><time>2026-04-19T08:31:56.229Z</time></trkpt><trkpt lat="43.7026404" lon="11.2495136"><ele>264.0</ele><time>2026-04-19T08:31:57.225Z</time></trkpt><trkpt lat="43.7025023" lon="11.2494605"><ele>263.0</ele><time>2026-04-19T08:31:58.227Z</time></trkpt><trkpt lat="43.7023746" lon="11.2494121"><ele>262.0</ele><time>2026-04-19T08:31:59.23Z</time></trkpt><trkpt lat="43.7022484" lon="11.249371"><ele>262.0</ele><time>2026-04-19T08:32:00.223Z</time></trkpt><trkpt lat="43.7021269" lon="11.2493293"><ele>262.0</ele><time>2026-04-19T08:32:01.224Z</time></trkpt><trkpt lat="43.7020142" lon="11.2492999"><ele>262.0</ele><time>2026-04-19T08:32:02.234Z</time></trkpt><trkpt lat="43.7019046" lon="11.2492797"><ele>262.0</ele><time>2026-04-19T08:32:03.223Z</time></trkpt><trkpt lat="43.7017859" lon="11.2492806"><ele>261.25</ele><time>2026-04-19T08:32:04.218Z</time></trkpt><trkpt lat="43.7016647" lon="11.2492916"><ele>260.5</ele><time>2026-04-19T08:32:05.233Z</time></trkpt><trkpt lat="43.7015362" lon="11.2493155"><ele>259.75</ele><time>2026-04-19T08:32:06.23Z</time></trkpt><trkpt lat="43.7014083" lon="11.2493452"><ele>259.0</ele><time>2026-04-19T08:32:07.219Z</time></trkpt><trkpt lat="43.7012795" lon="11.2493818"><ele>259.0</ele><time>2026-04-19T08:32:08.213Z</time></trkpt><trkpt lat="43.7011532" lon="11.2494123"><ele>259.0</ele><time>2026-04-19T08:32:09.22Z</time></trkpt><trkpt lat="43.7010349" lon="11.249444"><ele>259.0</ele><time>2026-04-19T08:32:10.221Z</time></trkpt><trkpt lat="43.7009239" lon="11.2495014"><ele>259.0</ele><time>2026-04-19T08:32:11.228Z</time></trkpt><trkpt lat="43.7007989" lon="11.2495741"><ele>258.75</ele><time>2026-04-19T08:32:12.244Z</time></trkpt><trkpt lat="43.7006749" lon="11.2496713"><ele>258.5</ele><time>2026-04-19T08:32:13.226Z</time></trkpt><trkpt lat="43.7005421" lon="11.2497645"><ele>258.25</ele><time>2026-04-19T08:32:14.231Z</time></trkpt><trkpt lat="43.7004176" lon="11.2498661"><ele>258.0</ele><time>2026-04-19T08:32:15.226Z</time></trkpt><trkpt lat="43.7002829" lon="11.2499753"><ele>261.6666666666667</ele><time>2026-04-19T08:32:16.225Z</time></trkpt><trkpt lat="43.7001451" lon="11.2500976"><ele>265.33333333333337</ele><time>2026-04-19T08:32:17.219Z</time></trkpt><trkpt lat="43.7000154" lon="11.2502263"><ele>269.0</ele><time>2026-04-19T08:32:18.218Z</time></trkpt><trkpt lat="43.6998801" lon="11.2503499"><ele>269.0</ele><time>2026-04-19T08:32:19.22Z</time></trkpt><trkpt lat="43.6997408" lon="11.2504464"><ele>269.0</ele><time>2026-04-19T08:32:20.228Z</time></trkpt><trkpt lat="43.699592" lon="11.2505337"><ele>269.0</ele><time>2026-04-19T08:32:21.221Z</time></trkpt><trkpt lat="43.6994314" lon="11.2505987"><ele>269.33333333333337</ele><time>2026-04-19T08:32:22.229Z</time></trkpt><trkpt lat="43.6992676" lon="11.2506457"><ele>269.6666666666667</ele><time>2026-04-19T08:32:23.23Z</time></trkpt><trkpt lat="43.6991168" lon="11.2506839"><ele>270.0</ele><time>2026-04-19T08:32:24.229Z</time></trkpt><trkpt lat="43.6989783" lon="11.2507151"><ele>270.0</ele><time>2026-04-19T08:32:25.221Z</time></trkpt><trkpt lat="43.6988575" lon="11.2507189"><ele>270.0</ele><time>2026-04-19T08:32:26.229Z</time></trkpt><trkpt lat="43.6987542" lon="11.2507039"><ele>270.0</ele><time>2026-04-19T08:32:27.231Z</time></trkpt><trkpt lat="43.6986579" lon="11.250684"><ele>270.0</ele><time>2026-04-19T08:32:28.227Z</time></trkpt><trkpt lat="43.6985625" lon="11.2506393"><ele>270.0</ele><time>2026-04-19T08:32:29.24Z</time></trkpt><trkpt lat="43.6984574" lon="11.2505754"><ele>274.75</ele><time>2026-04-19T08:32:30.223Z</time></trkpt><trkpt lat="43.6983422" lon="11.2505182"><ele>279.5</ele><time>2026-04-19T08:32:31.215Z</time></trkpt><trkpt lat="43.6982132" lon="11.2504692"><ele>284.25</ele><time>2026-04-19T08:32:32.216Z</time></trkpt><trkpt lat="43.6980815" lon="11.2504456"><ele>289.0</ele><time>2026-04-19T08:32:33.223Z</time></trkpt><trkpt lat="43.6979553" lon="11.250412"><ele>289.0</ele><time>2026-04-19T08:32:34.231Z</time></trkpt><trkpt lat="43.6978086" lon="11.2503908"><ele>289.0</ele><time>2026-04-19T08:32:35.215Z</time></trkpt><trkpt lat="43.6976655" lon="11.2503717"><ele>289.0</ele><time>2026-04-19T08:32:36.214Z</time></trkpt><trkpt lat="43.697515" lon="11.2503593"><ele>289.0</ele><time>2026-04-19T08:32:37.226Z</time></trkpt><trkpt lat="43.6973668" lon="11.2503449"><ele>288.5</ele><time>2026-04-19T08:32:38.214Z</time></trkpt><trkpt lat="43.6972339" lon="11.2503305"><ele>288.0</ele><time>2026-04-19T08:32:39.212Z</time></trkpt><trkpt lat="43.6971057" lon="11.2503168"><ele>287.5</ele><time>2026-04-19T08:32:40.217Z</time></trkpt><trkpt lat="43.6969852" lon="11.2503043"><ele>287.0</ele><time>2026-04-19T08:32:41.211Z</time></trkpt><trkpt lat="43.6968781" lon="11.2503156"><ele>286.5</ele><time>2026-04-19T08:32:42.222Z</time></trkpt><trkpt lat="43.6967771" lon="11.25035"><ele>286.0</ele><time>2026-04-19T08:32:43.212Z</time></trkpt><trkpt lat="43.6966721" lon="11.2504128"><ele>285.5</ele><time>2026-04-19T08:32:44.227Z</time></trkpt><trkpt lat="43.6965669" lon="11.2504927"><ele>285.0</ele><time>2026-04-19T08:32:45.22Z</time></trkpt><trkpt lat="43.696469" lon="11.2505956"><ele>282.25</ele><time>2026-04-19T08:32:46.208Z</time></trkpt><trkpt lat="43.6963914" lon="11.2507118"><ele>279.5</ele><time>2026-04-19T08:32:47.209Z</time></trkpt><trkpt lat="43.6963188" lon="11.2508378"><ele>276.75</ele><time>2026-04-19T08:32:48.217Z</time></trkpt><trkpt lat="43.6962426" lon="11.2509708"><ele>274.0</ele><time>2026-04-19T08:32:49.207Z</time></trkpt><trkpt lat="43.696167" lon="11.2510653"><ele>274.0</ele><time>2026-04-19T08:32:50.207Z</time></trkpt><trkpt lat="43.6961034" lon="11.2511523"><ele>274.0</ele><time>2026-04-19T08:32:51.215Z</time></trkpt><trkpt lat="43.6960323" lon="11.2512117"><ele>274.0</ele><time>2026-04-19T08:32:52.212Z</time></trkpt><trkpt lat="43.6959481" lon="11.2512332"><ele>274.0</ele><time>2026-04-19T08:32:53.21Z</time></trkpt><trkpt lat="43.6958523" lon="11.2512483"><ele>274.0</ele><time>2026-04-19T08:32:54.208Z</time></trkpt><trkpt lat="43.6957537" lon="11.2512625"><ele>274.59999999999997</ele><time>2026-04-19T08:32:55.219Z</time></trkpt><trkpt lat="43.6956534" lon="11.2512884"><ele>275.2</ele><time>2026-04-19T08:32:56.212Z</time></trkpt><trkpt lat="43.6955486" lon="11.2513145"><ele>275.79999999999995</ele><time>2026-04-19T08:32:57.229Z</time></trkpt><trkpt lat="43.6954548" lon="11.2513509"><ele>276.4</ele><time>2026-04-19T08:32:58.215Z</time></trkpt><trkpt lat="43.6953728" lon="11.2513777"><ele>277.0</ele><time>2026-04-19T08:32:59.217Z</time></trkpt><trkpt lat="43.6952674" lon="11.2514143"><ele>276.0</ele><time>2026-04-19T08:33:01.217Z</time></trkpt><trkpt lat="43.6951933" lon="11.2513594"><ele>275.0</ele><time>2026-04-19T08:33:04.223Z</time></trkpt><trkpt lat="43.6951541" lon="11.2512513"><ele>274.0</ele><time>2026-04-19T08:33:06.22Z</time></trkpt><trkpt lat="43.6950879" lon="11.2511329"><ele>273.0</ele><time>2026-04-19T08:33:08.22Z</time></trkpt><trkpt lat="43.6950095" lon="11.2510007"><ele>272.0</ele><time>2026-04-19T08:33:10.219Z</time></trkpt><trkpt lat="43.694925" lon="11.2509132"><ele>272.0</ele><time>2026-04-19T08:33:12.226Z</time></trkpt><trkpt lat="43.6948599" lon="11.2508672"><ele>272.0</ele><time>2026-04-19T08:33:14.223Z</time></trkpt><trkpt lat="43.6947875" lon="11.2508225"><ele>272.0</ele><time>2026-04-19T08:33:16.227Z</time></trkpt><trkpt lat="43.6946907" lon="11.2507295"><ele>272.0</ele><time>2026-04-19T08:33:18.227Z</time></trkpt><trkpt lat="43.6946485" lon="11.2506638"><ele>272.0</ele><time>2026-04-19T08:33:19.222Z</time></trkpt><trkpt lat="43.6946072" lon="11.2505963"><ele>272.0</ele><time>2026-04-19T08:33:20.209Z</time></trkpt><trkpt lat="43.6945698" lon="11.2505244"><ele>271.6</ele><time>2026-04-19T08:33:21.225Z</time></trkpt><trkpt lat="43.6945003" lon="11.2504062"><ele>271.2</ele><time>2026-04-19T08:33:23.219Z</time></trkpt><trkpt lat="43.694446" lon="11.2502991"><ele>270.8</ele><time>2026-04-19T08:33:25.233Z</time></trkpt><trkpt lat="43.6943918" lon="11.2501952"><ele>270.4</ele><time>2026-04-19T08:33:27.226Z</time></trkpt><trkpt lat="43.6943393" lon="11.2500906"><ele>270.0</ele><time>2026-04-19T08:33:29.214Z</time></trkpt><trkpt lat="43.6942727" lon="11.2499833"><ele>269.0</ele><time>2026-04-19T08:33:31.226Z</time></trkpt><trkpt lat="43.6942152" lon="11.2498801"><ele>268.0</ele><time>2026-04-19T08:33:33.234Z</time></trkpt><trkpt lat="43.6941616" lon="11.2497756"><ele>267.0</ele><time>2026-04-19T08:33:35.219Z</time></trkpt><trkpt lat="43.6941103" lon="11.2496827"><ele>266.0</ele><time>2026-04-19T08:33:37.227Z</time></trkpt><trkpt lat="43.6940487" lon="11.2496004"><ele>265.0</ele><time>2026-04-19T08:33:39.233Z</time></trkpt><trkpt lat="43.6940068" lon="11.2495335"><ele>264.0</ele><time>2026-04-19T08:33:42.229Z</time></trkpt><trkpt lat="43.6940317" lon="11.2496339"><ele>264.0</ele><time>2026-04-19T08:33:53.229Z</time></trkpt><trkpt lat="43.6940926" lon="11.249676"><ele>264.0</ele><time>2026-04-19T08:33:55.238Z</time></trkpt><trkpt lat="43.6941529" lon="11.249778"><ele>264.0</ele><time>2026-04-19T08:33:57.23Z</time></trkpt><trkpt lat="43.6942288" lon="11.2499194"><ele>264.0</ele><time>2026-04-19T08:33:59.232Z</time></trkpt><trkpt lat="43.6942688" lon="11.2499934"><ele>264.0</ele><time>2026-04-19T08:34:00.225Z</time></trkpt><trkpt lat="43.6943059" lon="11.2500816"><ele>264.0</ele><time>2026-04-19T08:34:01.238Z</time></trkpt><trkpt lat="43.6943668" lon="11.2501814"><ele>265.0</ele><time>2026-04-19T08:34:03.232Z</time></trkpt><trkpt lat="43.69444" lon="11.2501606"><ele>266.0</ele><time>2026-04-19T08:34:08.237Z</time></trkpt><trkpt lat="43.6945139" lon="11.2501233"><ele>267.0</ele><time>2026-04-19T08:34:13.228Z</time></trkpt><trkpt lat="43.6946107" lon="11.250095"><ele>268.0</ele><time>2026-04-19T08:34:16.231Z</time></trkpt><trkpt lat="43.6947043" lon="11.2500735"><ele>269.0</ele><time>2026-04-19T08:34:18.233Z</time></trkpt><trkpt lat="43.6947988" lon="11.2500648"><ele>270.0</ele><time>2026-04-19T08:34:20.228Z</time></trkpt><trkpt lat="43.694883" lon="11.2500452"><ele>270.0</ele><time>2026-04-19T08:34:22.24Z</time></trkpt><trkpt lat="43.6949774" lon="11.2500432"><ele>270.0</ele><time>2026-04-19T08:34:24.24Z</time></trkpt><trkpt lat="43.6950598" lon="11.2500025"><ele>270.0</ele><time>2026-04-19T08:34:26.23Z</time></trkpt><trkpt lat="43.6951472" lon="11.2499217"><ele>270.0</ele><time>2026-04-19T08:34:28.235Z</time></trkpt><trkpt lat="43.6952516" lon="11.2498209"><ele>270.0</ele><time>2026-04-19T08:34:30.225Z</time></trkpt><trkpt lat="43.6953061" lon="11.249755"><ele>272.0</ele><time>2026-04-19T08:34:31.235Z</time></trkpt><trkpt lat="43.6953531" lon="11.2496954"><ele>274.0</ele><time>2026-04-19T08:34:32.237Z</time></trkpt><trkpt lat="43.6954284" lon="11.2495754"><ele>276.0</ele><time>2026-04-19T08:34:34.233Z</time></trkpt><trkpt lat="43.6954896" lon="11.2494358"><ele>278.0</ele><time>2026-04-19T08:34:36.221Z</time></trkpt><trkpt lat="43.6955488" lon="11.24931"><ele>280.0</ele><time>2026-04-19T08:34:38.214Z</time></trkpt><trkpt lat="43.6955985" lon="11.2492168"><ele>280.0</ele><time>2026-04-19T08:34:40.226Z</time></trkpt><trkpt lat="43.69563" lon="11.2491358"><ele>280.0</ele><time>2026-04-19T08:34:42.223Z</time></trkpt><trkpt lat="43.6956423" lon="11.2490487"><ele>280.0</ele><time>2026-04-19T08:34:44.226Z</time></trkpt><trkpt lat="43.6956423" lon="11.2489187"><ele>280.0</ele><time>2026-04-19T08:34:46.22Z</time></trkpt><trkpt lat="43.6956371" lon="11.2487783"><ele>280.0</ele><time>2026-04-19T08:34:48.231Z</time></trkpt><trkpt lat="43.6956289" lon="11.2486399"><ele>280.0</ele><time>2026-04-19T08:34:50.235Z</time></trkpt><trkpt lat="43.695614" lon="11.2485295"><ele>278.6</ele><time>2026-04-19T08:34:52.228Z</time></trkpt><trkpt lat="43.6956102" lon="11.2484141"><ele>277.2</ele><time>2026-04-19T08:34:54.216Z</time></trkpt><trkpt lat="43.6956333" lon="11.2483184"><ele>275.8</ele><time>2026-04-19T08:34:56.225Z</time></trkpt><trkpt lat="43.6956773" lon="11.2482159"><ele>274.4</ele><time>2026-04-19T08:34:58.231Z</time></trkpt><trkpt lat="43.6957499" lon="11.2480921"><ele>273.0</ele><time>2026-04-19T08:35:00.219Z</time></trkpt><trkpt lat="43.6958166" lon="11.2479657"><ele>272.3333333333333</ele><time>2026-04-19T08:35:02.22Z</time></trkpt><trkpt lat="43.6958538" lon="11.2478539"><ele>271.6666666666667</ele><time>2026-04-19T08:35:04.227Z</time></trkpt><trkpt lat="43.6958694" lon="11.2477305"><ele>271.0</ele><time>2026-04-19T08:35:06.227Z</time></trkpt><trkpt lat="43.6958763" lon="11.2476078"><ele>270.33333333333337</ele><time>2026-04-19T08:35:08.22Z</time></trkpt><trkpt lat="43.6959011" lon="11.2475067"><ele>269.6666666666667</ele><time>2026-04-19T08:35:10.227Z</time></trkpt><trkpt lat="43.6959487" lon="11.2474261"><ele>269.0</ele><time>2026-04-19T08:35:12.225Z</time></trkpt><trkpt lat="43.695993" lon="11.2473287"><ele>269.0</ele><time>2026-04-19T08:35:14.227Z</time></trkpt><trkpt lat="43.6959729" lon="11.247246"><ele>269.0</ele><time>2026-04-19T08:35:18.226Z</time></trkpt><trkpt lat="43.6959716" lon="11.2473341"><ele>269.0</ele><time>2026-04-19T08:35:53.236Z</time></trkpt><trkpt lat="43.6959274" lon="11.2474472"><ele>269.0</ele><time>2026-04-19T08:35:56.23Z</time></trkpt><trkpt lat="43.6958816" lon="11.2475324"><ele>269.0</ele><time>2026-04-19T08:35:58.23Z</time></trkpt><trkpt lat="43.6958667" lon="11.2476255"><ele>269.0</ele><time>2026-04-19T08:36:00.218Z</time></trkpt><trkpt lat="43.6958681" lon="11.2477303"><ele>269.0</ele><time>2026-04-19T08:36:02.218Z</time></trkpt><trkpt lat="43.6958559" lon="11.2478448"><ele>269.0</ele><time>2026-04-19T08:36:04.22Z</time></trkpt><trkpt lat="43.6957959" lon="11.24797"><ele>269.0</ele><time>2026-04-19T08:36:06.224Z</time></trkpt><trkpt lat="43.695703" lon="11.2481058"><ele>269.0</ele><time>2026-04-19T08:36:08.221Z</time></trkpt><trkpt lat="43.6956578" lon="11.2481723"><ele>269.0</ele><time>2026-04-19T08:36:09.225Z</time></trkpt><trkpt lat="43.6955978" lon="11.2483052"><ele>269.0</ele><time>2026-04-19T08:36:11.224Z</time></trkpt><trkpt lat="43.6955573" lon="11.248436"><ele>269.8</ele><time>2026-04-19T08:36:13.224Z</time></trkpt><trkpt lat="43.695546" lon="11.248588"><ele>270.59999999999997</ele><time>2026-04-19T08:36:15.224Z</time></trkpt><trkpt lat="43.6955523" lon="11.2487581"><ele>271.4</ele><time>2026-04-19T08:36:17.235Z</time></trkpt><trkpt lat="43.6955576" lon="11.2488472"><ele>272.2</ele><time>2026-04-19T08:36:18.228Z</time></trkpt><trkpt lat="43.6955781" lon="11.2490058"><ele>273.0</ele><time>2026-04-19T08:36:20.231Z</time></trkpt><trkpt lat="43.6955869" lon="11.2491398"><ele>274.1666666666667</ele><time>2026-04-19T08:36:22.22Z</time></trkpt><trkpt lat="43.6955687" lon="11.2492476"><ele>275.3333333333333</ele><time>2026-04-19T08:36:24.217Z</time></trkpt><trkpt lat="43.6955367" lon="11.2493289"><ele>276.5</ele><time>2026-04-19T08:36:26.223Z</time></trkpt><trkpt lat="43.6954938" lon="11.2494099"><ele>277.66666666666663</ele><time>2026-04-19T08:36:28.217Z</time></trkpt><trkpt lat="43.6954546" lon="11.2494885"><ele>278.8333333333333</ele><time>2026-04-19T08:36:30.238Z</time></trkpt><trkpt lat="43.6953995" lon="11.2495807"><ele>280.0</ele><time>2026-04-19T08:36:32.234Z</time></trkpt><trkpt lat="43.6953112" lon="11.249701"><ele>280.0</ele><time>2026-04-19T08:36:34.218Z</time></trkpt><trkpt lat="43.6952608" lon="11.2497596"><ele>280.0</ele><time>2026-04-19T08:36:35.226Z</time></trkpt><trkpt lat="43.6952046" lon="11.2498193"><ele>280.0</ele><time>2026-04-19T08:36:36.229Z</time></trkpt><trkpt lat="43.6951546" lon="11.2498803"><ele>280.0</ele><time>2026-04-19T08:36:37.229Z</time></trkpt><trkpt lat="43.695102" lon="11.2499414"><ele>280.0</ele><time>2026-04-19T08:36:38.228Z</time></trkpt><trkpt lat="43.6950209" lon="11.2500262"><ele>280.0</ele><time>2026-04-19T08:36:40.226Z</time></trkpt><trkpt lat="43.694931" lon="11.2500577"><ele>278.0</ele><time>2026-04-19T08:36:42.234Z</time></trkpt><trkpt lat="43.6948289" lon="11.2500793"><ele>276.0</ele><time>2026-04-19T08:36:44.231Z</time></trkpt><trkpt lat="43.6947342" lon="11.2501068"><ele>274.0</ele><time>2026-04-19T08:36:46.236Z</time></trkpt><trkpt lat="43.6946138" lon="11.2501079"><ele>272.0</ele><time>2026-04-19T08:36:48.251Z</time></trkpt><trkpt lat="43.6945489" lon="11.2501039"><ele>270.0</ele><time>2026-04-19T08:36:49.225Z</time></trkpt><trkpt lat="43.6944567" lon="11.2501446"><ele>270.0</ele><time>2026-04-19T08:36:51.228Z</time></trkpt><trkpt lat="43.6944272" lon="11.2502624"><ele>270.0</ele><time>2026-04-19T08:36:54.23Z</time></trkpt><trkpt lat="43.6944477" lon="11.2503575"><ele>270.0</ele><time>2026-04-19T08:36:56.225Z</time></trkpt><trkpt lat="43.6945171" lon="11.2504934"><ele>270.0</ele><time>2026-04-19T08:36:58.225Z</time></trkpt><trkpt lat="43.6945625" lon="11.2505678"><ele>270.0</ele><time>2026-04-19T08:36:59.244Z</time></trkpt><trkpt lat="43.6946117" lon="11.2506455"><ele>270.0</ele><time>2026-04-19T08:37:00.236Z</time></trkpt><trkpt lat="43.6946573" lon="11.250717"><ele>270.4</ele><time>2026-04-19T08:37:01.234Z</time></trkpt><trkpt lat="43.6947131" lon="11.2507763"><ele>270.8</ele><time>2026-04-19T08:37:02.223Z</time></trkpt><trkpt lat="43.694764" lon="11.2508304"><ele>271.2</ele><time>2026-04-19T08:37:03.22Z</time></trkpt><trkpt lat="43.6948668" lon="11.2509216"><ele>271.6</ele><time>2026-04-19T08:37:05.221Z</time></trkpt><trkpt lat="43.6949495" lon="11.2510287"><ele>272.0</ele><time>2026-04-19T08:37:07.233Z</time></trkpt><trkpt lat="43.6950256" lon="11.2511172"><ele>272.0</ele><time>2026-04-19T08:37:09.23Z</time></trkpt><trkpt lat="43.6950861" lon="11.2512092"><ele>272.0</ele><time>2026-04-19T08:37:11.223Z</time></trkpt><trkpt lat="43.6951368" lon="11.2512802"><ele>272.0</ele><time>2026-04-19T08:37:13.213Z</time></trkpt><trkpt lat="43.6951801" lon="11.2513776"><ele>272.0</ele><time>2026-04-19T08:37:16.219Z</time></trkpt><trkpt lat="43.6950911" lon="11.2514923"><ele>272.0</ele><time>2026-04-19T08:37:29.221Z</time></trkpt><trkpt lat="43.6950311" lon="11.2515424"><ele>272.0</ele><time>2026-04-19T08:37:30.222Z</time></trkpt><trkpt lat="43.694962" lon="11.2515859"><ele>271.2</ele><time>2026-04-19T08:37:31.219Z</time></trkpt><trkpt lat="43.6948961" lon="11.25164"><ele>270.4</ele><time>2026-04-19T08:37:32.217Z</time></trkpt><trkpt lat="43.6948159" lon="11.2517017"><ele>269.6</ele><time>2026-04-19T08:37:33.205Z</time></trkpt><trkpt lat="43.6947376" lon="11.2517686"><ele>268.8</ele><time>2026-04-19T08:37:34.211Z</time></trkpt><trkpt lat="43.6946479" lon="11.2518454"><ele>268.0</ele><time>2026-04-19T08:37:35.209Z</time></trkpt><trkpt lat="43.6945503" lon="11.2519162"><ele>268.0</ele><time>2026-04-19T08:37:36.22Z</time></trkpt><trkpt lat="43.6944549" lon="11.2519753"><ele>268.0</ele><time>2026-04-19T08:37:37.218Z</time></trkpt><trkpt lat="43.6943607" lon="11.2520241"><ele>268.0</ele><time>2026-04-19T08:37:38.214Z</time></trkpt><trkpt lat="43.6942599" lon="11.2520814"><ele>268.0</ele><time>2026-04-19T08:37:39.231Z</time></trkpt><trkpt lat="43.6941587" lon="11.2521507"><ele>268.0</ele><time>2026-04-19T08:37:40.218Z</time></trkpt><trkpt lat="43.6940568" lon="11.252231"><ele>267.75</ele><time>2026-04-19T08:37:41.212Z</time></trkpt><trkpt lat="43.6939554" lon="11.2523111"><ele>267.5</ele><time>2026-04-19T08:37:42.219Z</time></trkpt><trkpt lat="43.6938537" lon="11.2524002"><ele>267.25</ele><time>2026-04-19T08:37:43.214Z</time></trkpt><trkpt lat="43.6937521" lon="11.2524934"><ele>267.0</ele><time>2026-04-19T08:37:44.217Z</time></trkpt><trkpt lat="43.6936446" lon="11.2525894"><ele>265.75</ele><time>2026-04-19T08:37:45.217Z</time></trkpt><trkpt lat="43.693534" lon="11.2526991"><ele>264.5</ele><time>2026-04-19T08:37:46.225Z</time></trkpt><trkpt lat="43.6934195" lon="11.2528073"><ele>263.25</ele><time>2026-04-19T08:37:47.223Z</time></trkpt><trkpt lat="43.6933086" lon="11.2529198"><ele>262.0</ele><time>2026-04-19T08:37:48.222Z</time></trkpt><trkpt lat="43.6932013" lon="11.2530184"><ele>262.0</ele><time>2026-04-19T08:37:49.212Z</time></trkpt><trkpt lat="43.6930894" lon="11.25311"><ele>262.0</ele><time>2026-04-19T08:37:50.235Z</time></trkpt><trkpt lat="43.6929826" lon="11.253199"><ele>262.0</ele><time>2026-04-19T08:37:51.225Z</time></trkpt><trkpt lat="43.6928789" lon="11.2533022"><ele>262.0</ele><time>2026-04-19T08:37:52.221Z</time></trkpt><trkpt lat="43.6927702" lon="11.2534107"><ele>263.0</ele><time>2026-04-19T08:37:53.232Z</time></trkpt><trkpt lat="43.6926566" lon="11.253514"><ele>264.0</ele><time>2026-04-19T08:37:54.216Z</time></trkpt><trkpt lat="43.6925471" lon="11.2536077"><ele>265.0</ele><time>2026-04-19T08:37:55.224Z</time></trkpt><trkpt lat="43.692442" lon="11.2537025"><ele>266.0</ele><time>2026-04-19T08:37:56.235Z</time></trkpt><trkpt lat="43.6923428" lon="11.2537972"><ele>266.0</ele><time>2026-04-19T08:37:57.222Z</time></trkpt><trkpt lat="43.6922436" lon="11.2538945"><ele>266.0</ele><time>2026-04-19T08:37:58.225Z</time></trkpt><trkpt lat="43.6921528" lon="11.2539859"><ele>266.0</ele><time>2026-04-19T08:37:59.231Z</time></trkpt><trkpt lat="43.6920639" lon="11.2540542"><ele>266.0</ele><time>2026-04-19T08:38:00.214Z</time></trkpt><trkpt lat="43.6919747" lon="11.2541008"><ele>266.0</ele><time>2026-04-19T08:38:01.224Z</time></trkpt><trkpt lat="43.6918814" lon="11.2541358"><ele>267.2</ele><time>2026-04-19T08:38:02.234Z</time></trkpt><trkpt lat="43.6917803" lon="11.2541639"><ele>268.40000000000003</ele><time>2026-04-19T08:38:03.221Z</time></trkpt><trkpt lat="43.6916715" lon="11.2541726"><ele>269.6</ele><time>2026-04-19T08:38:04.23Z</time></trkpt><trkpt lat="43.691577" lon="11.2541689"><ele>270.8</ele><time>2026-04-19T08:38:05.215Z</time></trkpt><trkpt lat="43.6914921" lon="11.2541642"><ele>272.0</ele><time>2026-04-19T08:38:06.225Z</time></trkpt><trkpt lat="43.6914281" lon="11.2541556"><ele>272.0</ele><time>2026-04-19T08:38:07.225Z</time></trkpt><trkpt lat="43.6913464" lon="11.2541225"><ele>272.0</ele><time>2026-04-19T08:38:09.223Z</time></trkpt><trkpt lat="43.6912785" lon="11.254087"><ele>272.0</ele><time>2026-04-19T08:38:12.226Z</time></trkpt><trkpt lat="43.6911658" lon="11.254027"><ele>272.0</ele><time>2026-04-19T08:38:19.225Z</time></trkpt><trkpt lat="43.6910681" lon="11.2539744"><ele>272.0</ele><time>2026-04-19T08:38:20.221Z</time></trkpt><trkpt lat="43.690983" lon="11.2539329"><ele>272.0</ele><time>2026-04-19T08:38:21.218Z</time></trkpt><trkpt lat="43.6909018" lon="11.2538866"><ele>272.0</ele><time>2026-04-19T08:38:22.224Z</time></trkpt><trkpt lat="43.6908338" lon="11.2538112"><ele>272.0</ele><time>2026-04-19T08:38:23.223Z</time></trkpt><trkpt lat="43.6907592" lon="11.253718"><ele>272.0</ele><time>2026-04-19T08:38:24.225Z</time></trkpt><trkpt lat="43.6907072" lon="11.2535856"><ele>272.0</ele><time>2026-04-19T08:38:25.223Z</time></trkpt><trkpt lat="43.6906709" lon="11.2534378"><ele>272.0</ele><time>2026-04-19T08:38:26.225Z</time></trkpt><trkpt lat="43.6906557" lon="11.2532668"><ele>272.0</ele><time>2026-04-19T08:38:27.211Z</time></trkpt><trkpt lat="43.6906324" lon="11.2531004"><ele>272.0</ele><time>2026-04-19T08:38:28.234Z</time></trkpt><trkpt lat="43.6906127" lon="11.2529283"><ele>272.0</ele><time>2026-04-19T08:38:29.219Z</time></trkpt><trkpt lat="43.6905883" lon="11.2527609"><ele>271.5</ele><time>2026-04-19T08:38:30.224Z</time></trkpt><trkpt lat="43.6905678" lon="11.2525932"><ele>271.0</ele><time>2026-04-19T08:38:31.232Z</time></trkpt><trkpt lat="43.6905472" lon="11.252428"><ele>270.5</ele><time>2026-04-19T08:38:32.232Z</time></trkpt><trkpt lat="43.6905329" lon="11.252273"><ele>270.0</ele><time>2026-04-19T08:38:33.229Z</time></trkpt><trkpt lat="43.6905188" lon="11.252139"><ele>268.8</ele><time>2026-04-19T08:38:34.223Z</time></trkpt><trkpt lat="43.690491" lon="11.2520215"><ele>267.6</ele><time>2026-04-19T08:38:35.218Z</time></trkpt><trkpt lat="43.6904475" lon="11.2519174"><ele>266.4</ele><time>2026-04-19T08:38:36.22Z</time></trkpt><trkpt lat="43.6903872" lon="11.2518257"><ele>265.2</ele><time>2026-04-19T08:38:37.23Z</time></trkpt><trkpt lat="43.6903016" lon="11.2517515"><ele>264.0</ele><time>2026-04-19T08:38:38.218Z</time></trkpt><trkpt lat="43.6901925" lon="11.2517417"><ele>267.0</ele><time>2026-04-19T08:38:39.232Z</time></trkpt><trkpt lat="43.6900735" lon="11.2517554"><ele>270.0</ele><time>2026-04-19T08:38:40.222Z</time></trkpt><trkpt lat="43.689959" lon="11.2517962"><ele>273.0</ele><time>2026-04-19T08:38:41.221Z</time></trkpt><trkpt lat="43.6898574" lon="11.2518445"><ele>276.0</ele><time>2026-04-19T08:38:42.225Z</time></trkpt><trkpt lat="43.6897561" lon="11.251882"><ele>276.0</ele><time>2026-04-19T08:38:43.222Z</time></trkpt><trkpt lat="43.6896458" lon="11.2519257"><ele>276.0</ele><time>2026-04-19T08:38:44.217Z</time></trkpt><trkpt lat="43.6895308" lon="11.2519588"><ele>276.0</ele><time>2026-04-19T08:38:45.22Z</time></trkpt><trkpt lat="43.6894174" lon="11.2519493"><ele>276.0</ele><time>2026-04-19T08:38:46.219Z</time></trkpt><trkpt lat="43.6892976" lon="11.2519298"><ele>276.0</ele><time>2026-04-19T08:38:47.212Z</time></trkpt><trkpt lat="43.6891803" lon="11.2519093"><ele>276.0</ele><time>2026-04-19T08:38:48.215Z</time></trkpt><trkpt lat="43.6890714" lon="11.2518791"><ele>276.0</ele><time>2026-04-19T08:38:49.216Z</time></trkpt><trkpt lat="43.6889838" lon="11.2518482"><ele>276.0</ele><time>2026-04-19T08:38:50.211Z</time></trkpt><trkpt lat="43.6888892" lon="11.2518348"><ele>276.0</ele><time>2026-04-19T08:38:51.221Z</time></trkpt><trkpt lat="43.6887901" lon="11.2518485"><ele>276.0</ele><time>2026-04-19T08:38:52.228Z</time></trkpt><trkpt lat="43.6886937" lon="11.2518866"><ele>276.0</ele><time>2026-04-19T08:38:53.218Z</time></trkpt><trkpt lat="43.6885902" lon="11.2519682"><ele>276.0</ele><time>2026-04-19T08:38:54.222Z</time></trkpt><trkpt lat="43.6884989" lon="11.2520598"><ele>276.0</ele><time>2026-04-19T08:38:55.217Z</time></trkpt><trkpt lat="43.6884125" lon="11.2521262"><ele>276.0</ele><time>2026-04-19T08:38:56.217Z</time></trkpt><trkpt lat="43.6883228" lon="11.2521756"><ele>275.6666666666667</ele><time>2026-04-19T08:38:57.219Z</time></trkpt><trkpt lat="43.6882381" lon="11.2521924"><ele>275.3333333333333</ele><time>2026-04-19T08:38:58.225Z</time></trkpt><trkpt lat="43.6881567" lon="11.2522023"><ele>275.0</ele><time>2026-04-19T08:38:59.22Z</time></trkpt><trkpt lat="43.6880822" lon="11.2522017"><ele>274.66666666666663</ele><time>2026-04-19T08:39:00.214Z</time></trkpt><trkpt lat="43.6879752" lon="11.2521821"><ele>274.3333333333333</ele><time>2026-04-19T08:39:02.229Z</time></trkpt><trkpt lat="43.6878867" lon="11.2521647"><ele>274.0</ele><time>2026-04-19T08:39:04.223Z</time></trkpt><trkpt lat="43.6878286" lon="11.2522353"><ele>275.0</ele><time>2026-04-19T08:39:08.227Z</time></trkpt><trkpt lat="43.6877455" lon="11.2523847"><ele>276.0</ele><time>2026-04-19T08:39:10.225Z</time></trkpt><trkpt lat="43.6876998" lon="11.2524987"><ele>277.0</ele><time>2026-04-19T08:39:11.209Z</time></trkpt><trkpt lat="43.6876474" lon="11.252624"><ele>278.0</ele><time>2026-04-19T08:39:12.217Z</time></trkpt><trkpt lat="43.6875811" lon="11.2527414"><ele>279.0</ele><time>2026-04-19T08:39:13.22Z</time></trkpt><trkpt lat="43.6874969" lon="11.2528502"><ele>279.0</ele><time>2026-04-19T08:39:14.217Z</time></trkpt><trkpt lat="43.6873943" lon="11.2529253"><ele>279.0</ele><time>2026-04-19T08:39:15.214Z</time></trkpt><trkpt lat="43.6872664" lon="11.2529633"><ele>279.0</ele><time>2026-04-19T08:39:16.219Z</time></trkpt><trkpt lat="43.6871573" lon="11.2529551"><ele>279.0</ele><time>2026-04-19T08:39:17.215Z</time></trkpt><trkpt lat="43.6870537" lon="11.2529394"><ele>279.0</ele><time>2026-04-19T08:39:18.207Z</time></trkpt><trkpt lat="43.6869509" lon="11.2529046"><ele>279.0</ele><time>2026-04-19T08:39:19.207Z</time></trkpt><trkpt lat="43.6868481" lon="11.2528351"><ele>279.0</ele><time>2026-04-19T08:39:20.225Z</time></trkpt><trkpt lat="43.6867442" lon="11.2527787"><ele>279.0</ele><time>2026-04-19T08:39:21.218Z</time></trkpt><trkpt lat="43.6866266" lon="11.2527122"><ele>278.59999999999997</ele><time>2026-04-19T08:39:22.213Z</time></trkpt><trkpt lat="43.6865176" lon="11.2526566"><ele>278.2</ele><time>2026-04-19T08:39:23.22Z</time></trkpt><trkpt lat="43.6864246" lon="11.2526095"><ele>277.79999999999995</ele><time>2026-04-19T08:39:24.213Z</time></trkpt><trkpt lat="43.6863401" lon="11.2525625"><ele>277.4</ele><time>2026-04-19T08:39:25.206Z</time></trkpt><trkpt lat="43.6862694" lon="11.2525359"><ele>277.0</ele><time>2026-04-19T08:39:26.225Z</time></trkpt><trkpt lat="43.6861882" lon="11.2525121"><ele>277.0</ele><time>2026-04-19T08:39:28.205Z</time></trkpt><trkpt lat="43.686118" lon="11.2525162"><ele>277.0</ele><time>2026-04-19T08:39:38.216Z</time></trkpt><trkpt lat="43.6860017" lon="11.2524769"><ele>277.0</ele><time>2026-04-19T08:39:40.218Z</time></trkpt><trkpt lat="43.6859284" lon="11.2524446"><ele>277.0</ele><time>2026-04-19T08:39:41.22Z</time></trkpt><trkpt lat="43.6858554" lon="11.2524033"><ele>277.0</ele><time>2026-04-19T08:39:42.233Z</time></trkpt><trkpt lat="43.6857852" lon="11.2523537"><ele>277.0</ele><time>2026-04-19T08:39:43.218Z</time></trkpt><trkpt lat="43.6857159" lon="11.2522865"><ele>275.2</ele><time>2026-04-19T08:39:44.22Z</time></trkpt><trkpt lat="43.6856432" lon="11.252204"><ele>273.4</ele><time>2026-04-19T08:39:45.215Z</time></trkpt><trkpt lat="43.685566" lon="11.2520947"><ele>271.6</ele><time>2026-04-19T08:39:46.231Z</time></trkpt><trkpt lat="43.6854837" lon="11.2519831"><ele>269.8</ele><time>2026-04-19T08:39:47.213Z</time></trkpt><trkpt lat="43.6853858" lon="11.2518657"><ele>268.0</ele><time>2026-04-19T08:39:48.219Z</time></trkpt><trkpt lat="43.6852759" lon="11.2517658"><ele>269.5</ele><time>2026-04-19T08:39:49.228Z</time></trkpt><trkpt lat="43.6851482" lon="11.2516674"><ele>271.0</ele><time>2026-04-19T08:39:50.222Z</time></trkpt><trkpt lat="43.6850265" lon="11.2515658"><ele>272.5</ele><time>2026-04-19T08:39:51.228Z</time></trkpt><trkpt lat="43.6849013" lon="11.2514619"><ele>274.0</ele><time>2026-04-19T08:39:52.217Z</time></trkpt><trkpt lat="43.6847821" lon="11.2513586"><ele>272.75</ele><time>2026-04-19T08:39:53.226Z</time></trkpt><trkpt lat="43.6846686" lon="11.2512588"><ele>271.5</ele><time>2026-04-19T08:39:54.236Z</time></trkpt><trkpt lat="43.6845643" lon="11.2511679"><ele>270.25</ele><time>2026-04-19T08:39:55.225Z</time></trkpt><trkpt lat="43.6844629" lon="11.251087"><ele>269.0</ele><time>2026-04-19T08:39:56.222Z</time></trkpt><trkpt lat="43.6843776" lon="11.2510181"><ele>269.0</ele><time>2026-04-19T08:39:57.237Z</time></trkpt><trkpt lat="43.6842969" lon="11.2509606"><ele>269.0</ele><time>2026-04-19T08:39:58.22Z</time></trkpt><trkpt lat="43.6842062" lon="11.2509213"><ele>269.0</ele><time>2026-04-19T08:39:59.225Z</time></trkpt><trkpt lat="43.6841244" lon="11.2508954"><ele>269.0</ele><time>2026-04-19T08:40:00.23Z</time></trkpt><trkpt lat="43.6840076" lon="11.2509139"><ele>269.0</ele><time>2026-04-19T08:40:02.236Z</time></trkpt><trkpt lat="43.6839536" lon="11.2509733"><ele>269.0</ele><time>2026-04-19T08:40:03.229Z</time></trkpt><trkpt lat="43.683893" lon="11.2510279"><ele>269.0</ele><time>2026-04-19T08:40:04.233Z</time></trkpt><trkpt lat="43.6838298" lon="11.2510971"><ele>269.0</ele><time>2026-04-19T08:40:05.227Z</time></trkpt><trkpt lat="43.6837578" lon="11.2511424"><ele>269.0</ele><time>2026-04-19T08:40:06.231Z</time></trkpt><trkpt lat="43.6836732" lon="11.2511613"><ele>269.0</ele><time>2026-04-19T08:40:07.223Z</time></trkpt><trkpt lat="43.6835871" lon="11.2511183"><ele>269.0</ele><time>2026-04-19T08:40:08.221Z</time></trkpt><trkpt lat="43.6835053" lon="11.2510411"><ele>268.75</ele><time>2026-04-19T08:40:09.225Z</time></trkpt><trkpt lat="43.6834302" lon="11.2509262"><ele>268.5</ele><time>2026-04-19T08:40:10.22Z</time></trkpt><trkpt lat="43.6833614" lon="11.2507981"><ele>268.25</ele><time>2026-04-19T08:40:11.234Z</time></trkpt><trkpt lat="43.6832803" lon="11.2506757"><ele>268.0</ele><time>2026-04-19T08:40:12.227Z</time></trkpt><trkpt lat="43.6831994" lon="11.2505448"><ele>269.0</ele><time>2026-04-19T08:40:13.238Z</time></trkpt><trkpt lat="43.683117" lon="11.2504178"><ele>270.0</ele><time>2026-04-19T08:40:14.227Z</time></trkpt><trkpt lat="43.6830298" lon="11.2502914"><ele>271.0</ele><time>2026-04-19T08:40:15.239Z</time></trkpt><trkpt lat="43.6829384" lon="11.2501578"><ele>272.0</ele><time>2026-04-19T08:40:16.23Z</time></trkpt><trkpt lat="43.6828506" lon="11.2500187"><ele>271.75</ele><time>2026-04-19T08:40:17.228Z</time></trkpt><trkpt lat="43.6827567" lon="11.2498766"><ele>271.5</ele><time>2026-04-19T08:40:18.218Z</time></trkpt><trkpt lat="43.682663" lon="11.2497333"><ele>271.25</ele><time>2026-04-19T08:40:19.218Z</time></trkpt><trkpt lat="43.6825738" lon="11.2495916"><ele>271.0</ele><time>2026-04-19T08:40:20.226Z</time></trkpt><trkpt lat="43.6824936" lon="11.2494573"><ele>271.0</ele><time>2026-04-19T08:40:21.22Z</time></trkpt><trkpt lat="43.6824159" lon="11.2493305"><ele>271.0</ele><time>2026-04-19T08:40:22.224Z</time></trkpt><trkpt lat="43.6823532" lon="11.2491937"><ele>271.0</ele><time>2026-04-19T08:40:23.22Z</time></trkpt><trkpt lat="43.6823085" lon="11.2490224"><ele>271.0</ele><time>2026-04-19T08:40:24.229Z</time></trkpt><trkpt lat="43.6822763" lon="11.2488371"><ele>272.25</ele><time>2026-04-19T08:40:25.22Z</time></trkpt><trkpt lat="43.6822349" lon="11.2486573"><ele>273.5</ele><time>2026-04-19T08:40:26.25Z</time></trkpt><trkpt lat="43.6821893" lon="11.2484861"><ele>274.75</ele><time>2026-04-19T08:40:27.227Z</time></trkpt><trkpt lat="43.6821492" lon="11.2483198"><ele>276.0</ele><time>2026-04-19T08:40:28.224Z</time></trkpt><trkpt lat="43.6821238" lon="11.248185"><ele>275.6</ele><time>2026-04-19T08:40:29.222Z</time></trkpt><trkpt lat="43.6821037" lon="11.2480755"><ele>275.20000000000005</ele><time>2026-04-19T08:40:30.224Z</time></trkpt><trkpt lat="43.6821322" lon="11.2479553"><ele>274.79999999999995</ele><time>2026-04-19T08:40:32.231Z</time></trkpt><trkpt lat="43.6822008" lon="11.2478759"><ele>274.4</ele><time>2026-04-19T08:40:34.238Z</time></trkpt><trkpt lat="43.6822543" lon="11.2477821"><ele>274.0</ele><time>2026-04-19T08:40:37.227Z</time></trkpt><trkpt lat="43.6823179" lon="11.2476739"><ele>274.0</ele><time>2026-04-19T08:40:39.224Z</time></trkpt><trkpt lat="43.6823572" lon="11.2475949"><ele>274.0</ele><time>2026-04-19T08:40:40.23Z</time></trkpt><trkpt lat="43.6823981" lon="11.247505"><ele>274.0</ele><time>2026-04-19T08:40:41.224Z</time></trkpt><trkpt lat="43.6824308" lon="11.2473836"><ele>274.0</ele><time>2026-04-19T08:40:42.239Z</time></trkpt><trkpt lat="43.6824611" lon="11.247246"><ele>274.0</ele><time>2026-04-19T08:40:43.238Z</time></trkpt><trkpt lat="43.6824916" lon="11.2470896"><ele>273.5</ele><time>2026-04-19T08:40:44.231Z</time></trkpt><trkpt lat="43.6825326" lon="11.2469367"><ele>273.0</ele><time>2026-04-19T08:40:45.25Z</time></trkpt><trkpt lat="43.6825685" lon="11.2467771"><ele>272.5</ele><time>2026-04-19T08:40:46.215Z</time></trkpt><trkpt lat="43.6826035" lon="11.2466266"><ele>272.0</ele><time>2026-04-19T08:40:47.227Z</time></trkpt><trkpt lat="43.682639" lon="11.2464855"><ele>271.6</ele><time>2026-04-19T08:40:48.222Z</time></trkpt><trkpt lat="43.6826738" lon="11.2463511"><ele>271.2</ele><time>2026-04-19T08:40:49.222Z</time></trkpt><trkpt lat="43.6826926" lon="11.2462269"><ele>270.8</ele><time>2026-04-19T08:40:50.23Z</time></trkpt><trkpt lat="43.6827013" lon="11.2460925"><ele>270.4</ele><time>2026-04-19T08:40:51.214Z</time></trkpt><trkpt lat="43.6826981" lon="11.2459443"><ele>270.0</ele><time>2026-04-19T08:40:52.22Z</time></trkpt><trkpt lat="43.6826953" lon="11.2457912"><ele>270.0</ele><time>2026-04-19T08:40:53.222Z</time></trkpt><trkpt lat="43.6826867" lon="11.2456433"><ele>270.0</ele><time>2026-04-19T08:40:54.223Z</time></trkpt><trkpt lat="43.682676" lon="11.245499"><ele>270.0</ele><time>2026-04-19T08:40:55.233Z</time></trkpt><trkpt lat="43.6826512" lon="11.2453598"><ele>270.0</ele><time>2026-04-19T08:40:56.23Z</time></trkpt><trkpt lat="43.6826273" lon="11.2452238"><ele>270.0</ele><time>2026-04-19T08:40:57.23Z</time></trkpt><trkpt lat="43.6826027" lon="11.2450912"><ele>269.4</ele><time>2026-04-19T08:40:58.224Z</time></trkpt><trkpt lat="43.6825737" lon="11.2449481"><ele>268.8</ele><time>2026-04-19T08:40:59.223Z</time></trkpt><trkpt lat="43.6825374" lon="11.2448076"><ele>268.2</ele><time>2026-04-19T08:41:00.232Z</time></trkpt><trkpt lat="43.6824974" lon="11.2446748"><ele>267.6</ele><time>2026-04-19T08:41:01.251Z</time></trkpt><trkpt lat="43.6824667" lon="11.2445762"><ele>267.0</ele><time>2026-04-19T08:41:02.217Z</time></trkpt><trkpt lat="43.6824284" lon="11.2444478"><ele>266.8333333333333</ele><time>2026-04-19T08:41:04.236Z</time></trkpt><trkpt lat="43.6823666" lon="11.2443712"><ele>266.6666666666667</ele><time>2026-04-19T08:41:17.233Z</time></trkpt><trkpt lat="43.6823139" lon="11.2442904"><ele>266.5</ele><time>2026-04-19T08:41:18.22Z</time></trkpt><trkpt lat="43.6822673" lon="11.244199"><ele>266.33333333333337</ele><time>2026-04-19T08:41:19.229Z</time></trkpt><trkpt lat="43.6822192" lon="11.2440981"><ele>266.1666666666667</ele><time>2026-04-19T08:41:20.229Z</time></trkpt><trkpt lat="43.6821725" lon="11.2439876"><ele>266.0</ele><time>2026-04-19T08:41:21.236Z</time></trkpt><trkpt lat="43.6821239" lon="11.243871"><ele>265.75</ele><time>2026-04-19T08:41:22.233Z</time></trkpt><trkpt lat="43.682073" lon="11.2437435"><ele>265.5</ele><time>2026-04-19T08:41:23.249Z</time></trkpt><trkpt lat="43.6820198" lon="11.2436024"><ele>265.25</ele><time>2026-04-19T08:41:24.22Z</time></trkpt><trkpt lat="43.6819581" lon="11.2434509"><ele>265.0</ele><time>2026-04-19T08:41:25.23Z</time></trkpt><trkpt lat="43.6818987" lon="11.2433124"><ele>269.25</ele><time>2026-04-19T08:41:26.224Z</time></trkpt><trkpt lat="43.6818287" lon="11.2431808"><ele>273.5</ele><time>2026-04-19T08:41:27.221Z</time></trkpt><trkpt lat="43.6817644" lon="11.2430442"><ele>277.75</ele><time>2026-04-19T08:41:28.228Z</time></trkpt><trkpt lat="43.6817058" lon="11.2428915"><ele>282.0</ele><time>2026-04-19T08:41:29.237Z</time></trkpt><trkpt lat="43.6816663" lon="11.2427249"><ele>283.0</ele><time>2026-04-19T08:41:30.236Z</time></trkpt><trkpt lat="43.6816259" lon="11.242557"><ele>284.0</ele><time>2026-04-19T08:41:31.229Z</time></trkpt><trkpt lat="43.6815851" lon="11.2423819"><ele>285.0</ele><time>2026-04-19T08:41:32.243Z</time></trkpt><trkpt lat="43.6815465" lon="11.2422047"><ele>286.0</ele><time>2026-04-19T08:41:33.238Z</time></trkpt><trkpt lat="43.6815134" lon="11.2420234"><ele>287.75</ele><time>2026-04-19T08:41:34.241Z</time></trkpt><trkpt lat="43.6814801" lon="11.2418461"><ele>289.5</ele><time>2026-04-19T08:41:35.235Z</time></trkpt><trkpt lat="43.6814446" lon="11.2416888"><ele>291.25</ele><time>2026-04-19T08:41:36.233Z</time></trkpt><trkpt lat="43.6814144" lon="11.2415445"><ele>293.0</ele><time>2026-04-19T08:41:37.236Z</time></trkpt><trkpt lat="43.6813929" lon="11.2414192"><ele>293.6666666666667</ele><time>2026-04-19T08:41:38.232Z</time></trkpt><trkpt lat="43.6813628" lon="11.2413"><ele>294.33333333333337</ele><time>2026-04-19T08:41:39.242Z</time></trkpt><trkpt lat="43.6813162" lon="11.2411872"><ele>295.0</ele><time>2026-04-19T08:41:40.238Z</time></trkpt><trkpt lat="43.6812611" lon="11.2410806"><ele>295.6666666666667</ele><time>2026-04-19T08:41:41.243Z</time></trkpt><trkpt lat="43.6812087" lon="11.2409818"><ele>296.3333333333333</ele><time>2026-04-19T08:41:42.231Z</time></trkpt><trkpt lat="43.6811661" lon="11.2408961"><ele>297.0</ele><time>2026-04-19T08:41:43.233Z</time></trkpt><trkpt lat="43.6811385" lon="11.2408057"><ele>297.0</ele><time>2026-04-19T08:41:44.24Z</time></trkpt><trkpt lat="43.6811085" lon="11.2407019"><ele>297.0</ele><time>2026-04-19T08:41:45.221Z</time></trkpt><trkpt lat="43.6810754" lon="11.2405954"><ele>297.0</ele><time>2026-04-19T08:41:46.229Z</time></trkpt><trkpt lat="43.6810401" lon="11.2404937"><ele>297.0</ele><time>2026-04-19T08:41:47.228Z</time></trkpt><trkpt lat="43.6810067" lon="11.2404128"><ele>297.0</ele><time>2026-04-19T08:41:48.233Z</time></trkpt><trkpt lat="43.6809709" lon="11.2403338"><ele>297.0</ele><time>2026-04-19T08:41:49.24Z</time></trkpt><trkpt lat="43.680919" lon="11.2401889"><ele>298.2</ele><time>2026-04-19T08:41:51.234Z</time></trkpt><trkpt lat="43.6808593" lon="11.240068"><ele>299.4</ele><time>2026-04-19T08:41:53.228Z</time></trkpt><trkpt lat="43.6808011" lon="11.2399363"><ele>300.6</ele><time>2026-04-19T08:41:55.235Z</time></trkpt><trkpt lat="43.6807811" lon="11.2398165"><ele>301.8</ele><time>2026-04-19T08:41:56.231Z</time></trkpt><trkpt lat="43.6807577" lon="11.2397065"><ele>303.0</ele><time>2026-04-19T08:41:57.228Z</time></trkpt><trkpt lat="43.6807394" lon="11.2395997"><ele>303.0</ele><time>2026-04-19T08:41:58.226Z</time></trkpt><trkpt lat="43.6807065" lon="11.2395021"><ele>303.0</ele><time>2026-04-19T08:41:59.226Z</time></trkpt><trkpt lat="43.6806671" lon="11.2394237"><ele>303.0</ele><time>2026-04-19T08:42:00.231Z</time></trkpt><trkpt lat="43.6806302" lon="11.2393344"><ele>303.0</ele><time>2026-04-19T08:42:01.226Z</time></trkpt><trkpt lat="43.6806019" lon="11.2392473"><ele>303.0</ele><time>2026-04-19T08:42:02.236Z</time></trkpt><trkpt lat="43.6805693" lon="11.2391673"><ele>303.0</ele><time>2026-04-19T08:42:03.22Z</time></trkpt><trkpt lat="43.6805392" lon="11.2390897"><ele>303.0</ele><time>2026-04-19T08:42:04.223Z</time></trkpt><trkpt lat="43.6804972" lon="11.2389426"><ele>303.8</ele><time>2026-04-19T08:42:06.237Z</time></trkpt><trkpt lat="43.6804866" lon="11.2387812"><ele>304.6</ele><time>2026-04-19T08:42:08.241Z</time></trkpt><trkpt lat="43.680508" lon="11.2386802"><ele>305.4</ele><time>2026-04-19T08:42:09.23Z</time></trkpt><trkpt lat="43.6805274" lon="11.2385613"><ele>306.2</ele><time>2026-04-19T08:42:10.228Z</time></trkpt><trkpt lat="43.680555" lon="11.2384165"><ele>307.0</ele><time>2026-04-19T08:42:11.236Z</time></trkpt><trkpt lat="43.6805763" lon="11.2382668"><ele>308.0</ele><time>2026-04-19T08:42:12.228Z</time></trkpt><trkpt lat="43.6806022" lon="11.2381208"><ele>309.0</ele><time>2026-04-19T08:42:13.229Z</time></trkpt><trkpt lat="43.6806387" lon="11.2379845"><ele>310.0</ele><time>2026-04-19T08:42:14.22Z</time></trkpt><trkpt lat="43.6806669" lon="11.2378903"><ele>311.0</ele><time>2026-04-19T08:42:15.218Z</time></trkpt><trkpt lat="43.6807232" lon="11.2377532"><ele>312.0</ele><time>2026-04-19T08:42:17.234Z</time></trkpt><trkpt lat="43.680782" lon="11.2376283"><ele>312.0</ele><time>2026-04-19T08:42:19.233Z</time></trkpt><trkpt lat="43.6808156" lon="11.2375043"><ele>312.0</ele><time>2026-04-19T08:42:21.227Z</time></trkpt><trkpt lat="43.6808061" lon="11.2373563"><ele>312.0</ele><time>2026-04-19T08:42:23.228Z</time></trkpt><trkpt lat="43.6807916" lon="11.237266"><ele>312.0</ele><time>2026-04-19T08:42:24.226Z</time></trkpt><trkpt lat="43.6807738" lon="11.2371729"><ele>312.0</ele><time>2026-04-19T08:42:25.23Z</time></trkpt><trkpt lat="43.6807592" lon="11.2370863"><ele>312.0</ele><time>2026-04-19T08:42:26.218Z</time></trkpt><trkpt lat="43.6807373" lon="11.2369973"><ele>310.6666666666667</ele><time>2026-04-19T08:42:27.228Z</time></trkpt><trkpt lat="43.6807118" lon="11.2369095"><ele>309.3333333333333</ele><time>2026-04-19T08:42:28.216Z</time></trkpt><trkpt lat="43.6806819" lon="11.2368227"><ele>308.0</ele><time>2026-04-19T08:42:29.231Z</time></trkpt><trkpt lat="43.680655" lon="11.2367423"><ele>306.66666666666663</ele><time>2026-04-19T08:42:30.222Z</time></trkpt><trkpt lat="43.6805794" lon="11.2366279"><ele>305.3333333333333</ele><time>2026-04-19T08:42:32.236Z</time></trkpt><trkpt lat="43.6804964" lon="11.2365367"><ele>304.0</ele><time>2026-04-19T08:42:34.228Z</time></trkpt><trkpt lat="43.6804432" lon="11.2364821"><ele>305.8</ele><time>2026-04-19T08:42:35.213Z</time></trkpt><trkpt lat="43.6803884" lon="11.236427"><ele>307.59999999999997</ele><time>2026-04-19T08:42:36.229Z</time></trkpt><trkpt lat="43.6803009" lon="11.2363283"><ele>309.4</ele><time>2026-04-19T08:42:38.22Z</time></trkpt><trkpt lat="43.6802427" lon="11.2362402"><ele>311.2</ele><time>2026-04-19T08:42:40.215Z</time></trkpt><trkpt lat="43.6801809" lon="11.2361779"><ele>313.0</ele><time>2026-04-19T08:42:43.224Z</time></trkpt><trkpt lat="43.6800908" lon="11.2360725"><ele>313.0</ele><time>2026-04-19T08:43:04.215Z</time></trkpt><trkpt lat="43.6799773" lon="11.2359726"><ele>313.0</ele><time>2026-04-19T08:43:06.206Z</time></trkpt><trkpt lat="43.6799116" lon="11.235911"><ele>313.0</ele><time>2026-04-19T08:43:07.212Z</time></trkpt><trkpt lat="43.6798467" lon="11.235854"><ele>313.0</ele><time>2026-04-19T08:43:08.206Z</time></trkpt><trkpt lat="43.6797786" lon="11.235797"><ele>313.0</ele><time>2026-04-19T08:43:09.22Z</time></trkpt><trkpt lat="43.6797048" lon="11.2357373"><ele>313.0</ele><time>2026-04-19T08:43:10.217Z</time></trkpt><trkpt lat="43.679648" lon="11.235671"><ele>313.0</ele><time>2026-04-19T08:43:11.224Z</time></trkpt><trkpt lat="43.6795889" lon="11.2355769"><ele>313.0</ele><time>2026-04-19T08:43:12.251Z</time></trkpt><trkpt lat="43.6795262" lon="11.2354711"><ele>313.0</ele><time>2026-04-19T08:43:13.224Z</time></trkpt><trkpt lat="43.6794645" lon="11.2353647"><ele>313.0</ele><time>2026-04-19T08:43:14.223Z</time></trkpt><trkpt lat="43.6794005" lon="11.2352535"><ele>314.4</ele><time>2026-04-19T08:43:15.225Z</time></trkpt><trkpt lat="43.679338" lon="11.2351424"><ele>315.8</ele><time>2026-04-19T08:43:16.214Z</time></trkpt><trkpt lat="43.6792812" lon="11.2350381"><ele>317.2</ele><time>2026-04-19T08:43:17.214Z</time></trkpt><trkpt lat="43.6792312" lon="11.2349453"><ele>318.6</ele><time>2026-04-19T08:43:18.219Z</time></trkpt><trkpt lat="43.6791821" lon="11.2348334"><ele>320.0</ele><time>2026-04-19T08:43:19.228Z</time></trkpt><trkpt lat="43.6791377" lon="11.2347215"><ele>320.0</ele><time>2026-04-19T08:43:20.213Z</time></trkpt><trkpt lat="43.6791082" lon="11.2346003"><ele>320.0</ele><time>2026-04-19T08:43:21.226Z</time></trkpt><trkpt lat="43.6790782" lon="11.2344722"><ele>320.0</ele><time>2026-04-19T08:43:22.219Z</time></trkpt><trkpt lat="43.6790468" lon="11.234347"><ele>320.0</ele><time>2026-04-19T08:43:23.211Z</time></trkpt><trkpt lat="43.6790235" lon="11.2342455"><ele>320.0</ele><time>2026-04-19T08:43:24.209Z</time></trkpt><trkpt lat="43.678999" lon="11.2341575"><ele>320.0</ele><time>2026-04-19T08:43:25.221Z</time></trkpt><trkpt lat="43.6789625" lon="11.23401"><ele>319.1666666666667</ele><time>2026-04-19T08:43:27.228Z</time></trkpt><trkpt lat="43.6789307" lon="11.2338982"><ele>318.33333333333337</ele><time>2026-04-19T08:43:29.216Z</time></trkpt><trkpt lat="43.6789063" lon="11.2338156"><ele>317.5</ele><time>2026-04-19T08:43:32.215Z</time></trkpt><trkpt lat="43.678887" lon="11.2337298"><ele>316.6666666666667</ele><time>2026-04-19T08:43:34.233Z</time></trkpt><trkpt lat="43.6788414" lon="11.2336139"><ele>315.8333333333333</ele><time>2026-04-19T08:43:36.211Z</time></trkpt><trkpt lat="43.6788023" lon="11.2335343"><ele>315.0</ele><time>2026-04-19T08:43:38.216Z</time></trkpt><trkpt lat="43.6787645" lon="11.2334397"><ele>315.0</ele><time>2026-04-19T08:43:40.217Z</time></trkpt><trkpt lat="43.6787564" lon="11.2333509"><ele>315.0</ele><time>2026-04-19T08:43:42.209Z</time></trkpt><trkpt lat="43.6787129" lon="11.2332297"><ele>315.0</ele><time>2026-04-19T08:43:45.212Z</time></trkpt><trkpt lat="43.6786687" lon="11.2331474"><ele>315.0</ele><time>2026-04-19T08:43:47.214Z</time></trkpt><trkpt lat="43.6786076" lon="11.2330418"><ele>315.0</ele><time>2026-04-19T08:43:49.216Z</time></trkpt><trkpt lat="43.678521" lon="11.2329323"><ele>314.3333333333333</ele><time>2026-04-19T08:43:51.206Z</time></trkpt><trkpt lat="43.6784301" lon="11.232827"><ele>313.6666666666667</ele><time>2026-04-19T08:43:53.206Z</time></trkpt><trkpt lat="43.67838" lon="11.2327673"><ele>313.0</ele><time>2026-04-19T08:43:54.219Z</time></trkpt><trkpt lat="43.6783304" lon="11.2326995"><ele>312.33333333333337</ele><time>2026-04-19T08:43:55.211Z</time></trkpt><trkpt lat="43.6782809" lon="11.2326344"><ele>311.6666666666667</ele><time>2026-04-19T08:43:56.21Z</time></trkpt><trkpt lat="43.678205" lon="11.2325274"><ele>311.0</ele><time>2026-04-19T08:43:58.217Z</time></trkpt><trkpt lat="43.6781287" lon="11.2324055"><ele>311.0</ele><time>2026-04-19T08:44:00.225Z</time></trkpt><trkpt lat="43.6780572" lon="11.232318"><ele>311.0</ele><time>2026-04-19T08:44:02.218Z</time></trkpt><trkpt lat="43.6779641" lon="11.2322633"><ele>311.0</ele><time>2026-04-19T08:44:04.219Z</time></trkpt><trkpt lat="43.6778787" lon="11.2321902"><ele>311.0</ele><time>2026-04-19T08:44:06.214Z</time></trkpt><trkpt lat="43.6778058" lon="11.232108"><ele>311.0</ele><time>2026-04-19T08:44:08.215Z</time></trkpt><trkpt lat="43.6777424" lon="11.2320034"><ele>308.6</ele><time>2026-04-19T08:44:10.214Z</time></trkpt><trkpt lat="43.6776711" lon="11.2319038"><ele>306.20000000000005</ele><time>2026-04-19T08:44:12.216Z</time></trkpt><trkpt lat="43.6775877" lon="11.2317905"><ele>303.79999999999995</ele><time>2026-04-19T08:44:14.224Z</time></trkpt><trkpt lat="43.677501" lon="11.2316905"><ele>301.4</ele><time>2026-04-19T08:44:16.222Z</time></trkpt><trkpt lat="43.6773914" lon="11.231632"><ele>299.0</ele><time>2026-04-19T08:44:18.212Z</time></trkpt><trkpt lat="43.6772735" lon="11.2316123"><ele>299.0</ele><time>2026-04-19T08:44:20.216Z</time></trkpt><trkpt lat="43.6771587" lon="11.2316363"><ele>299.0</ele><time>2026-04-19T08:44:22.225Z</time></trkpt><trkpt lat="43.6770957" lon="11.2316466"><ele>299.0</ele><time>2026-04-19T08:44:23.216Z</time></trkpt><trkpt lat="43.6769793" lon="11.23167"><ele>299.0</ele><time>2026-04-19T08:44:25.231Z</time></trkpt><trkpt lat="43.6769155" lon="11.2316845"><ele>299.0</ele><time>2026-04-19T08:44:26.223Z</time></trkpt><trkpt lat="43.6767908" lon="11.2317016"><ele>297.2</ele><time>2026-04-19T08:44:28.231Z</time></trkpt><trkpt lat="43.6767259" lon="11.2317078"><ele>295.4</ele><time>2026-04-19T08:44:29.221Z</time></trkpt><trkpt lat="43.6766084" lon="11.2317107"><ele>293.6</ele><time>2026-04-19T08:44:31.227Z</time></trkpt><trkpt lat="43.6764984" lon="11.2317021"><ele>291.8</ele><time>2026-04-19T08:44:33.217Z</time></trkpt><trkpt lat="43.6764007" lon="11.2316924"><ele>290.0</ele><time>2026-04-19T08:44:35.226Z</time></trkpt><trkpt lat="43.6763015" lon="11.2316763"><ele>290.0</ele><time>2026-04-19T08:44:37.236Z</time></trkpt><trkpt lat="43.6762012" lon="11.2316777"><ele>290.0</ele><time>2026-04-19T08:44:39.235Z</time></trkpt><trkpt lat="43.6760994" lon="11.2316883"><ele>290.0</ele><time>2026-04-19T08:44:41.242Z</time></trkpt><trkpt lat="43.675995" lon="11.2317114"><ele>290.0</ele><time>2026-04-19T08:44:43.231Z</time></trkpt><trkpt lat="43.6758939" lon="11.231768"><ele>290.0</ele><time>2026-04-19T08:44:45.226Z</time></trkpt><trkpt lat="43.6758012" lon="11.2318492"><ele>287.83333333333337</ele><time>2026-04-19T08:44:47.218Z</time></trkpt><trkpt lat="43.6757238" lon="11.2319242"><ele>285.6666666666667</ele><time>2026-04-19T08:44:49.221Z</time></trkpt><trkpt lat="43.6756533" lon="11.2319975"><ele>283.5</ele><time>2026-04-19T08:44:51.218Z</time></trkpt><trkpt lat="43.6755893" lon="11.2320542"><ele>281.3333333333333</ele><time>2026-04-19T08:44:53.231Z</time></trkpt><trkpt lat="43.6755176" lon="11.232095"><ele>279.16666666666663</ele><time>2026-04-19T08:44:55.217Z</time></trkpt><trkpt lat="43.6754458" lon="11.2321268"><ele>277.0</ele><time>2026-04-19T08:44:59.234Z</time></trkpt><trkpt lat="43.6755124" lon="11.2321313"><ele>277.0</ele><time>2026-04-19T08:45:25.23Z</time></trkpt><trkpt lat="43.675589" lon="11.2320547"><ele>277.0</ele><time>2026-04-19T08:45:27.224Z</time></trkpt><trkpt lat="43.6756485" lon="11.2320002"><ele>277.0</ele><time>2026-04-19T08:45:28.239Z</time></trkpt><trkpt lat="43.6757142" lon="11.2319472"><ele>277.0</ele><time>2026-04-19T08:45:29.225Z</time></trkpt><trkpt lat="43.6757898" lon="11.2318843"><ele>277.0</ele><time>2026-04-19T08:45:30.23Z</time></trkpt><trkpt lat="43.6758739" lon="11.2318151"><ele>277.0</ele><time>2026-04-19T08:45:31.225Z</time></trkpt><trkpt lat="43.6759435" lon="11.2317592"><ele>277.0</ele><time>2026-04-19T08:45:32.221Z</time></trkpt><trkpt lat="43.676007" lon="11.2317132"><ele>277.0</ele><time>2026-04-19T08:45:33.246Z</time></trkpt><trkpt lat="43.6760718" lon="11.231678"><ele>277.0</ele><time>2026-04-19T08:45:34.236Z</time></trkpt><trkpt lat="43.6761339" lon="11.2316576"><ele>277.0</ele><time>2026-04-19T08:45:35.226Z</time></trkpt><trkpt lat="43.6762029" lon="11.2316584"><ele>277.0</ele><time>2026-04-19T08:45:36.224Z</time></trkpt><trkpt lat="43.6762744" lon="11.2316549"><ele>277.0</ele><time>2026-04-19T08:45:37.225Z</time></trkpt><trkpt lat="43.6763574" lon="11.2316755"><ele>277.0</ele><time>2026-04-19T08:45:38.226Z</time></trkpt><trkpt lat="43.6764463" lon="11.2316991"><ele>279.6</ele><time>2026-04-19T08:45:39.23Z</time></trkpt><trkpt lat="43.6765417" lon="11.231713"><ele>282.2</ele><time>2026-04-19T08:45:40.248Z</time></trkpt><trkpt lat="43.676636" lon="11.2317258"><ele>284.8</ele><time>2026-04-19T08:45:41.233Z</time></trkpt><trkpt lat="43.6767318" lon="11.2317383"><ele>287.4</ele><time>2026-04-19T08:45:42.229Z</time></trkpt><trkpt lat="43.6768244" lon="11.2317351"><ele>290.0</ele><time>2026-04-19T08:45:43.22Z</time></trkpt><trkpt lat="43.6769238" lon="11.2317226"><ele>291.5</ele><time>2026-04-19T08:45:44.222Z</time></trkpt><trkpt lat="43.6770074" lon="11.2317137"><ele>293.0</ele><time>2026-04-19T08:45:45.219Z</time></trkpt><trkpt lat="43.677078" lon="11.2317062"><ele>294.5</ele><time>2026-04-19T08:45:46.226Z</time></trkpt><trkpt lat="43.6771783" lon="11.2316906"><ele>296.0</ele><time>2026-04-19T08:45:48.213Z</time></trkpt><trkpt lat="43.6772592" lon="11.2316829"><ele>297.5</ele><time>2026-04-19T08:45:50.216Z</time></trkpt><trkpt lat="43.6773589" lon="11.2317027"><ele>299.0</ele><time>2026-04-19T08:45:52.217Z</time></trkpt><trkpt lat="43.6774526" lon="11.231738"><ele>299.0</ele><time>2026-04-19T08:45:54.218Z</time></trkpt><trkpt lat="43.6775491" lon="11.231793"><ele>299.0</ele><time>2026-04-19T08:45:56.224Z</time></trkpt><trkpt lat="43.6776487" lon="11.2318851"><ele>299.0</ele><time>2026-04-19T08:45:58.218Z</time></trkpt><trkpt lat="43.6777218" lon="11.2319837"><ele>299.0</ele><time>2026-04-19T08:46:00.213Z</time></trkpt><trkpt lat="43.6777821" lon="11.2320709"><ele>299.0</ele><time>2026-04-19T08:46:02.216Z</time></trkpt><trkpt lat="43.6778328" lon="11.2321243"><ele>298.83333333333337</ele><time>2026-04-19T08:46:04.212Z</time></trkpt><trkpt lat="43.677904" lon="11.2321755"><ele>298.6666666666667</ele><time>2026-04-19T08:46:06.231Z</time></trkpt><trkpt lat="43.6779574" lon="11.2322216"><ele>298.5</ele><time>2026-04-19T08:46:08.223Z</time></trkpt><trkpt lat="43.678012" lon="11.2322918"><ele>298.3333333333333</ele><time>2026-04-19T08:46:11.21Z</time></trkpt><trkpt lat="43.6780733" lon="11.2323611"><ele>298.16666666666663</ele><time>2026-04-19T08:46:14.218Z</time></trkpt><trkpt lat="43.6780959" lon="11.2322531"><ele>298.0</ele><time>2026-04-19T08:46:20.211Z</time></trkpt><trkpt lat="43.6780692" lon="11.2321367"><ele>298.0</ele><time>2026-04-19T08:46:23.217Z</time></trkpt><trkpt lat="43.6780431" lon="11.2320371"><ele>298.0</ele><time>2026-04-19T08:46:25.211Z</time></trkpt><trkpt lat="43.6780086" lon="11.2319518"><ele>298.0</ele><time>2026-04-19T08:46:27.214Z</time></trkpt><trkpt lat="43.677975" lon="11.2318772"><ele>298.0</ele><time>2026-04-19T08:46:30.218Z</time></trkpt><trkpt lat="43.6779246" lon="11.2318248"><ele>298.0</ele><time>2026-04-19T08:47:33.218Z</time></trkpt><trkpt lat="43.6778952" lon="11.2317427"><ele>298.0</ele><time>2026-04-19T08:47:35.225Z</time></trkpt><trkpt lat="43.6778665" lon="11.2316467"><ele>298.0</ele><time>2026-04-19T08:47:37.216Z</time></trkpt><trkpt lat="43.6778527" lon="11.2315438"><ele>297.8</ele><time>2026-04-19T08:47:39.228Z</time></trkpt><trkpt lat="43.6778795" lon="11.2314306"><ele>297.6</ele><time>2026-04-19T08:47:42.214Z</time></trkpt><trkpt lat="43.6779359" lon="11.231384"><ele>297.4</ele><time>2026-04-19T08:47:44.215Z</time></trkpt><trkpt lat="43.6780258" lon="11.2313397"><ele>297.2</ele><time>2026-04-19T08:47:46.204Z</time></trkpt><trkpt lat="43.6781249" lon="11.2313043"><ele>297.0</ele><time>2026-04-19T08:47:48.215Z</time></trkpt><trkpt lat="43.6782282" lon="11.2312319"><ele>297.0</ele><time>2026-04-19T08:47:50.216Z</time></trkpt><trkpt lat="43.6783221" lon="11.231117"><ele>297.0</ele><time>2026-04-19T08:47:52.218Z</time></trkpt><trkpt lat="43.6783754" lon="11.2310461"><ele>297.0</ele><time>2026-04-19T08:47:53.208Z</time></trkpt><trkpt lat="43.6784175" lon="11.2309809"><ele>297.0</ele><time>2026-04-19T08:47:54.216Z</time></trkpt><trkpt lat="43.6784635" lon="11.2309089"><ele>297.0</ele><time>2026-04-19T08:47:55.219Z</time></trkpt><trkpt lat="43.6785247" lon="11.23084"><ele>297.0</ele><time>2026-04-19T08:47:56.207Z</time></trkpt><trkpt lat="43.6785671" lon="11.2307756"><ele>294.6</ele><time>2026-04-19T08:47:57.215Z</time></trkpt><trkpt lat="43.6786344" lon="11.2306287"><ele>292.2</ele><time>2026-04-19T08:47:59.223Z</time></trkpt><trkpt lat="43.6786941" lon="11.2304908"><ele>289.8</ele><time>2026-04-19T08:48:01.232Z</time></trkpt><trkpt lat="43.6787466" lon="11.230364"><ele>287.4</ele><time>2026-04-19T08:48:03.231Z</time></trkpt><trkpt lat="43.6787776" lon="11.2302502"><ele>285.0</ele><time>2026-04-19T08:48:05.218Z</time></trkpt><trkpt lat="43.6787818" lon="11.2301338"><ele>285.0</ele><time>2026-04-19T08:48:07.219Z</time></trkpt><trkpt lat="43.6787587" lon="11.2300232"><ele>285.0</ele><time>2026-04-19T08:48:09.222Z</time></trkpt><trkpt lat="43.6787106" lon="11.2299207"><ele>285.0</ele><time>2026-04-19T08:48:11.223Z</time></trkpt><trkpt lat="43.6786492" lon="11.2298204"><ele>285.0</ele><time>2026-04-19T08:48:13.222Z</time></trkpt><trkpt lat="43.6785617" lon="11.2296865"><ele>285.0</ele><time>2026-04-19T08:48:15.217Z</time></trkpt><trkpt lat="43.6785115" lon="11.229608"><ele>285.5</ele><time>2026-04-19T08:48:16.227Z</time></trkpt><trkpt lat="43.6784611" lon="11.2295358"><ele>286.0</ele><time>2026-04-19T08:48:17.215Z</time></trkpt><trkpt lat="43.6784112" lon="11.2294625"><ele>286.5</ele><time>2026-04-19T08:48:18.209Z</time></trkpt><trkpt lat="43.6783609" lon="11.2293886"><ele>287.0</ele><time>2026-04-19T08:48:19.215Z</time></trkpt><trkpt lat="43.6783072" lon="11.2293084"><ele>287.5</ele><time>2026-04-19T08:48:20.213Z</time></trkpt><trkpt lat="43.6782498" lon="11.2292309"><ele>288.0</ele><time>2026-04-19T08:48:21.212Z</time></trkpt><trkpt lat="43.6781932" lon="11.2291555"><ele>288.00000000000006</ele><time>2026-04-19T08:48:22.213Z</time></trkpt><trkpt lat="43.6781343" lon="11.2290839"><ele>288.0</ele><time>2026-04-19T08:48:23.219Z</time></trkpt><trkpt lat="43.6780701" lon="11.2290238"><ele>288.0</ele><time>2026-04-19T08:48:24.228Z</time></trkpt><trkpt lat="43.6780065" lon="11.2289661"><ele>288.0</ele><time>2026-04-19T08:48:25.224Z</time></trkpt><trkpt lat="43.6779442" lon="11.2289133"><ele>288.0</ele><time>2026-04-19T08:48:26.218Z</time></trkpt><trkpt lat="43.6778857" lon="11.2288619"><ele>288.00000000000006</ele><time>2026-04-19T08:48:27.218Z</time></trkpt><trkpt lat="43.6778277" lon="11.2288128"><ele>288.0</ele><time>2026-04-19T08:48:28.227Z</time></trkpt><trkpt lat="43.6777745" lon="11.2287533"><ele>285.42857142857144</ele><time>2026-04-19T08:48:29.214Z</time></trkpt><trkpt lat="43.6777275" lon="11.2286848"><ele>282.8571428571429</ele><time>2026-04-19T08:48:30.221Z</time></trkpt><trkpt lat="43.6776863" lon="11.2286175"><ele>280.2857142857143</ele><time>2026-04-19T08:48:31.218Z</time></trkpt><trkpt lat="43.677643" lon="11.2285319"><ele>277.7142857142857</ele><time>2026-04-19T08:48:32.226Z</time></trkpt><trkpt lat="43.6776021" lon="11.2284427"><ele>275.1428571428571</ele><time>2026-04-19T08:48:33.214Z</time></trkpt><trkpt lat="43.6775644" lon="11.2283464"><ele>272.57142857142856</ele><time>2026-04-19T08:48:34.222Z</time></trkpt><trkpt lat="43.6775277" lon="11.2282432"><ele>270.0</ele><time>2026-04-19T08:48:35.218Z</time></trkpt><trkpt lat="43.6774842" lon="11.2281602"><ele>269.0</ele><time>2026-04-19T08:48:36.224Z</time></trkpt><trkpt lat="43.6774413" lon="11.2280815"><ele>268.0</ele><time>2026-04-19T08:48:37.223Z</time></trkpt><trkpt lat="43.6773972" lon="11.2280011"><ele>267.0</ele><time>2026-04-19T08:48:38.21Z</time></trkpt><trkpt lat="43.677354" lon="11.2279196"><ele>266.0</ele><time>2026-04-19T08:48:39.226Z</time></trkpt><trkpt lat="43.6773164" lon="11.2278493"><ele>265.0</ele><time>2026-04-19T08:48:40.235Z</time></trkpt><trkpt lat="43.6772381" lon="11.2277221"><ele>264.0</ele><time>2026-04-19T08:48:42.223Z</time></trkpt><trkpt lat="43.6771975" lon="11.2276492"><ele>264.0</ele><time>2026-04-19T08:48:43.213Z</time></trkpt><trkpt lat="43.6771574" lon="11.2275742"><ele>264.0</ele><time>2026-04-19T08:48:44.239Z</time></trkpt><trkpt lat="43.6771157" lon="11.2275021"><ele>264.0</ele><time>2026-04-19T08:48:45.215Z</time></trkpt><trkpt lat="43.6770641" lon="11.2274461"><ele>264.0</ele><time>2026-04-19T08:48:46.22Z</time></trkpt><trkpt lat="43.6769756" lon="11.2273365"><ele>264.0</ele><time>2026-04-19T08:48:48.234Z</time></trkpt><trkpt lat="43.6769228" lon="11.2272163"><ele>264.0</ele><time>2026-04-19T08:48:50.228Z</time></trkpt><trkpt lat="43.6769191" lon="11.2270835"><ele>262.2</ele><time>2026-04-19T08:48:52.213Z</time></trkpt><trkpt lat="43.676928" lon="11.2269452"><ele>260.4</ele><time>2026-04-19T08:48:54.214Z</time></trkpt><trkpt lat="43.6769166" lon="11.2268157"><ele>258.6</ele><time>2026-04-19T08:48:56.223Z</time></trkpt><trkpt lat="43.676883" lon="11.2266789"><ele>256.8</ele><time>2026-04-19T08:48:58.221Z</time></trkpt><trkpt lat="43.6768416" lon="11.2265199"><ele>255.0</ele><time>2026-04-19T08:49:00.222Z</time></trkpt><trkpt lat="43.676838" lon="11.2263696"><ele>254.0</ele><time>2026-04-19T08:49:02.237Z</time></trkpt><trkpt lat="43.6768704" lon="11.2261982"><ele>253.0</ele><time>2026-04-19T08:49:04.233Z</time></trkpt><trkpt lat="43.6768947" lon="11.2261027"><ele>252.0</ele><time>2026-04-19T08:49:05.223Z</time></trkpt><trkpt lat="43.6769129" lon="11.2260081"><ele>251.0</ele><time>2026-04-19T08:49:06.222Z</time></trkpt><trkpt lat="43.6769235" lon="11.2259142"><ele>250.0</ele><time>2026-04-19T08:49:07.228Z</time></trkpt><trkpt lat="43.6769291" lon="11.225822"><ele>249.0</ele><time>2026-04-19T08:49:08.225Z</time></trkpt><trkpt lat="43.6769272" lon="11.2257266"><ele>248.33333333333334</ele><time>2026-04-19T08:49:09.222Z</time></trkpt><trkpt lat="43.6769276" lon="11.2256277"><ele>247.66666666666669</ele><time>2026-04-19T08:49:10.219Z</time></trkpt><trkpt lat="43.6769196" lon="11.2255257"><ele>247.0</ele><time>2026-04-19T08:49:11.225Z</time></trkpt><trkpt lat="43.6769155" lon="11.2254228"><ele>246.33333333333334</ele><time>2026-04-19T08:49:12.217Z</time></trkpt><trkpt lat="43.6769123" lon="11.2253268"><ele>245.66666666666669</ele><time>2026-04-19T08:49:13.23Z</time></trkpt><trkpt lat="43.6769052" lon="11.2252399"><ele>245.0</ele><time>2026-04-19T08:49:14.232Z</time></trkpt><trkpt lat="43.6768924" lon="11.2250768"><ele>245.0</ele><time>2026-04-19T08:49:16.227Z</time></trkpt><trkpt lat="43.6768845" lon="11.2249051"><ele>245.0</ele><time>2026-04-19T08:49:18.23Z</time></trkpt><trkpt lat="43.6768895" lon="11.2248064"><ele>245.0</ele><time>2026-04-19T08:49:19.227Z</time></trkpt><trkpt lat="43.6768905" lon="11.2246364"><ele>245.0</ele><time>2026-04-19T08:49:21.22Z</time></trkpt><trkpt lat="43.6768999" lon="11.2245396"><ele>245.0</ele><time>2026-04-19T08:49:23.226Z</time></trkpt><trkpt lat="43.6768929" lon="11.2244469"><ele>244.33333333333334</ele><time>2026-04-19T09:04:23.234Z</time></trkpt><trkpt lat="43.6768924" lon="11.2243455"><ele>243.66666666666669</ele><time>2026-04-19T09:04:26.215Z</time></trkpt><trkpt lat="43.6768819" lon="11.2242253"><ele>243.0</ele><time>2026-04-19T09:04:29.227Z</time></trkpt><trkpt lat="43.6768738" lon="11.2241339"><ele>242.33333333333331</ele><time>2026-04-19T09:04:31.234Z</time></trkpt><trkpt lat="43.6768707" lon="11.2240453"><ele>241.66666666666666</ele><time>2026-04-19T09:04:33.236Z</time></trkpt><trkpt lat="43.6768748" lon="11.2239145"><ele>241.0</ele><time>2026-04-19T09:04:35.233Z</time></trkpt><trkpt lat="43.6768767" lon="11.2237478"><ele>239.0</ele><time>2026-04-19T09:04:37.242Z</time></trkpt><trkpt lat="43.6768789" lon="11.2235826"><ele>237.00000000000003</ele><time>2026-04-19T09:04:39.235Z</time></trkpt><trkpt lat="43.6768691" lon="11.2234047"><ele>235.00000000000003</ele><time>2026-04-19T09:04:41.238Z</time></trkpt><trkpt lat="43.6768655" lon="11.2233077"><ele>233.0</ele><time>2026-04-19T09:04:42.231Z</time></trkpt><trkpt lat="43.6768668" lon="11.2231898"><ele>231.0</ele><time>2026-04-19T09:04:43.242Z</time></trkpt><trkpt lat="43.676876" lon="11.2230522"><ele>228.8</ele><time>2026-04-19T09:04:44.24Z</time></trkpt><trkpt lat="43.6768898" lon="11.2229073"><ele>226.60000000000002</ele><time>2026-04-19T09:04:45.236Z</time></trkpt><trkpt lat="43.6769007" lon="11.2227703"><ele>224.4</ele><time>2026-04-19T09:04:46.235Z</time></trkpt><trkpt lat="43.6769188" lon="11.2226333"><ele>222.2</ele><time>2026-04-19T09:04:47.237Z</time></trkpt><trkpt lat="43.6769432" lon="11.2225026"><ele>220.0</ele><time>2026-04-19T09:04:48.238Z</time></trkpt><trkpt lat="43.6769809" lon="11.2223665"><ele>220.0</ele><time>2026-04-19T09:04:49.232Z</time></trkpt><trkpt lat="43.6770261" lon="11.222235"><ele>220.0</ele><time>2026-04-19T09:04:50.226Z</time></trkpt><trkpt lat="43.6770748" lon="11.2221147"><ele>220.0</ele><time>2026-04-19T09:04:51.236Z</time></trkpt><trkpt lat="43.6771229" lon="11.2220071"><ele>220.0</ele><time>2026-04-19T09:04:52.231Z</time></trkpt><trkpt lat="43.6771695" lon="11.2219127"><ele>220.0</ele><time>2026-04-19T09:04:53.225Z</time></trkpt><trkpt lat="43.6772093" lon="11.2218171"><ele>219.99999999999997</ele><time>2026-04-19T09:04:54.237Z</time></trkpt><trkpt lat="43.6772541" lon="11.2217332"><ele>220.0</ele><time>2026-04-19T09:04:55.232Z</time></trkpt><trkpt lat="43.6772919" lon="11.2216571"><ele>220.0</ele><time>2026-04-19T09:04:56.235Z</time></trkpt><trkpt lat="43.6773315" lon="11.2215805"><ele>220.0</ele><time>2026-04-19T09:04:57.224Z</time></trkpt><trkpt lat="43.6773679" lon="11.2215076"><ele>219.99999999999997</ele><time>2026-04-19T09:04:58.235Z</time></trkpt><trkpt lat="43.6774291" lon="11.221392"><ele>220.0</ele><time>2026-04-19T09:05:00.27Z</time></trkpt><trkpt lat="43.6774808" lon="11.2212709"><ele>220.2</ele><time>2026-04-19T09:05:02.247Z</time></trkpt><trkpt lat="43.6775573" lon="11.2211327"><ele>220.4</ele><time>2026-04-19T09:05:04.233Z</time></trkpt><trkpt lat="43.6776226" lon="11.2210088"><ele>220.60000000000002</ele><time>2026-04-19T09:05:06.236Z</time></trkpt><trkpt lat="43.6776956" lon="11.2209184"><ele>220.8</ele><time>2026-04-19T09:05:08.235Z</time></trkpt><trkpt lat="43.6777957" lon="11.2208644"><ele>221.0</ele><time>2026-04-19T09:05:10.228Z</time></trkpt><trkpt lat="43.6778958" lon="11.2208494"><ele>221.00000000000003</ele><time>2026-04-19T09:05:12.233Z</time></trkpt><trkpt lat="43.6779604" lon="11.2208434"><ele>221.0</ele><time>2026-04-19T09:05:13.237Z</time></trkpt><trkpt lat="43.6780261" lon="11.220831"><ele>221.0</ele><time>2026-04-19T09:05:14.242Z</time></trkpt><trkpt lat="43.6780888" lon="11.2208156"><ele>221.0</ele><time>2026-04-19T09:05:15.223Z</time></trkpt><trkpt lat="43.6782014" lon="11.2207783"><ele>221.00000000000003</ele><time>2026-04-19T09:05:17.232Z</time></trkpt><trkpt lat="43.6783215" lon="11.2207338"><ele>221.0</ele><time>2026-04-19T09:05:19.227Z</time></trkpt><trkpt lat="43.6784164" lon="11.2206353"><ele>220.0</ele><time>2026-04-19T09:05:21.231Z</time></trkpt><trkpt lat="43.6784757" lon="11.2204979"><ele>219.00000000000003</ele><time>2026-04-19T09:05:23.226Z</time></trkpt><trkpt lat="43.678517" lon="11.2203577"><ele>218.00000000000003</ele><time>2026-04-19T09:05:25.225Z</time></trkpt><trkpt lat="43.6785386" lon="11.2202701"><ele>217.0</ele><time>2026-04-19T09:05:26.232Z</time></trkpt><trkpt lat="43.6785617" lon="11.2201608"><ele>216.0</ele><time>2026-04-19T09:05:27.237Z</time></trkpt><trkpt lat="43.6785903" lon="11.2200615"><ele>216.33333333333334</ele><time>2026-04-19T09:05:28.334Z</time></trkpt><trkpt lat="43.6786062" lon="11.2199561"><ele>216.66666666666669</ele><time>2026-04-19T09:05:29.3Z</time></trkpt><trkpt lat="43.6786171" lon="11.2198541"><ele>217.0</ele><time>2026-04-19T09:05:30.295Z</time></trkpt><trkpt lat="43.6786274" lon="11.2197612"><ele>217.33333333333334</ele><time>2026-04-19T09:05:31.292Z</time></trkpt><trkpt lat="43.6786319" lon="11.2196708"><ele>217.66666666666669</ele><time>2026-04-19T09:05:32.297Z</time></trkpt><trkpt lat="43.6786343" lon="11.2195309"><ele>218.0</ele><time>2026-04-19T09:05:34.302Z</time></trkpt><trkpt lat="43.6786659" lon="11.2194465"><ele>218.00000000000003</ele><time>2026-04-19T09:05:37.304Z</time></trkpt><trkpt lat="43.6787313" lon="11.2194842"><ele>218.0</ele><time>2026-04-19T09:05:40.223Z</time></trkpt><trkpt lat="43.6787237" lon="11.2193872"><ele>218.0</ele><time>2026-04-19T09:05:46.224Z</time></trkpt><trkpt lat="43.6786761" lon="11.2193294"><ele>218.0</ele><time>2026-04-19T09:05:54.212Z</time></trkpt><trkpt lat="43.6787148" lon="11.2192279"><ele>218.00000000000003</ele><time>2026-04-19T09:05:57.294Z</time></trkpt><trkpt lat="43.678749" lon="11.2191477"><ele>218.0</ele><time>2026-04-19T09:05:59.288Z</time></trkpt><trkpt lat="43.6788115" lon="11.2190336"><ele>218.0</ele><time>2026-04-19T09:06:01.279Z</time></trkpt><trkpt lat="43.6788779" lon="11.2189216"><ele>218.0</ele><time>2026-04-19T09:06:03.296Z</time></trkpt><trkpt lat="43.6789509" lon="11.2188561"><ele>218.0</ele><time>2026-04-19T09:06:05.293Z</time></trkpt><trkpt lat="43.679054" lon="11.2188087"><ele>218.0</ele><time>2026-04-19T09:06:07.296Z</time></trkpt><trkpt lat="43.6791582" lon="11.2187912"><ele>218.0</ele><time>2026-04-19T09:06:09.296Z</time></trkpt><trkpt lat="43.6792413" lon="11.2187634"><ele>218.0</ele><time>2026-04-19T09:06:11.299Z</time></trkpt><trkpt lat="43.6793233" lon="11.2186994"><ele>218.0</ele><time>2026-04-19T09:06:13.281Z</time></trkpt><trkpt lat="43.6794066" lon="11.2186295"><ele>218.0</ele><time>2026-04-19T09:06:15.301Z</time></trkpt><trkpt lat="43.6794554" lon="11.2185589"><ele>218.0</ele><time>2026-04-19T09:06:17.307Z</time></trkpt><trkpt lat="43.6794829" lon="11.2184265"><ele>218.0</ele><time>2026-04-19T09:06:20.292Z</time></trkpt><trkpt lat="43.6794936" lon="11.2183013"><ele>215.83333333333334</ele><time>2026-04-19T09:06:22.295Z</time></trkpt><trkpt lat="43.6795248" lon="11.2181955"><ele>213.66666666666669</ele><time>2026-04-19T09:06:24.299Z</time></trkpt><trkpt lat="43.6795372" lon="11.2180865"><ele>211.5</ele><time>2026-04-19T09:06:26.299Z</time></trkpt><trkpt lat="43.6795303" lon="11.2179733"><ele>209.33333333333331</ele><time>2026-04-19T09:06:28.31Z</time></trkpt><trkpt lat="43.6795155" lon="11.2178693"><ele>207.16666666666666</ele><time>2026-04-19T09:06:30.294Z</time></trkpt><trkpt lat="43.6795209" lon="11.2177467"><ele>205.0</ele><time>2026-04-19T09:06:32.311Z</time></trkpt><trkpt lat="43.6795797" lon="11.217649"><ele>203.4</ele><time>2026-04-19T09:06:34.298Z</time></trkpt><trkpt lat="43.6796661" lon="11.2175428"><ele>201.8</ele><time>2026-04-19T09:06:36.302Z</time></trkpt><trkpt lat="43.6797372" lon="11.2174216"><ele>200.2</ele><time>2026-04-19T09:06:38.304Z</time></trkpt><trkpt lat="43.6797671" lon="11.2172491"><ele>198.6</ele><time>2026-04-19T09:06:40.296Z</time></trkpt><trkpt lat="43.6797746" lon="11.2171576"><ele>197.0</ele><time>2026-04-19T09:06:41.304Z</time></trkpt><trkpt lat="43.6797712" lon="11.2170615"><ele>195.83333333333334</ele><time>2026-04-19T09:06:42.302Z</time></trkpt><trkpt lat="43.6797607" lon="11.2169622"><ele>194.66666666666669</ele><time>2026-04-19T09:06:43.296Z</time></trkpt><trkpt lat="43.6797411" lon="11.2168681"><ele>193.5</ele><time>2026-04-19T09:06:44.306Z</time></trkpt><trkpt lat="43.6797209" lon="11.216785"><ele>192.33333333333334</ele><time>2026-04-19T09:06:45.311Z</time></trkpt><trkpt lat="43.6797084" lon="11.2166901"><ele>191.16666666666669</ele><time>2026-04-19T09:06:46.3Z</time></trkpt><trkpt lat="43.6797378" lon="11.2165283"><ele>190.0</ele><time>2026-04-19T09:06:48.314Z</time></trkpt><trkpt lat="43.6797631" lon="11.2164462"><ele>187.8</ele><time>2026-04-19T09:06:49.297Z</time></trkpt><trkpt lat="43.6797901" lon="11.2163046"><ele>185.6</ele><time>2026-04-19T09:06:51.29Z</time></trkpt><trkpt lat="43.679763" lon="11.2161663"><ele>183.39999999999998</ele><time>2026-04-19T09:06:53.293Z</time></trkpt><trkpt lat="43.6796985" lon="11.2160297"><ele>181.2</ele><time>2026-04-19T09:06:55.297Z</time></trkpt><trkpt lat="43.6796113" lon="11.2159147"><ele>179.0</ele><time>2026-04-19T09:06:57.3Z</time></trkpt><trkpt lat="43.6795229" lon="11.2158282"><ele>179.00000000000003</ele><time>2026-04-19T09:06:59.292Z</time></trkpt><trkpt lat="43.6794548" lon="11.2157981"><ele>179.0</ele><time>2026-04-19T09:07:01.305Z</time></trkpt><trkpt lat="43.6793811" lon="11.215785"><ele>179.0</ele><time>2026-04-19T09:07:05.3Z</time></trkpt><trkpt lat="43.6793298" lon="11.2158465"><ele>179.0</ele><time>2026-04-19T09:07:08.289Z</time></trkpt><trkpt lat="43.679289" lon="11.2159129"><ele>179.0</ele><time>2026-04-19T09:07:10.3Z</time></trkpt><trkpt lat="43.6792374" lon="11.2159641"><ele>179.00000000000003</ele><time>2026-04-19T09:07:12.3Z</time></trkpt><trkpt lat="43.6791757" lon="11.2159354"><ele>179.0</ele><time>2026-04-19T09:07:14.297Z</time></trkpt><trkpt lat="43.679156" lon="11.2158436"><ele>178.79999999999998</ele><time>2026-04-19T09:07:16.297Z</time></trkpt><trkpt lat="43.6791235" lon="11.2156858"><ele>178.6</ele><time>2026-04-19T09:07:18.289Z</time></trkpt><trkpt lat="43.679111" lon="11.2155909"><ele>178.4</ele><time>2026-04-19T09:07:19.29Z</time></trkpt><trkpt lat="43.6790704" lon="11.215447"><ele>178.2</ele><time>2026-04-19T09:07:21.307Z</time></trkpt><trkpt lat="43.6790359" lon="11.2153094"><ele>178.0</ele><time>2026-04-19T09:07:23.295Z</time></trkpt><trkpt lat="43.6789945" lon="11.2151773"><ele>175.5</ele><time>2026-04-19T09:07:25.295Z</time></trkpt><trkpt lat="43.678957" lon="11.2151056"><ele>173.0</ele><time>2026-04-19T09:07:26.297Z</time></trkpt><trkpt lat="43.6789145" lon="11.2150412"><ele>170.5</ele><time>2026-04-19T09:07:27.281Z</time></trkpt><trkpt lat="43.6788661" lon="11.2149743"><ele>168.0</ele><time>2026-04-19T09:07:28.289Z</time></trkpt><trkpt lat="43.6787939" lon="11.2148539"><ele>165.5</ele><time>2026-04-19T09:07:30.289Z</time></trkpt><trkpt lat="43.6787344" lon="11.2147372"><ele>163.0</ele><time>2026-04-19T09:07:32.282Z</time></trkpt><trkpt lat="43.6786744" lon="11.2146315"><ele>161.16666666666669</ele><time>2026-04-19T09:07:34.286Z</time></trkpt><trkpt lat="43.6786127" lon="11.2145628"><ele>159.33333333333334</ele><time>2026-04-19T09:07:36.296Z</time></trkpt><trkpt lat="43.6785671" lon="11.2144881"><ele>157.5</ele><time>2026-04-19T09:07:42.299Z</time></trkpt><trkpt lat="43.6784884" lon="11.2143993"><ele>155.66666666666666</ele><time>2026-04-19T09:07:44.294Z</time></trkpt><trkpt lat="43.6784299" lon="11.2143627"><ele>153.83333333333331</ele><time>2026-04-19T09:07:45.296Z</time></trkpt><trkpt lat="43.6783628" lon="11.2143593"><ele>152.0</ele><time>2026-04-19T09:07:46.287Z</time></trkpt><trkpt lat="43.6782952" lon="11.2143686"><ele>151.66666666666666</ele><time>2026-04-19T09:07:47.303Z</time></trkpt><trkpt lat="43.6782279" lon="11.2143871"><ele>151.33333333333331</ele><time>2026-04-19T09:07:48.307Z</time></trkpt><trkpt lat="43.6781561" lon="11.2144082"><ele>151.0</ele><time>2026-04-19T09:07:49.298Z</time></trkpt><trkpt lat="43.6780784" lon="11.2144272"><ele>150.66666666666666</ele><time>2026-04-19T09:07:50.294Z</time></trkpt><trkpt lat="43.6780052" lon="11.2144385"><ele>150.33333333333334</ele><time>2026-04-19T09:07:51.307Z</time></trkpt><trkpt lat="43.6779181" lon="11.2144593"><ele>150.0</ele><time>2026-04-19T09:07:52.297Z</time></trkpt><trkpt lat="43.6778371" lon="11.2144808"><ele>148.0</ele><time>2026-04-19T09:07:53.302Z</time></trkpt><trkpt lat="43.6777511" lon="11.2145202"><ele>146.0</ele><time>2026-04-19T09:07:54.287Z</time></trkpt><trkpt lat="43.6776672" lon="11.2145536"><ele>144.0</ele><time>2026-04-19T09:07:55.293Z</time></trkpt><trkpt lat="43.6775848" lon="11.2145844"><ele>142.0</ele><time>2026-04-19T09:07:56.302Z</time></trkpt><trkpt lat="43.6775034" lon="11.2146259"><ele>140.0</ele><time>2026-04-19T09:07:57.296Z</time></trkpt><trkpt lat="43.6774257" lon="11.2146732"><ele>138.0</ele><time>2026-04-19T09:07:58.296Z</time></trkpt><trkpt lat="43.6773479" lon="11.2147259"><ele>138.0</ele><time>2026-04-19T09:07:59.302Z</time></trkpt><trkpt lat="43.6772697" lon="11.2147792"><ele>138.0</ele><time>2026-04-19T09:08:00.301Z</time></trkpt><trkpt lat="43.6771955" lon="11.2148402"><ele>138.0</ele><time>2026-04-19T09:08:01.305Z</time></trkpt><trkpt lat="43.6771184" lon="11.2149018"><ele>138.0</ele><time>2026-04-19T09:08:02.293Z</time></trkpt><trkpt lat="43.6770374" lon="11.2149565"><ele>138.0</ele><time>2026-04-19T09:08:03.293Z</time></trkpt><trkpt lat="43.6769545" lon="11.2150103"><ele>138.0</ele><time>2026-04-19T09:08:04.302Z</time></trkpt><trkpt lat="43.6768877" lon="11.2150609"><ele>135.71428571428572</ele><time>2026-04-19T09:08:05.288Z</time></trkpt><trkpt lat="43.6768208" lon="11.2151277"><ele>133.42857142857144</ele><time>2026-04-19T09:08:06.306Z</time></trkpt><trkpt lat="43.6767653" lon="11.2151941"><ele>131.14285714285714</ele><time>2026-04-19T09:08:07.285Z</time></trkpt><trkpt lat="43.6767226" lon="11.2152698"><ele>128.85714285714286</ele><time>2026-04-19T09:08:08.297Z</time></trkpt><trkpt lat="43.676692" lon="11.215359"><ele>126.57142857142857</ele><time>2026-04-19T09:08:09.3Z</time></trkpt><trkpt lat="43.6766619" lon="11.2154492"><ele>124.28571428571428</ele><time>2026-04-19T09:08:10.309Z</time></trkpt><trkpt lat="43.6766309" lon="11.2155453"><ele>121.99999999999999</ele><time>2026-04-19T09:08:11.302Z</time></trkpt><trkpt lat="43.6765953" lon="11.2156356"><ele>123.8</ele><time>2026-04-19T09:08:12.3Z</time></trkpt><trkpt lat="43.6765627" lon="11.2157235"><ele>125.6</ele><time>2026-04-19T09:08:13.303Z</time></trkpt><trkpt lat="43.6765306" lon="11.2158061"><ele>127.39999999999999</ele><time>2026-04-19T09:08:14.294Z</time></trkpt><trkpt lat="43.6764494" lon="11.2159377"><ele>129.2</ele><time>2026-04-19T09:08:16.292Z</time></trkpt><trkpt lat="43.6763305" lon="11.2159872"><ele>131.0</ele><time>2026-04-19T09:08:18.285Z</time></trkpt><trkpt lat="43.6762081" lon="11.215983"><ele>128.2</ele><time>2026-04-19T09:08:20.282Z</time></trkpt><trkpt lat="43.6760928" lon="11.2160048"><ele>125.39999999999999</ele><time>2026-04-19T09:08:22.288Z</time></trkpt><trkpt lat="43.6759921" lon="11.2160124"><ele>122.6</ele><time>2026-04-19T09:08:24.284Z</time></trkpt><trkpt lat="43.6758844" lon="11.2159196"><ele>119.8</ele><time>2026-04-19T09:08:26.28Z</time></trkpt><trkpt lat="43.6758282" lon="11.2158704"><ele>117.0</ele><time>2026-04-19T09:08:27.285Z</time></trkpt><trkpt lat="43.6757761" lon="11.2158212"><ele>117.0</ele><time>2026-04-19T09:08:28.285Z</time></trkpt><trkpt lat="43.6756638" lon="11.2157847"><ele>116.99999999999999</ele><time>2026-04-19T09:08:30.292Z</time></trkpt><trkpt lat="43.6755369" lon="11.215801"><ele>116.99999999999999</ele><time>2026-04-19T09:08:32.28Z</time></trkpt><trkpt lat="43.6754617" lon="11.2158301"><ele>117.0</ele><time>2026-04-19T09:08:33.285Z</time></trkpt><trkpt lat="43.6753816" lon="11.2158756"><ele>117.0</ele><time>2026-04-19T09:08:34.274Z</time></trkpt><trkpt lat="43.6752962" lon="11.2159092"><ele>115.66666666666667</ele><time>2026-04-19T09:08:35.285Z</time></trkpt><trkpt lat="43.6752215" lon="11.2159477"><ele>114.33333333333334</ele><time>2026-04-19T09:08:36.282Z</time></trkpt><trkpt lat="43.675137" lon="11.215977"><ele>113.0</ele><time>2026-04-19T09:08:37.281Z</time></trkpt><trkpt lat="43.6750628" lon="11.2160064"><ele>111.66666666666667</ele><time>2026-04-19T09:08:38.283Z</time></trkpt><trkpt lat="43.6749533" lon="11.2160389"><ele>110.33333333333334</ele><time>2026-04-19T09:08:40.297Z</time></trkpt><trkpt lat="43.6748877" lon="11.2160644"><ele>109.0</ele><time>2026-04-19T09:08:43.291Z</time></trkpt><trkpt lat="43.6748138" lon="11.2160592"><ele>109.00000000000001</ele><time>2026-04-19T09:09:14.29Z</time></trkpt><trkpt lat="43.6747402" lon="11.216059"><ele>109.0</ele><time>2026-04-19T09:09:16.29Z</time></trkpt><trkpt lat="43.6746644" lon="11.2160345"><ele>109.0</ele><time>2026-04-19T09:09:18.292Z</time></trkpt><trkpt lat="43.6746087" lon="11.2159877"><ele>109.0</ele><time>2026-04-19T09:09:26.279Z</time></trkpt><trkpt lat="43.6745161" lon="11.2159556"><ele>109.00000000000001</ele><time>2026-04-19T09:09:28.284Z</time></trkpt><trkpt lat="43.6744467" lon="11.2159332"><ele>109.0</ele><time>2026-04-19T09:09:29.269Z</time></trkpt><trkpt lat="43.6743329" lon="11.2159013"><ele>108.0</ele><time>2026-04-19T09:09:31.217Z</time></trkpt><trkpt lat="43.6742215" lon="11.2158652"><ele>107.0</ele><time>2026-04-19T09:09:32.218Z</time></trkpt><trkpt lat="43.6740946" lon="11.215819"><ele>106.0</ele><time>2026-04-19T09:09:33.217Z</time></trkpt><trkpt lat="43.6739579" lon="11.2157497"><ele>105.0</ele><time>2026-04-19T09:09:34.218Z</time></trkpt><trkpt lat="43.6738228" lon="11.2156545"><ele>104.33333333333334</ele><time>2026-04-19T09:09:35.21Z</time></trkpt><trkpt lat="43.6736924" lon="11.2155485"><ele>103.66666666666667</ele><time>2026-04-19T09:09:36.201Z</time></trkpt><trkpt lat="43.6735823" lon="11.2154066"><ele>103.0</ele><time>2026-04-19T09:09:37.211Z</time></trkpt><trkpt lat="43.6734702" lon="11.2152511"><ele>103.5</ele><time>2026-04-19T09:09:38.215Z</time></trkpt><trkpt lat="43.6733612" lon="11.2151063"><ele>104.0</ele><time>2026-04-19T09:09:39.216Z</time></trkpt><trkpt lat="43.6732644" lon="11.2149641"><ele>104.5</ele><time>2026-04-19T09:09:40.22Z</time></trkpt><trkpt lat="43.6732002" lon="11.2148253"><ele>105.0</ele><time>2026-04-19T09:09:41.219Z</time></trkpt><trkpt lat="43.6731464" lon="11.2147056"><ele>105.0</ele><time>2026-04-19T09:09:42.221Z</time></trkpt><trkpt lat="43.6730786" lon="11.2145938"><ele>105.0</ele><time>2026-04-19T09:09:43.212Z</time></trkpt><trkpt lat="43.6729956" lon="11.2144876"><ele>105.0</ele><time>2026-04-19T09:09:44.219Z</time></trkpt><trkpt lat="43.6729093" lon="11.2143928"><ele>105.0</ele><time>2026-04-19T09:09:45.209Z</time></trkpt><trkpt lat="43.6728084" lon="11.2142997"><ele>105.8</ele><time>2026-04-19T09:09:46.284Z</time></trkpt><trkpt lat="43.6727039" lon="11.2142249"><ele>106.6</ele><time>2026-04-19T09:09:47.222Z</time></trkpt><trkpt lat="43.6726124" lon="11.2141552"><ele>107.4</ele><time>2026-04-19T09:09:48.216Z</time></trkpt><trkpt lat="43.672516" lon="11.2140914"><ele>108.2</ele><time>2026-04-19T09:09:49.211Z</time></trkpt><trkpt lat="43.6724166" lon="11.2140441"><ele>109.0</ele><time>2026-04-19T09:09:50.21Z</time></trkpt><trkpt lat="43.6723179" lon="11.2140065"><ele>109.0</ele><time>2026-04-19T09:09:51.214Z</time></trkpt><trkpt lat="43.672219" lon="11.2139984"><ele>109.0</ele><time>2026-04-19T09:09:52.231Z</time></trkpt><trkpt lat="43.6721115" lon="11.2140102"><ele>109.0</ele><time>2026-04-19T09:09:53.214Z</time></trkpt><trkpt lat="43.6720017" lon="11.2140474"><ele>109.0</ele><time>2026-04-19T09:09:54.211Z</time></trkpt><trkpt lat="43.6718891" lon="11.2140789"><ele>109.0</ele><time>2026-04-19T09:09:55.219Z</time></trkpt><trkpt lat="43.6717684" lon="11.2141129"><ele>110.25</ele><time>2026-04-19T09:09:56.211Z</time></trkpt><trkpt lat="43.6716459" lon="11.2141375"><ele>111.5</ele><time>2026-04-19T09:09:57.213Z</time></trkpt><trkpt lat="43.6715326" lon="11.2141703"><ele>112.75</ele><time>2026-04-19T09:09:58.218Z</time></trkpt><trkpt lat="43.671423" lon="11.2142021"><ele>114.0</ele><time>2026-04-19T09:09:59.212Z</time></trkpt><trkpt lat="43.671306" lon="11.2142195"><ele>114.0</ele><time>2026-04-19T09:10:00.214Z</time></trkpt><trkpt lat="43.6711718" lon="11.214233"><ele>114.0</ele><time>2026-04-19T09:10:01.209Z</time></trkpt><trkpt lat="43.6710363" lon="11.2142434"><ele>114.0</ele><time>2026-04-19T09:10:02.21Z</time></trkpt><trkpt lat="43.6708945" lon="11.2142528"><ele>114.0</ele><time>2026-04-19T09:10:03.218Z</time></trkpt><trkpt lat="43.6707374" lon="11.214262"><ele>113.0</ele><time>2026-04-19T09:10:04.216Z</time></trkpt><trkpt lat="43.6705933" lon="11.2142861"><ele>112.0</ele><time>2026-04-19T09:10:05.216Z</time></trkpt><trkpt lat="43.6704383" lon="11.2143064"><ele>111.0</ele><time>2026-04-19T09:10:06.211Z</time></trkpt><trkpt lat="43.6702911" lon="11.2143285"><ele>110.0</ele><time>2026-04-19T09:10:07.213Z</time></trkpt><trkpt lat="43.6701411" lon="11.2143575"><ele>109.66666666666666</ele><time>2026-04-19T09:10:08.207Z</time></trkpt><trkpt lat="43.6699942" lon="11.2143865"><ele>109.33333333333334</ele><time>2026-04-19T09:10:09.221Z</time></trkpt><trkpt lat="43.6698423" lon="11.2144185"><ele>109.0</ele><time>2026-04-19T09:10:10.215Z</time></trkpt><trkpt lat="43.6696879" lon="11.2144525"><ele>109.0</ele><time>2026-04-19T09:10:11.217Z</time></trkpt><trkpt lat="43.6695312" lon="11.2144897"><ele>109.0</ele><time>2026-04-19T09:10:12.208Z</time></trkpt><trkpt lat="43.6693688" lon="11.2145222"><ele>109.0</ele><time>2026-04-19T09:10:13.219Z</time></trkpt><trkpt lat="43.6692131" lon="11.2145668"><ele>110.33333333333334</ele><time>2026-04-19T09:10:14.209Z</time></trkpt><trkpt lat="43.6690569" lon="11.2146077"><ele>111.66666666666666</ele><time>2026-04-19T09:10:15.217Z</time></trkpt><trkpt lat="43.6689012" lon="11.2146462"><ele>113.0</ele><time>2026-04-19T09:10:16.21Z</time></trkpt><trkpt lat="43.6687436" lon="11.2146841"><ele>112.0</ele><time>2026-04-19T09:10:17.223Z</time></trkpt><trkpt lat="43.6685856" lon="11.2147219"><ele>111.0</ele><time>2026-04-19T09:10:18.231Z</time></trkpt><trkpt lat="43.6684332" lon="11.2147605"><ele>110.0</ele><time>2026-04-19T09:10:19.218Z</time></trkpt><trkpt lat="43.668286" lon="11.2148039"><ele>110.75</ele><time>2026-04-19T09:10:20.208Z</time></trkpt><trkpt lat="43.6681512" lon="11.214865"><ele>111.5</ele><time>2026-04-19T09:10:21.222Z</time></trkpt><trkpt lat="43.6680223" lon="11.214957"><ele>112.25</ele><time>2026-04-19T09:10:22.223Z</time></trkpt><trkpt lat="43.6679072" lon="11.2150927"><ele>113.0</ele><time>2026-04-19T09:10:23.276Z</time></trkpt><trkpt lat="43.6677988" lon="11.2152228"><ele>113.5</ele><time>2026-04-19T09:10:24.214Z</time></trkpt><trkpt lat="43.6677043" lon="11.2153805"><ele>114.0</ele><time>2026-04-19T09:10:25.21Z</time></trkpt><trkpt lat="43.6676228" lon="11.2155401"><ele>114.5</ele><time>2026-04-19T09:10:26.209Z</time></trkpt><trkpt lat="43.667536" lon="11.2157096"><ele>115.0</ele><time>2026-04-19T09:10:27.208Z</time></trkpt><trkpt lat="43.6674454" lon="11.2158868"><ele>115.0</ele><time>2026-04-19T09:10:28.231Z</time></trkpt><trkpt lat="43.6673481" lon="11.2160613"><ele>115.0</ele><time>2026-04-19T09:10:29.212Z</time></trkpt><trkpt lat="43.6672479" lon="11.2162287"><ele>115.0</ele><time>2026-04-19T09:10:30.209Z</time></trkpt><trkpt lat="43.6671529" lon="11.2164023"><ele>114.5</ele><time>2026-04-19T09:10:31.22Z</time></trkpt><trkpt lat="43.6670736" lon="11.2165658"><ele>114.0</ele><time>2026-04-19T09:10:32.217Z</time></trkpt><trkpt lat="43.6669932" lon="11.216729"><ele>113.5</ele><time>2026-04-19T09:10:33.219Z</time></trkpt><trkpt lat="43.6669263" lon="11.2168932"><ele>113.0</ele><time>2026-04-19T09:10:34.224Z</time></trkpt><trkpt lat="43.6668803" lon="11.217063"><ele>113.0</ele><time>2026-04-19T09:10:35.225Z</time></trkpt><trkpt lat="43.6668533" lon="11.2172355"><ele>113.00000000000001</ele><time>2026-04-19T09:10:36.223Z</time></trkpt><trkpt lat="43.6668337" lon="11.2173781"><ele>113.00000000000001</ele><time>2026-04-19T09:10:37.219Z</time></trkpt><trkpt lat="43.6668169" lon="11.2175073"><ele>113.0</ele><time>2026-04-19T09:10:38.214Z</time></trkpt><trkpt lat="43.6667974" lon="11.2176321"><ele>113.0</ele><time>2026-04-19T09:10:39.216Z</time></trkpt><trkpt lat="43.66679" lon="11.2177795"><ele>112.83333333333333</ele><time>2026-04-19T09:10:40.214Z</time></trkpt><trkpt lat="43.6667731" lon="11.2179088"><ele>112.66666666666666</ele><time>2026-04-19T09:10:41.218Z</time></trkpt><trkpt lat="43.6667615" lon="11.2180266"><ele>112.5</ele><time>2026-04-19T09:10:42.217Z</time></trkpt><trkpt lat="43.6667027" lon="11.2181512"><ele>112.33333333333334</ele><time>2026-04-19T09:10:44.259Z</time></trkpt><trkpt lat="43.6666368" lon="11.2181318"><ele>112.16666666666667</ele><time>2026-04-19T09:10:45.226Z</time></trkpt><trkpt lat="43.6665789" lon="11.2180794"><ele>112.0</ele><time>2026-04-19T09:10:46.217Z</time></trkpt><trkpt lat="43.6665191" lon="11.2180126"><ele>112.00000000000001</ele><time>2026-04-19T09:10:47.218Z</time></trkpt><trkpt lat="43.6664548" lon="11.2179634"><ele>112.0</ele><time>2026-04-19T09:10:48.221Z</time></trkpt><trkpt lat="43.6663885" lon="11.2179045"><ele>112.0</ele><time>2026-04-19T09:10:49.219Z</time></trkpt><trkpt lat="43.6663184" lon="11.2178289"><ele>112.0</ele><time>2026-04-19T09:10:50.227Z</time></trkpt><trkpt lat="43.6662431" lon="11.2177472"><ele>112.00000000000001</ele><time>2026-04-19T09:10:51.213Z</time></trkpt><trkpt lat="43.6661468" lon="11.2176904"><ele>112.0</ele><time>2026-04-19T09:10:52.211Z</time></trkpt><trkpt lat="43.6660396" lon="11.2176486"><ele>111.5</ele><time>2026-04-19T09:10:53.207Z</time></trkpt><trkpt lat="43.6659302" lon="11.2176035"><ele>111.0</ele><time>2026-04-19T09:10:54.222Z</time></trkpt><trkpt lat="43.6658163" lon="11.2175543"><ele>110.5</ele><time>2026-04-19T09:10:55.216Z</time></trkpt><trkpt lat="43.6656994" lon="11.2175103"><ele>110.0</ele><time>2026-04-19T09:10:56.227Z</time></trkpt><trkpt lat="43.665585" lon="11.2174674"><ele>110.0</ele><time>2026-04-19T09:10:57.216Z</time></trkpt><trkpt lat="43.665474" lon="11.2174267"><ele>110.0</ele><time>2026-04-19T09:10:58.221Z</time></trkpt><trkpt lat="43.6653677" lon="11.2173884"><ele>110.0</ele><time>2026-04-19T09:10:59.205Z</time></trkpt><trkpt lat="43.6652709" lon="11.217351"><ele>110.0</ele><time>2026-04-19T09:11:00.218Z</time></trkpt><trkpt lat="43.6651829" lon="11.2173242"><ele>110.0</ele><time>2026-04-19T09:11:01.211Z</time></trkpt><trkpt lat="43.6651" lon="11.2172983"><ele>110.83333333333333</ele><time>2026-04-19T09:11:02.213Z</time></trkpt><trkpt lat="43.6650174" lon="11.2172744"><ele>111.66666666666666</ele><time>2026-04-19T09:11:03.224Z</time></trkpt><trkpt lat="43.6649375" lon="11.217255"><ele>112.5</ele><time>2026-04-19T09:11:04.211Z</time></trkpt><trkpt lat="43.6648645" lon="11.2172319"><ele>113.33333333333334</ele><time>2026-04-19T09:11:05.212Z</time></trkpt><trkpt lat="43.6648306" lon="11.2171497"><ele>114.16666666666667</ele><time>2026-04-19T09:11:07.238Z</time></trkpt><trkpt lat="43.6648362" lon="11.2170521"><ele>115.0</ele><time>2026-04-19T09:11:09.216Z</time></trkpt><trkpt lat="43.6648712" lon="11.2169232"><ele>115.00000000000001</ele><time>2026-04-19T09:11:11.223Z</time></trkpt><trkpt lat="43.6648786" lon="11.2168243"><ele>115.0</ele><time>2026-04-19T09:11:12.218Z</time></trkpt><trkpt lat="43.6648831" lon="11.2167305"><ele>115.0</ele><time>2026-04-19T09:11:13.213Z</time></trkpt><trkpt lat="43.6648905" lon="11.2166049"><ele>115.0</ele><time>2026-04-19T09:11:15.216Z</time></trkpt><trkpt lat="43.6648015" lon="11.2165705"><ele>115.00000000000001</ele><time>2026-04-19T09:11:28.217Z</time></trkpt><trkpt lat="43.6647391" lon="11.2165433"><ele>115.0</ele><time>2026-04-19T09:11:29.213Z</time></trkpt><trkpt lat="43.6645928" lon="11.216543"><ele>115.0</ele><time>2026-04-19T09:11:31.207Z</time></trkpt><trkpt lat="43.6644892" lon="11.2165577"><ele>115.0</ele><time>2026-04-19T09:11:32.211Z</time></trkpt><trkpt lat="43.6643937" lon="11.2165757"><ele>115.0</ele><time>2026-04-19T09:11:33.211Z</time></trkpt><trkpt lat="43.6642876" lon="11.216585"><ele>115.0</ele><time>2026-04-19T09:11:34.207Z</time></trkpt><trkpt lat="43.6641731" lon="11.2165698"><ele>115.0</ele><time>2026-04-19T09:11:35.231Z</time></trkpt><trkpt lat="43.6640673" lon="11.2165594"><ele>116.4</ele><time>2026-04-19T09:11:36.206Z</time></trkpt><trkpt lat="43.6639609" lon="11.2165339"><ele>117.8</ele><time>2026-04-19T09:11:37.204Z</time></trkpt><trkpt lat="43.6638589" lon="11.2165062"><ele>119.19999999999999</ele><time>2026-04-19T09:11:38.208Z</time></trkpt><trkpt lat="43.6637537" lon="11.2164841"><ele>120.6</ele><time>2026-04-19T09:11:39.201Z</time></trkpt><trkpt lat="43.663643" lon="11.2164658"><ele>122.0</ele><time>2026-04-19T09:11:40.218Z</time></trkpt><trkpt lat="43.6635305" lon="11.2164599"><ele>123.39999999999999</ele><time>2026-04-19T09:11:41.21Z</time></trkpt><trkpt lat="43.6634178" lon="11.2164591"><ele>124.79999999999998</ele><time>2026-04-19T09:11:42.219Z</time></trkpt><trkpt lat="43.6633055" lon="11.2164698"><ele>126.2</ele><time>2026-04-19T09:11:43.234Z</time></trkpt><trkpt lat="43.6631967" lon="11.2164931"><ele>127.6</ele><time>2026-04-19T09:11:44.209Z</time></trkpt><trkpt lat="43.6630919" lon="11.2165143"><ele>129.0</ele><time>2026-04-19T09:11:45.216Z</time></trkpt><trkpt lat="43.6629967" lon="11.2165479"><ele>129.0</ele><time>2026-04-19T09:11:46.21Z</time></trkpt><trkpt lat="43.6629022" lon="11.2165667"><ele>129.0</ele><time>2026-04-19T09:11:47.216Z</time></trkpt><trkpt lat="43.6628277" lon="11.2165953"><ele>129.0</ele><time>2026-04-19T09:11:48.215Z</time></trkpt><trkpt lat="43.6627264" lon="11.2166116"><ele>129.0</ele><time>2026-04-19T09:11:50.21Z</time></trkpt><trkpt lat="43.6626546" lon="11.2165886"><ele>129.0</ele><time>2026-04-19T09:11:52.21Z</time></trkpt><trkpt lat="43.6626022" lon="11.2165032"><ele>129.0</ele><time>2026-04-19T09:11:55.212Z</time></trkpt><trkpt lat="43.662613" lon="11.2164173"><ele>132.6</ele><time>2026-04-19T09:11:57.219Z</time></trkpt><trkpt lat="43.6626389" lon="11.2162495"><ele>136.2</ele><time>2026-04-19T09:11:59.23Z</time></trkpt><trkpt lat="43.6626604" lon="11.2161239"><ele>139.79999999999998</ele><time>2026-04-19T09:12:00.211Z</time></trkpt><trkpt lat="43.6626752" lon="11.2159947"><ele>143.4</ele><time>2026-04-19T09:12:01.22Z</time></trkpt><trkpt lat="43.6626867" lon="11.215856"><ele>147.0</ele><time>2026-04-19T09:12:02.211Z</time></trkpt><trkpt lat="43.662701" lon="11.2157121"><ele>148.2</ele><time>2026-04-19T09:12:03.225Z</time></trkpt><trkpt lat="43.6627142" lon="11.2155681"><ele>149.39999999999998</ele><time>2026-04-19T09:12:04.201Z</time></trkpt><trkpt lat="43.6627289" lon="11.215417"><ele>150.60000000000002</ele><time>2026-04-19T09:12:05.211Z</time></trkpt><trkpt lat="43.6627243" lon="11.2152728"><ele>151.8</ele><time>2026-04-19T09:12:06.23Z</time></trkpt><trkpt lat="43.6627162" lon="11.2151352"><ele>153.0</ele><time>2026-04-19T09:12:07.22Z</time></trkpt><trkpt lat="43.6626998" lon="11.2149832"><ele>153.0</ele><time>2026-04-19T09:12:08.202Z</time></trkpt><trkpt lat="43.6626793" lon="11.2148244"><ele>153.0</ele><time>2026-04-19T09:12:09.207Z</time></trkpt><trkpt lat="43.6626618" lon="11.214667"><ele>153.0</ele><time>2026-04-19T09:12:10.213Z</time></trkpt><trkpt lat="43.662644" lon="11.2145254"><ele>153.0</ele><time>2026-04-19T09:12:11.231Z</time></trkpt><trkpt lat="43.6626254" lon="11.2144187"><ele>153.0</ele><time>2026-04-19T09:12:12.22Z</time></trkpt><trkpt lat="43.6625887" lon="11.2142619"><ele>154.83333333333334</ele><time>2026-04-19T09:12:14.205Z</time></trkpt><trkpt lat="43.6625196" lon="11.2141651"><ele>156.66666666666666</ele><time>2026-04-19T09:12:16.21Z</time></trkpt><trkpt lat="43.6624395" lon="11.2141244"><ele>158.5</ele><time>2026-04-19T09:12:18.213Z</time></trkpt><trkpt lat="43.6623431" lon="11.2141326"><ele>160.33333333333331</ele><time>2026-04-19T09:12:20.217Z</time></trkpt><trkpt lat="43.6622758" lon="11.2141378"><ele>162.16666666666666</ele><time>2026-04-19T09:12:21.212Z</time></trkpt><trkpt lat="43.6622095" lon="11.2141322"><ele>164.0</ele><time>2026-04-19T09:12:22.21Z</time></trkpt><trkpt lat="43.6621422" lon="11.2141239"><ele>164.0</ele><time>2026-04-19T09:12:23.215Z</time></trkpt><trkpt lat="43.6620306" lon="11.2141351"><ele>164.0</ele><time>2026-04-19T09:12:25.219Z</time></trkpt><trkpt lat="43.6619357" lon="11.2141555"><ele>164.0</ele><time>2026-04-19T09:12:27.211Z</time></trkpt><trkpt lat="43.661828" lon="11.2142213"><ele>164.0</ele><time>2026-04-19T09:12:29.222Z</time></trkpt><trkpt lat="43.6617385" lon="11.2142693"><ele>164.0</ele><time>2026-04-19T09:12:31.208Z</time></trkpt><trkpt lat="43.6616853" lon="11.2143178"><ele>164.66666666666666</ele><time>2026-04-19T09:12:32.217Z</time></trkpt><trkpt lat="43.6616386" lon="11.2143824"><ele>165.33333333333331</ele><time>2026-04-19T09:12:33.206Z</time></trkpt><trkpt lat="43.6615842" lon="11.2144677"><ele>166.0</ele><time>2026-04-19T09:12:34.221Z</time></trkpt><trkpt lat="43.6615348" lon="11.2145384"><ele>166.66666666666666</ele><time>2026-04-19T09:12:35.206Z</time></trkpt><trkpt lat="43.6614878" lon="11.2146073"><ele>167.33333333333334</ele><time>2026-04-19T09:12:36.211Z</time></trkpt><trkpt lat="43.6614041" lon="11.2147256"><ele>168.0</ele><time>2026-04-19T09:12:38.208Z</time></trkpt><trkpt lat="43.6613016" lon="11.2148249"><ele>168.0</ele><time>2026-04-19T09:12:40.209Z</time></trkpt><trkpt lat="43.6612327" lon="11.2148528"><ele>168.0</ele><time>2026-04-19T09:12:41.211Z</time></trkpt><trkpt lat="43.6611552" lon="11.2148575"><ele>168.0</ele><time>2026-04-19T09:12:42.219Z</time></trkpt><trkpt lat="43.661061" lon="11.2148755"><ele>168.0</ele><time>2026-04-19T09:12:43.209Z</time></trkpt><trkpt lat="43.6609574" lon="11.2148978"><ele>168.0</ele><time>2026-04-19T09:12:44.229Z</time></trkpt><trkpt lat="43.6608399" lon="11.2149095"><ele>170.75</ele><time>2026-04-19T09:12:45.226Z</time></trkpt><trkpt lat="43.6607154" lon="11.2148993"><ele>173.5</ele><time>2026-04-19T09:12:46.208Z</time></trkpt><trkpt lat="43.6606006" lon="11.2148875"><ele>176.25</ele><time>2026-04-19T09:12:47.22Z</time></trkpt><trkpt lat="43.6604918" lon="11.2149001"><ele>179.0</ele><time>2026-04-19T09:12:48.22Z</time></trkpt><trkpt lat="43.6603888" lon="11.2149077"><ele>179.0</ele><time>2026-04-19T09:12:49.218Z</time></trkpt><trkpt lat="43.6602865" lon="11.2149029"><ele>179.0</ele><time>2026-04-19T09:12:50.221Z</time></trkpt><trkpt lat="43.6601843" lon="11.2149051"><ele>179.0</ele><time>2026-04-19T09:12:51.221Z</time></trkpt><trkpt lat="43.660097" lon="11.2149082"><ele>179.0</ele><time>2026-04-19T09:12:52.225Z</time></trkpt><trkpt lat="43.6600195" lon="11.214903"><ele>179.0</ele><time>2026-04-19T09:12:53.228Z</time></trkpt><trkpt lat="43.659914" lon="11.2149077"><ele>178.83333333333331</ele><time>2026-04-19T09:12:55.227Z</time></trkpt><trkpt lat="43.6598392" lon="11.2149024"><ele>178.66666666666666</ele><time>2026-04-19T09:12:58.231Z</time></trkpt><trkpt lat="43.6597877" lon="11.2148105"><ele>178.5</ele><time>2026-04-19T09:13:01.205Z</time></trkpt><trkpt lat="43.6597404" lon="11.2147426"><ele>178.33333333333334</ele><time>2026-04-19T09:13:03.228Z</time></trkpt><trkpt lat="43.65967" lon="11.2146606"><ele>178.16666666666669</ele><time>2026-04-19T09:13:05.212Z</time></trkpt><trkpt lat="43.6595583" lon="11.2145787"><ele>178.0</ele><time>2026-04-19T09:13:07.221Z</time></trkpt><trkpt lat="43.6594442" lon="11.2145231"><ele>179.5</ele><time>2026-04-19T09:13:09.213Z</time></trkpt><trkpt lat="43.6593835" lon="11.2144881"><ele>181.0</ele><time>2026-04-19T09:13:10.21Z</time></trkpt><trkpt lat="43.6593111" lon="11.2144405"><ele>182.5</ele><time>2026-04-19T09:13:11.216Z</time></trkpt><trkpt lat="43.6592434" lon="11.2143825"><ele>184.0</ele><time>2026-04-19T09:13:12.211Z</time></trkpt><trkpt lat="43.6591881" lon="11.2143275"><ele>185.5</ele><time>2026-04-19T09:13:13.211Z</time></trkpt><trkpt lat="43.6591146" lon="11.2142276"><ele>187.0</ele><time>2026-04-19T09:13:15.217Z</time></trkpt><trkpt lat="43.6590377" lon="11.2141157"><ele>187.0</ele><time>2026-04-19T09:13:17.208Z</time></trkpt><trkpt lat="43.6589783" lon="11.2139982"><ele>187.0</ele><time>2026-04-19T09:13:19.209Z</time></trkpt><trkpt lat="43.6589243" lon="11.2138816"><ele>187.0</ele><time>2026-04-19T09:13:21.215Z</time></trkpt><trkpt lat="43.6588802" lon="11.2138012"><ele>187.0</ele><time>2026-04-19T09:13:23.218Z</time></trkpt><trkpt lat="43.6588353" lon="11.2137377"><ele>187.0</ele><time>2026-04-19T09:13:29.201Z</time></trkpt><trkpt lat="43.6587819" lon="11.2136875"><ele>187.0</ele><time>2026-04-19T09:13:49.205Z</time></trkpt><trkpt lat="43.6587429" lon="11.2136087"><ele>187.83333333333334</ele><time>2026-04-19T09:13:51.217Z</time></trkpt><trkpt lat="43.6587298" lon="11.213508"><ele>188.66666666666669</ele><time>2026-04-19T09:13:53.21Z</time></trkpt><trkpt lat="43.6588063" lon="11.2133838"><ele>189.5</ele><time>2026-04-19T09:13:55.202Z</time></trkpt><trkpt lat="43.658853" lon="11.2133182"><ele>190.33333333333334</ele><time>2026-04-19T09:13:56.202Z</time></trkpt><trkpt lat="43.6588955" lon="11.2132424"><ele>191.16666666666666</ele><time>2026-04-19T09:13:57.211Z</time></trkpt><trkpt lat="43.6589355" lon="11.213166"><ele>192.0</ele><time>2026-04-19T09:13:58.195Z</time></trkpt><trkpt lat="43.6589791" lon="11.2130985"><ele>192.0</ele><time>2026-04-19T09:13:59.198Z</time></trkpt><trkpt lat="43.6590242" lon="11.2129366"><ele>192.0</ele><time>2026-04-19T09:14:01.211Z</time></trkpt><trkpt lat="43.6590431" lon="11.2128523"><ele>192.0</ele><time>2026-04-19T09:14:02.193Z</time></trkpt><trkpt lat="43.6590978" lon="11.2127017"><ele>192.0</ele><time>2026-04-19T09:14:04.188Z</time></trkpt><trkpt lat="43.659132" lon="11.2126247"><ele>192.0</ele><time>2026-04-19T09:14:05.195Z</time></trkpt><trkpt lat="43.6591682" lon="11.2125212"><ele>192.0</ele><time>2026-04-19T09:14:06.189Z</time></trkpt><trkpt lat="43.6591878" lon="11.2124185"><ele>192.0</ele><time>2026-04-19T09:14:07.2Z</time></trkpt><trkpt lat="43.6592348" lon="11.212301"><ele>192.0</ele><time>2026-04-19T09:14:08.197Z</time></trkpt><trkpt lat="43.6592754" lon="11.21219"><ele>192.0</ele><time>2026-04-19T09:14:09.196Z</time></trkpt><trkpt lat="43.6593251" lon="11.2121015"><ele>192.0</ele><time>2026-04-19T09:14:10.201Z</time></trkpt><trkpt lat="43.6593696" lon="11.2120094"><ele>192.0</ele><time>2026-04-19T09:14:11.192Z</time></trkpt><trkpt lat="43.6594142" lon="11.2119322"><ele>191.0</ele><time>2026-04-19T09:14:12.189Z</time></trkpt><trkpt lat="43.6594611" lon="11.2118308"><ele>190.0</ele><time>2026-04-19T09:14:13.192Z</time></trkpt><trkpt lat="43.6594995" lon="11.2117296"><ele>189.0</ele><time>2026-04-19T09:14:14.197Z</time></trkpt><trkpt lat="43.6595387" lon="11.2116176"><ele>188.0</ele><time>2026-04-19T09:14:15.207Z</time></trkpt><trkpt lat="43.6595834" lon="11.2115378"><ele>187.0</ele><time>2026-04-19T09:14:16.186Z</time></trkpt><trkpt lat="43.6596704" lon="11.2114253"><ele>190.0</ele><time>2026-04-19T09:14:18.196Z</time></trkpt><trkpt lat="43.6597224" lon="11.2113728"><ele>193.0</ele><time>2026-04-19T09:14:19.192Z</time></trkpt><trkpt lat="43.6597838" lon="11.2113055"><ele>196.0</ele><time>2026-04-19T09:14:20.197Z</time></trkpt><trkpt lat="43.6598489" lon="11.2112445"><ele>199.0</ele><time>2026-04-19T09:14:21.199Z</time></trkpt><trkpt lat="43.6599159" lon="11.2111842"><ele>201.99999999999997</ele><time>2026-04-19T09:14:22.206Z</time></trkpt><trkpt lat="43.6599766" lon="11.2111079"><ele>205.0</ele><time>2026-04-19T09:14:23.204Z</time></trkpt><trkpt lat="43.660022" lon="11.2110374"><ele>204.99999999999997</ele><time>2026-04-19T09:14:24.196Z</time></trkpt><trkpt lat="43.6600602" lon="11.2109605"><ele>205.0</ele><time>2026-04-19T09:14:25.199Z</time></trkpt><trkpt lat="43.6600918" lon="11.2108813"><ele>205.0</ele><time>2026-04-19T09:14:26.201Z</time></trkpt><trkpt lat="43.6601258" lon="11.2108004"><ele>205.0</ele><time>2026-04-19T09:14:27.197Z</time></trkpt><trkpt lat="43.6601938" lon="11.2106549"><ele>204.99999999999997</ele><time>2026-04-19T09:14:29.2Z</time></trkpt><trkpt lat="43.66023" lon="11.2105807"><ele>205.0</ele><time>2026-04-19T09:14:30.209Z</time></trkpt><trkpt lat="43.6603003" lon="11.210488"><ele>201.6</ele><time>2026-04-19T09:14:32.204Z</time></trkpt><trkpt lat="43.6603668" lon="11.2104573"><ele>198.2</ele><time>2026-04-19T09:14:34.207Z</time></trkpt><trkpt lat="43.6605373" lon="11.2105143"><ele>194.8</ele><time>2026-04-19T09:14:39.212Z</time></trkpt><trkpt lat="43.6606113" lon="11.2105517"><ele>191.4</ele><time>2026-04-19T09:14:40.212Z</time></trkpt><trkpt lat="43.6606818" lon="11.2105911"><ele>188.0</ele><time>2026-04-19T09:14:41.206Z</time></trkpt><trkpt lat="43.6607554" lon="11.2106372"><ele>188.0</ele><time>2026-04-19T09:14:42.214Z</time></trkpt><trkpt lat="43.6608306" lon="11.2106525"><ele>188.0</ele><time>2026-04-19T09:14:43.214Z</time></trkpt><trkpt lat="43.660902" lon="11.2106674"><ele>188.0</ele><time>2026-04-19T09:14:44.208Z</time></trkpt><trkpt lat="43.6609945" lon="11.2107043"><ele>188.0</ele><time>2026-04-19T09:14:46.206Z</time></trkpt><trkpt lat="43.6610625" lon="11.2106864"><ele>188.0</ele><time>2026-04-19T09:15:19.214Z</time></trkpt><trkpt lat="43.6610003" lon="11.2107064"><ele>188.0</ele><time>2026-04-19T09:15:27.228Z</time></trkpt><trkpt lat="43.6609008" lon="11.2106431"><ele>188.0</ele><time>2026-04-19T09:15:29.208Z</time></trkpt><trkpt lat="43.6608035" lon="11.2105882"><ele>188.0</ele><time>2026-04-19T09:15:31.224Z</time></trkpt><trkpt lat="43.6606915" lon="11.2105383"><ele>188.0</ele><time>2026-04-19T09:15:33.223Z</time></trkpt><trkpt lat="43.6605991" lon="11.2104937"><ele>188.0</ele><time>2026-04-19T09:15:35.222Z</time></trkpt><trkpt lat="43.6605318" lon="11.2104675"><ele>188.0</ele><time>2026-04-19T09:15:37.212Z</time></trkpt><trkpt lat="43.660459" lon="11.2104449"><ele>188.0</ele><time>2026-04-19T09:16:05.211Z</time></trkpt><trkpt lat="43.6603915" lon="11.2104076"><ele>188.0</ele><time>2026-04-19T09:16:07.213Z</time></trkpt><trkpt lat="43.6603182" lon="11.210376"><ele>188.0</ele><time>2026-04-19T09:16:09.214Z</time></trkpt><trkpt lat="43.6602366" lon="11.2104432"><ele>188.0</ele><time>2026-04-19T09:16:11.214Z</time></trkpt><trkpt lat="43.6601468" lon="11.2105267"><ele>188.0</ele><time>2026-04-19T09:16:13.21Z</time></trkpt><trkpt lat="43.6600464" lon="11.2105918"><ele>191.4</ele><time>2026-04-19T09:16:15.229Z</time></trkpt><trkpt lat="43.6599584" lon="11.2106859"><ele>194.8</ele><time>2026-04-19T09:16:17.238Z</time></trkpt><trkpt lat="43.6598745" lon="11.2107495"><ele>198.2</ele><time>2026-04-19T09:16:19.204Z</time></trkpt><trkpt lat="43.6597852" lon="11.2107958"><ele>201.6</ele><time>2026-04-19T09:16:21.206Z</time></trkpt><trkpt lat="43.6597178" lon="11.210797"><ele>205.0</ele><time>2026-04-19T09:16:22.222Z</time></trkpt><trkpt lat="43.6596049" lon="11.2108019"><ele>204.99999999999997</ele><time>2026-04-19T09:16:24.216Z</time></trkpt><trkpt lat="43.6595186" lon="11.2108081"><ele>205.0</ele><time>2026-04-19T09:16:26.203Z</time></trkpt><trkpt lat="43.6594282" lon="11.2108133"><ele>205.0</ele><time>2026-04-19T09:16:29.2Z</time></trkpt><trkpt lat="43.6593572" lon="11.2108257"><ele>205.0</ele><time>2026-04-19T09:16:31.205Z</time></trkpt><trkpt lat="43.6592912" lon="11.21085"><ele>204.99999999999997</ele><time>2026-04-19T09:16:34.206Z</time></trkpt><trkpt lat="43.6592096" lon="11.2108745"><ele>205.0</ele><time>2026-04-19T09:16:37.207Z</time></trkpt><trkpt lat="43.6591472" lon="11.2108908"><ele>209.66666666666666</ele><time>2026-04-19T09:16:39.195Z</time></trkpt><trkpt lat="43.659071" lon="11.210947"><ele>214.33333333333331</ele><time>2026-04-19T09:16:41.195Z</time></trkpt><trkpt lat="43.6590018" lon="11.2110651"><ele>219.0</ele><time>2026-04-19T09:16:43.196Z</time></trkpt><trkpt lat="43.6589458" lon="11.2111753"><ele>223.66666666666669</ele><time>2026-04-19T09:16:45.202Z</time></trkpt><trkpt lat="43.6588983" lon="11.2112561"><ele>228.33333333333334</ele><time>2026-04-19T09:16:47.206Z</time></trkpt><trkpt lat="43.6589005" lon="11.2113637"><ele>233.0</ele><time>2026-04-19T09:19:10.202Z</time></trkpt><trkpt lat="43.6588634" lon="11.211456"><ele>233.60000000000002</ele><time>2026-04-19T09:19:13.197Z</time></trkpt><trkpt lat="43.6588025" lon="11.2115727"><ele>234.20000000000002</ele><time>2026-04-19T09:19:15.196Z</time></trkpt><trkpt lat="43.658718" lon="11.2116893"><ele>234.8</ele><time>2026-04-19T09:19:17.202Z</time></trkpt><trkpt lat="43.6586737" lon="11.211752"><ele>235.4</ele><time>2026-04-19T09:19:18.21Z</time></trkpt><trkpt lat="43.6586198" lon="11.2118422"><ele>236.0</ele><time>2026-04-19T09:19:20.203Z</time></trkpt><trkpt lat="43.6585743" lon="11.2119302"><ele>236.00000000000003</ele><time>2026-04-19T09:19:22.19Z</time></trkpt><trkpt lat="43.6585172" lon="11.2120118"><ele>236.0</ele><time>2026-04-19T09:19:24.207Z</time></trkpt><trkpt lat="43.6584453" lon="11.2120483"><ele>236.0</ele><time>2026-04-19T09:19:26.209Z</time></trkpt><trkpt lat="43.6583688" lon="11.212055"><ele>236.0</ele><time>2026-04-19T09:19:28.206Z</time></trkpt><trkpt lat="43.6582876" lon="11.2120389"><ele>236.00000000000003</ele><time>2026-04-19T09:19:30.201Z</time></trkpt><trkpt lat="43.6582243" lon="11.2119951"><ele>236.0</ele><time>2026-04-19T09:19:32.204Z</time></trkpt><trkpt lat="43.6581677" lon="11.2119539"><ele>236.00000000000003</ele><time>2026-04-19T09:19:34.199Z</time></trkpt><trkpt lat="43.6580842" lon="11.2119196"><ele>236.0</ele><time>2026-04-19T09:19:37.2Z</time></trkpt><trkpt lat="43.6580212" lon="11.2119274"><ele>236.0</ele><time>2026-04-19T09:19:39.194Z</time></trkpt><trkpt lat="43.6579847" lon="11.2120016"><ele>236.0</ele><time>2026-04-19T09:19:41.198Z</time></trkpt><trkpt lat="43.6579532" lon="11.2120824"><ele>236.00000000000003</ele><time>2026-04-19T09:19:43.2Z</time></trkpt><trkpt lat="43.6579037" lon="11.2122269"><ele>236.0</ele><time>2026-04-19T09:19:45.198Z</time></trkpt><trkpt lat="43.6578631" lon="11.2123193"><ele>236.20000000000002</ele><time>2026-04-19T09:19:47.217Z</time></trkpt><trkpt lat="43.6577854" lon="11.2124137"><ele>236.40000000000003</ele><time>2026-04-19T09:19:49.203Z</time></trkpt><trkpt lat="43.6577247" lon="11.2124797"><ele>236.6</ele><time>2026-04-19T09:19:51.204Z</time></trkpt><trkpt lat="43.6576377" lon="11.2125296"><ele>236.8</ele><time>2026-04-19T09:19:53.204Z</time></trkpt><trkpt lat="43.6575358" lon="11.2125619"><ele>237.0</ele><time>2026-04-19T09:19:55.21Z</time></trkpt><trkpt lat="43.6574329" lon="11.2125595"><ele>237.0</ele><time>2026-04-19T09:19:57.198Z</time></trkpt><trkpt lat="43.6573364" lon="11.2125295"><ele>237.0</ele><time>2026-04-19T09:19:59.202Z</time></trkpt><trkpt lat="43.6572479" lon="11.2124922"><ele>237.0</ele><time>2026-04-19T09:20:01.212Z</time></trkpt><trkpt lat="43.6571644" lon="11.2124849"><ele>237.0</ele><time>2026-04-19T09:20:03.198Z</time></trkpt><trkpt lat="43.6570908" lon="11.2124451"><ele>237.0</ele><time>2026-04-19T09:20:05.203Z</time></trkpt><trkpt lat="43.6570251" lon="11.2123927"><ele>237.0</ele><time>2026-04-19T09:20:07.206Z</time></trkpt><trkpt lat="43.6569301" lon="11.2123759"><ele>237.99999999999997</ele><time>2026-04-19T09:20:10.199Z</time></trkpt><trkpt lat="43.6568672" lon="11.2123354"><ele>239.0</ele><time>2026-04-19T09:20:12.198Z</time></trkpt><trkpt lat="43.6568007" lon="11.2123042"><ele>239.99999999999997</ele><time>2026-04-19T09:20:14.196Z</time></trkpt><trkpt lat="43.6567366" lon="11.2122694"><ele>240.99999999999997</ele><time>2026-04-19T09:20:16.196Z</time></trkpt><trkpt lat="43.6566655" lon="11.2122259"><ele>242.0</ele><time>2026-04-19T09:20:29.206Z</time></trkpt><trkpt lat="43.6566041" lon="11.2121965"><ele>242.99999999999997</ele><time>2026-04-19T09:20:32.198Z</time></trkpt><trkpt lat="43.6565323" lon="11.2121537"><ele>243.99999999999997</ele><time>2026-04-19T09:20:34.211Z</time></trkpt><trkpt lat="43.6564679" lon="11.2121317"><ele>246.99999999999997</ele><time>2026-04-19T09:20:35.197Z</time></trkpt><trkpt lat="43.6564054" lon="11.212105"><ele>250.0</ele><time>2026-04-19T09:20:36.195Z</time></trkpt><trkpt lat="43.6562988" lon="11.2120684"><ele>253.0</ele><time>2026-04-19T09:20:38.207Z</time></trkpt><trkpt lat="43.656193" lon="11.2120371"><ele>256.0</ele><time>2026-04-19T09:20:40.197Z</time></trkpt><trkpt lat="43.656122" lon="11.2120305"><ele>259.0</ele><time>2026-04-19T09:20:42.195Z</time></trkpt><trkpt lat="43.6560485" lon="11.2120508"><ele>262.0</ele><time>2026-04-19T09:20:44.207Z</time></trkpt><trkpt lat="43.655968" lon="11.2120705"><ele>262.0</ele><time>2026-04-19T09:20:46.208Z</time></trkpt><trkpt lat="43.6558843" lon="11.2120488"><ele>262.0</ele><time>2026-04-19T09:20:48.203Z</time></trkpt><trkpt lat="43.655789" lon="11.2120349"><ele>262.0</ele><time>2026-04-19T09:20:50.219Z</time></trkpt><trkpt lat="43.6557017" lon="11.2120133"><ele>262.0</ele><time>2026-04-19T09:20:52.211Z</time></trkpt><trkpt lat="43.6556299" lon="11.2119853"><ele>262.0</ele><time>2026-04-19T09:20:54.199Z</time></trkpt><trkpt lat="43.6555515" lon="11.2119257"><ele>262.0</ele><time>2026-04-19T09:20:56.203Z</time></trkpt><trkpt lat="43.6554977" lon="11.2118674"><ele>262.0</ele><time>2026-04-19T09:20:58.268Z</time></trkpt><trkpt lat="43.6554395" lon="11.2118074"><ele>262.0</ele><time>2026-04-19T09:21:00.269Z</time></trkpt><trkpt lat="43.6553752" lon="11.2117214"><ele>262.0</ele><time>2026-04-19T09:21:02.27Z</time></trkpt><trkpt lat="43.6553284" lon="11.2116484"><ele>262.0</ele><time>2026-04-19T09:21:04.262Z</time></trkpt><trkpt lat="43.65526" lon="11.2115625"><ele>262.0</ele><time>2026-04-19T09:21:06.273Z</time></trkpt><trkpt lat="43.6552132" lon="11.2114911"><ele>262.0</ele><time>2026-04-19T09:21:08.267Z</time></trkpt><trkpt lat="43.6551376" lon="11.211419"><ele>262.8</ele><time>2026-04-19T09:21:10.281Z</time></trkpt><trkpt lat="43.6550892" lon="11.2113599"><ele>263.6</ele><time>2026-04-19T09:21:12.268Z</time></trkpt><trkpt lat="43.6550264" lon="11.2112821"><ele>264.40000000000003</ele><time>2026-04-19T09:21:23.266Z</time></trkpt><trkpt lat="43.6549544" lon="11.2111796"><ele>265.2</ele><time>2026-04-19T09:21:25.261Z</time></trkpt><trkpt lat="43.6548894" lon="11.2110682"><ele>266.0</ele><time>2026-04-19T09:21:27.285Z</time></trkpt><trkpt lat="43.6548267" lon="11.2109598"><ele>266.0</ele><time>2026-04-19T09:21:29.268Z</time></trkpt><trkpt lat="43.6547768" lon="11.2108454"><ele>266.0</ele><time>2026-04-19T09:21:31.266Z</time></trkpt><trkpt lat="43.6547206" lon="11.2107275"><ele>266.0</ele><time>2026-04-19T09:21:33.275Z</time></trkpt><trkpt lat="43.6546551" lon="11.2106592"><ele>266.0</ele><time>2026-04-19T09:21:35.272Z</time></trkpt><trkpt lat="43.6545946" lon="11.2105761"><ele>266.0</ele><time>2026-04-19T09:21:37.272Z</time></trkpt><trkpt lat="43.6545121" lon="11.2104683"><ele>266.0</ele><time>2026-04-19T09:21:39.277Z</time></trkpt><trkpt lat="43.6544326" lon="11.2103787"><ele>266.0</ele><time>2026-04-19T09:21:41.283Z</time></trkpt><trkpt lat="43.6543306" lon="11.2102854"><ele>266.0</ele><time>2026-04-19T09:21:43.275Z</time></trkpt><trkpt lat="43.6542794" lon="11.2102243"><ele>266.0</ele><time>2026-04-19T09:21:44.266Z</time></trkpt><trkpt lat="43.6542201" lon="11.2101666"><ele>266.0</ele><time>2026-04-19T09:21:45.273Z</time></trkpt><trkpt lat="43.6541692" lon="11.2101075"><ele>266.0</ele><time>2026-04-19T09:21:46.266Z</time></trkpt><trkpt lat="43.6540804" lon="11.2099972"><ele>266.0</ele><time>2026-04-19T09:21:48.289Z</time></trkpt><trkpt lat="43.6540322" lon="11.2099312"><ele>266.0</ele><time>2026-04-19T09:21:49.291Z</time></trkpt><trkpt lat="43.6539338" lon="11.2098448"><ele>266.0</ele><time>2026-04-19T09:21:51.275Z</time></trkpt><trkpt lat="43.653838" lon="11.2097749"><ele>266.0</ele><time>2026-04-19T09:21:53.274Z</time></trkpt><trkpt lat="43.6537731" lon="11.2097206"><ele>266.0</ele><time>2026-04-19T09:21:55.29Z</time></trkpt><trkpt lat="43.6537144" lon="11.2096714"><ele>266.0</ele><time>2026-04-19T09:21:57.29Z</time></trkpt><trkpt lat="43.6536413" lon="11.2095975"><ele>265.5</ele><time>2026-04-19T09:22:00.279Z</time></trkpt><trkpt lat="43.6535823" lon="11.2095251"><ele>265.0</ele><time>2026-04-19T09:22:02.281Z</time></trkpt><trkpt lat="43.6535271" lon="11.2094393"><ele>264.5</ele><time>2026-04-19T09:22:04.288Z</time></trkpt><trkpt lat="43.6534777" lon="11.2093804"><ele>264.0</ele><time>2026-04-19T09:22:06.289Z</time></trkpt><trkpt lat="43.6534252" lon="11.2093215"><ele>263.5</ele><time>2026-04-19T09:22:08.293Z</time></trkpt><trkpt lat="43.6533698" lon="11.209265"><ele>263.0</ele><time>2026-04-19T09:22:10.292Z</time></trkpt><trkpt lat="43.6532841" lon="11.2091759"><ele>263.0</ele><time>2026-04-19T09:24:49.284Z</time></trkpt><trkpt lat="43.6531792" lon="11.2090822"><ele>263.0</ele><time>2026-04-19T09:24:51.287Z</time></trkpt><trkpt lat="43.6531142" lon="11.2090232"><ele>263.0</ele><time>2026-04-19T09:24:52.287Z</time></trkpt><trkpt lat="43.653042" lon="11.2089584"><ele>263.0</ele><time>2026-04-19T09:24:53.308Z</time></trkpt><trkpt lat="43.6529562" lon="11.2088914"><ele>263.0</ele><time>2026-04-19T09:24:54.295Z</time></trkpt><trkpt lat="43.6528673" lon="11.2088071"><ele>265.2</ele><time>2026-04-19T09:24:55.301Z</time></trkpt><trkpt lat="43.6527773" lon="11.2087264"><ele>267.4</ele><time>2026-04-19T09:24:56.22Z</time></trkpt><trkpt lat="43.6526896" lon="11.2086423"><ele>269.59999999999997</ele><time>2026-04-19T09:24:57.215Z</time></trkpt><trkpt lat="43.6526155" lon="11.2085688"><ele>271.8</ele><time>2026-04-19T09:24:58.231Z</time></trkpt><trkpt lat="43.6525476" lon="11.2084914"><ele>274.0</ele><time>2026-04-19T09:24:59.212Z</time></trkpt><trkpt lat="43.6524751" lon="11.2084262"><ele>274.0</ele><time>2026-04-19T09:25:00.222Z</time></trkpt><trkpt lat="43.6523907" lon="11.2083607"><ele>274.0</ele><time>2026-04-19T09:25:01.213Z</time></trkpt><trkpt lat="43.652303" lon="11.2082905"><ele>274.0</ele><time>2026-04-19T09:25:02.22Z</time></trkpt><trkpt lat="43.6522135" lon="11.2082165"><ele>274.0</ele><time>2026-04-19T09:25:03.207Z</time></trkpt><trkpt lat="43.6521209" lon="11.2081394"><ele>274.0</ele><time>2026-04-19T09:25:04.233Z</time></trkpt><trkpt lat="43.6520305" lon="11.2080562"><ele>275.4</ele><time>2026-04-19T09:25:05.221Z</time></trkpt><trkpt lat="43.6519504" lon="11.207978"><ele>276.79999999999995</ele><time>2026-04-19T09:25:06.21Z</time></trkpt><trkpt lat="43.6518674" lon="11.2079031"><ele>278.20000000000005</ele><time>2026-04-19T09:25:07.217Z</time></trkpt><trkpt lat="43.6517786" lon="11.2078232"><ele>279.6</ele><time>2026-04-19T09:25:08.211Z</time></trkpt><trkpt lat="43.6516867" lon="11.2077503"><ele>281.0</ele><time>2026-04-19T09:25:09.198Z</time></trkpt><trkpt lat="43.6515883" lon="11.2076777"><ele>281.0</ele><time>2026-04-19T09:25:10.217Z</time></trkpt><trkpt lat="43.6514946" lon="11.2076021"><ele>281.0</ele><time>2026-04-19T09:25:11.213Z</time></trkpt><trkpt lat="43.6514007" lon="11.2075254"><ele>281.0</ele><time>2026-04-19T09:25:12.217Z</time></trkpt><trkpt lat="43.6513166" lon="11.2074535"><ele>281.0</ele><time>2026-04-19T09:25:13.214Z</time></trkpt><trkpt lat="43.6512468" lon="11.2073928"><ele>281.0</ele><time>2026-04-19T09:25:14.22Z</time></trkpt><trkpt lat="43.6511716" lon="11.2073172"><ele>281.40000000000003</ele><time>2026-04-19T09:25:15.228Z</time></trkpt><trkpt lat="43.6510849" lon="11.2072453"><ele>281.8</ele><time>2026-04-19T09:25:16.205Z</time></trkpt><trkpt lat="43.6509993" lon="11.2071743"><ele>282.20000000000005</ele><time>2026-04-19T09:25:17.207Z</time></trkpt><trkpt lat="43.6509061" lon="11.2070939"><ele>282.6</ele><time>2026-04-19T09:25:18.211Z</time></trkpt><trkpt lat="43.6508125" lon="11.2070109"><ele>283.0</ele><time>2026-04-19T09:25:19.215Z</time></trkpt><trkpt lat="43.6507203" lon="11.2069191"><ele>283.0</ele><time>2026-04-19T09:25:20.212Z</time></trkpt><trkpt lat="43.6506241" lon="11.2068335"><ele>283.0</ele><time>2026-04-19T09:25:21.21Z</time></trkpt><trkpt lat="43.6505203" lon="11.2067495"><ele>283.0</ele><time>2026-04-19T09:25:22.225Z</time></trkpt><trkpt lat="43.6504178" lon="11.2066635"><ele>283.0</ele><time>2026-04-19T09:25:23.211Z</time></trkpt><trkpt lat="43.6503189" lon="11.2065816"><ele>284.6</ele><time>2026-04-19T09:25:24.221Z</time></trkpt><trkpt lat="43.6502172" lon="11.206504"><ele>286.20000000000005</ele><time>2026-04-19T09:25:25.219Z</time></trkpt><trkpt lat="43.6501218" lon="11.2064239"><ele>287.8</ele><time>2026-04-19T09:25:26.216Z</time></trkpt><trkpt lat="43.6500326" lon="11.2063539"><ele>289.40000000000003</ele><time>2026-04-19T09:25:27.215Z</time></trkpt><trkpt lat="43.6499497" lon="11.206291"><ele>291.0</ele><time>2026-04-19T09:25:28.213Z</time></trkpt><trkpt lat="43.6498802" lon="11.2062329"><ele>291.0</ele><time>2026-04-19T09:25:29.231Z</time></trkpt><trkpt lat="43.6497658" lon="11.2061771"><ele>291.0</ele><time>2026-04-19T09:25:31.219Z</time></trkpt><trkpt lat="43.6496723" lon="11.2061176"><ele>291.0</ele><time>2026-04-19T09:25:33.225Z</time></trkpt><trkpt lat="43.6495753" lon="11.2060865"><ele>291.0</ele><time>2026-04-19T09:25:35.225Z</time></trkpt><trkpt lat="43.6494818" lon="11.2060492"><ele>291.0</ele><time>2026-04-19T09:25:37.225Z</time></trkpt><trkpt lat="43.6494147" lon="11.2060335"><ele>292.6</ele><time>2026-04-19T09:25:39.213Z</time></trkpt><trkpt lat="43.6493285" lon="11.2060398"><ele>294.20000000000005</ele><time>2026-04-19T09:25:41.213Z</time></trkpt><trkpt lat="43.6492635" lon="11.2060488"><ele>295.79999999999995</ele><time>2026-04-19T09:25:42.211Z</time></trkpt><trkpt lat="43.6491256" lon="11.2060777"><ele>297.4</ele><time>2026-04-19T09:25:44.211Z</time></trkpt><trkpt lat="43.6490509" lon="11.2060927"><ele>299.0</ele><time>2026-04-19T09:25:45.223Z</time></trkpt><trkpt lat="43.6489369" lon="11.2061241"><ele>299.0</ele><time>2026-04-19T09:25:47.224Z</time></trkpt><trkpt lat="43.6488475" lon="11.2061736"><ele>299.0</ele><time>2026-04-19T09:25:50.203Z</time></trkpt><trkpt lat="43.6487406" lon="11.2061963"><ele>299.0</ele><time>2026-04-19T09:25:52.263Z</time></trkpt><trkpt lat="43.6486699" lon="11.206174"><ele>299.0</ele><time>2026-04-19T09:25:54.268Z</time></trkpt><trkpt lat="43.648656" lon="11.2060708"><ele>299.0</ele><time>2026-04-19T09:25:57.26Z</time></trkpt><trkpt lat="43.6486895" lon="11.2059665"><ele>299.0</ele><time>2026-04-19T09:25:59.197Z</time></trkpt><trkpt lat="43.6487012" lon="11.2058513"><ele>299.0</ele><time>2026-04-19T09:26:01.201Z</time></trkpt><trkpt lat="43.6486441" lon="11.2057472"><ele>299.0</ele><time>2026-04-19T09:26:03.204Z</time></trkpt><trkpt lat="43.6485876" lon="11.2056764"><ele>299.0</ele><time>2026-04-19T09:26:06.208Z</time></trkpt><trkpt lat="43.6485302" lon="11.2056175"><ele>299.0</ele><time>2026-04-19T09:26:15.212Z</time></trkpt><trkpt lat="43.6485019" lon="11.2055319"><ele>299.0</ele><time>2026-04-19T09:26:17.199Z</time></trkpt><trkpt lat="43.6484814" lon="11.2054145"><ele>299.0</ele><time>2026-04-19T09:26:20.204Z</time></trkpt><trkpt lat="43.6484818" lon="11.2055244"><ele>299.0</ele><time>2026-04-19T09:26:28.204Z</time></trkpt><trkpt lat="43.6485337" lon="11.2056265"><ele>299.0</ele><time>2026-04-19T09:26:29.205Z</time></trkpt><trkpt lat="43.648612" lon="11.2057853"><ele>299.0</ele><time>2026-04-19T09:26:31.199Z</time></trkpt><trkpt lat="43.6486466" lon="11.205873"><ele>299.0</ele><time>2026-04-19T09:26:32.201Z</time></trkpt><trkpt lat="43.6486723" lon="11.2060295"><ele>299.0</ele><time>2026-04-19T09:26:34.193Z</time></trkpt><trkpt lat="43.648666" lon="11.2061445"><ele>299.0</ele><time>2026-04-19T09:26:36.219Z</time></trkpt><trkpt lat="43.64867" lon="11.2062788"><ele>299.0</ele><time>2026-04-19T09:26:39.202Z</time></trkpt><trkpt lat="43.6486731" lon="11.2063781"><ele>299.0</ele><time>2026-04-19T09:26:40.195Z</time></trkpt><trkpt lat="43.6486379" lon="11.2064874"><ele>299.0</ele><time>2026-04-19T09:26:41.199Z</time></trkpt><trkpt lat="43.6486118" lon="11.2066092"><ele>299.0</ele><time>2026-04-19T09:26:42.194Z</time></trkpt><trkpt lat="43.6485865" lon="11.2067025"><ele>299.0</ele><time>2026-04-19T09:26:43.207Z</time></trkpt><trkpt lat="43.6485422" lon="11.2068205"><ele>298.8</ele><time>2026-04-19T09:26:44.2Z</time></trkpt><trkpt lat="43.648491" lon="11.2069334"><ele>298.59999999999997</ele><time>2026-04-19T09:26:45.203Z</time></trkpt><trkpt lat="43.6484328" lon="11.2070365"><ele>298.4</ele><time>2026-04-19T09:26:46.204Z</time></trkpt><trkpt lat="43.6483578" lon="11.2071355"><ele>298.2</ele><time>2026-04-19T09:26:47.202Z</time></trkpt><trkpt lat="43.6482893" lon="11.2072179"><ele>298.0</ele><time>2026-04-19T09:26:48.203Z</time></trkpt><trkpt lat="43.6482123" lon="11.2072766"><ele>297.8</ele><time>2026-04-19T09:26:49.197Z</time></trkpt><trkpt lat="43.6481441" lon="11.2073564"><ele>297.6</ele><time>2026-04-19T09:26:50.212Z</time></trkpt><trkpt lat="43.6480661" lon="11.2074323"><ele>297.4</ele><time>2026-04-19T09:26:51.206Z</time></trkpt><trkpt lat="43.6480012" lon="11.2074799"><ele>297.2</ele><time>2026-04-19T09:26:52.21Z</time></trkpt><trkpt lat="43.6478961" lon="11.2075366"><ele>297.0</ele><time>2026-04-19T09:26:54.216Z</time></trkpt><trkpt lat="43.6477903" lon="11.2075183"><ele>296.8333333333333</ele><time>2026-04-19T09:26:56.202Z</time></trkpt><trkpt lat="43.6477408" lon="11.2074152"><ele>296.6666666666667</ele><time>2026-04-19T09:26:58.214Z</time></trkpt><trkpt lat="43.6477717" lon="11.2073339"><ele>296.5</ele><time>2026-04-19T09:27:00.204Z</time></trkpt><trkpt lat="43.6478048" lon="11.2072448"><ele>296.33333333333337</ele><time>2026-04-19T09:27:01.219Z</time></trkpt><trkpt lat="43.6478479" lon="11.2071685"><ele>296.1666666666667</ele><time>2026-04-19T09:27:02.214Z</time></trkpt><trkpt lat="43.6478941" lon="11.2070648"><ele>296.0</ele><time>2026-04-19T09:27:03.219Z</time></trkpt><trkpt lat="43.6479337" lon="11.2069386"><ele>296.5</ele><time>2026-04-19T09:27:04.212Z</time></trkpt><trkpt lat="43.6479693" lon="11.2067915"><ele>297.0</ele><time>2026-04-19T09:27:05.212Z</time></trkpt><trkpt lat="43.6479962" lon="11.2066264"><ele>297.5</ele><time>2026-04-19T09:27:06.213Z</time></trkpt><trkpt lat="43.6480168" lon="11.2064483"><ele>298.0</ele><time>2026-04-19T09:27:07.208Z</time></trkpt><trkpt lat="43.6480275" lon="11.2062531"><ele>298.2</ele><time>2026-04-19T09:27:08.205Z</time></trkpt><trkpt lat="43.6480341" lon="11.2060787"><ele>298.4</ele><time>2026-04-19T09:27:09.206Z</time></trkpt><trkpt lat="43.6480365" lon="11.2059231"><ele>298.59999999999997</ele><time>2026-04-19T09:27:10.215Z</time></trkpt><trkpt lat="43.6480431" lon="11.2057762"><ele>298.8</ele><time>2026-04-19T09:27:11.215Z</time></trkpt><trkpt lat="43.6480561" lon="11.2056378"><ele>299.0</ele><time>2026-04-19T09:27:12.209Z</time></trkpt><trkpt lat="43.6480633" lon="11.2054938"><ele>298.6666666666667</ele><time>2026-04-19T09:27:13.208Z</time></trkpt><trkpt lat="43.6480611" lon="11.2053557"><ele>298.33333333333337</ele><time>2026-04-19T09:27:14.207Z</time></trkpt><trkpt lat="43.6480605" lon="11.2052287"><ele>298.0</ele><time>2026-04-19T09:27:15.206Z</time></trkpt><trkpt lat="43.6480618" lon="11.2051249"><ele>297.6666666666667</ele><time>2026-04-19T09:27:16.204Z</time></trkpt><trkpt lat="43.6480571" lon="11.2050358"><ele>297.3333333333333</ele><time>2026-04-19T09:27:17.211Z</time></trkpt><trkpt lat="43.6480509" lon="11.204913"><ele>297.0</ele><time>2026-04-19T09:27:19.21Z</time></trkpt><trkpt lat="43.648041" lon="11.2048233"><ele>297.0</ele><time>2026-04-19T09:27:32.219Z</time></trkpt><trkpt lat="43.6479834" lon="11.2047847"><ele>297.0</ele><time>2026-04-19T09:27:37.218Z</time></trkpt><trkpt lat="43.6479377" lon="11.2048498"><ele>297.0</ele><time>2026-04-19T09:27:39.204Z</time></trkpt><trkpt lat="43.6479598" lon="11.2050081"><ele>297.0</ele><time>2026-04-19T09:27:41.211Z</time></trkpt><trkpt lat="43.6479842" lon="11.2051566"><ele>297.0</ele><time>2026-04-19T09:27:43.219Z</time></trkpt><trkpt lat="43.6479992" lon="11.205278"><ele>297.0</ele><time>2026-04-19T09:27:45.204Z</time></trkpt><trkpt lat="43.6480106" lon="11.2054238"><ele>297.0</ele><time>2026-04-19T09:27:47.212Z</time></trkpt><trkpt lat="43.6480112" lon="11.2055953"><ele>297.0</ele><time>2026-04-19T09:27:49.22Z</time></trkpt><trkpt lat="43.6480107" lon="11.2057059"><ele>297.0</ele><time>2026-04-19T09:27:50.212Z</time></trkpt><trkpt lat="43.6480019" lon="11.2058289"><ele>297.0</ele><time>2026-04-19T09:27:51.224Z</time></trkpt><trkpt lat="43.6479988" lon="11.2059433"><ele>297.0</ele><time>2026-04-19T09:27:52.216Z</time></trkpt><trkpt lat="43.6479981" lon="11.2060414"><ele>297.0</ele><time>2026-04-19T09:27:53.22Z</time></trkpt><trkpt lat="43.6479938" lon="11.2061362"><ele>297.1666666666667</ele><time>2026-04-19T09:27:54.221Z</time></trkpt><trkpt lat="43.6479906" lon="11.2062418"><ele>297.3333333333333</ele><time>2026-04-19T09:27:55.216Z</time></trkpt><trkpt lat="43.6479787" lon="11.2063543"><ele>297.5</ele><time>2026-04-19T09:27:56.213Z</time></trkpt><trkpt lat="43.6479673" lon="11.2064693"><ele>297.66666666666663</ele><time>2026-04-19T09:27:57.226Z</time></trkpt><trkpt lat="43.6479517" lon="11.2065848"><ele>297.8333333333333</ele><time>2026-04-19T09:27:58.218Z</time></trkpt><trkpt lat="43.6479383" lon="11.2066967"><ele>298.0</ele><time>2026-04-19T09:27:59.228Z</time></trkpt><trkpt lat="43.6479097" lon="11.2068158"><ele>298.0</ele><time>2026-04-19T09:28:00.216Z</time></trkpt><trkpt lat="43.647874" lon="11.2069345"><ele>298.0</ele><time>2026-04-19T09:28:01.214Z</time></trkpt><trkpt lat="43.6478338" lon="11.207048"><ele>298.0</ele><time>2026-04-19T09:28:02.224Z</time></trkpt><trkpt lat="43.6477879" lon="11.2071668"><ele>298.0</ele><time>2026-04-19T09:28:03.228Z</time></trkpt><trkpt lat="43.6477251" lon="11.2072824"><ele>298.0</ele><time>2026-04-19T09:28:04.211Z</time></trkpt><trkpt lat="43.6476552" lon="11.2073977"><ele>297.6</ele><time>2026-04-19T09:28:05.223Z</time></trkpt><trkpt lat="43.6475777" lon="11.2075038"><ele>297.20000000000005</ele><time>2026-04-19T09:28:06.214Z</time></trkpt><trkpt lat="43.6474972" lon="11.2075945"><ele>296.8</ele><time>2026-04-19T09:28:07.227Z</time></trkpt><trkpt lat="43.6474083" lon="11.2076778"><ele>296.40000000000003</ele><time>2026-04-19T09:28:08.217Z</time></trkpt><trkpt lat="43.6472993" lon="11.2077426"><ele>296.0</ele><time>2026-04-19T09:28:09.22Z</time></trkpt><trkpt lat="43.6471737" lon="11.2077913"><ele>296.0</ele><time>2026-04-19T09:28:10.217Z</time></trkpt><trkpt lat="43.6470438" lon="11.2078194"><ele>296.0</ele><time>2026-04-19T09:28:11.216Z</time></trkpt><trkpt lat="43.6469028" lon="11.2078206"><ele>296.0</ele><time>2026-04-19T09:28:12.208Z</time></trkpt><trkpt lat="43.646764" lon="11.207812"><ele>296.0</ele><time>2026-04-19T09:28:13.211Z</time></trkpt><trkpt lat="43.6466218" lon="11.2077955"><ele>295.75</ele><time>2026-04-19T09:28:14.218Z</time></trkpt><trkpt lat="43.6464713" lon="11.2077775"><ele>295.5</ele><time>2026-04-19T09:28:15.219Z</time></trkpt><trkpt lat="43.6463241" lon="11.2077628"><ele>295.25</ele><time>2026-04-19T09:28:16.217Z</time></trkpt><trkpt lat="43.6461781" lon="11.2077545"><ele>295.0</ele><time>2026-04-19T09:28:17.229Z</time></trkpt><trkpt lat="43.6460392" lon="11.2077536"><ele>297.0</ele><time>2026-04-19T09:28:18.217Z</time></trkpt><trkpt lat="43.6459006" lon="11.2077598"><ele>299.0</ele><time>2026-04-19T09:28:19.212Z</time></trkpt><trkpt lat="43.6457618" lon="11.2078027"><ele>301.0</ele><time>2026-04-19T09:28:20.216Z</time></trkpt><trkpt lat="43.6456214" lon="11.2078356"><ele>303.0</ele><time>2026-04-19T09:28:21.215Z</time></trkpt><trkpt lat="43.6454683" lon="11.207886"><ele>303.0</ele><time>2026-04-19T09:28:22.217Z</time></trkpt><trkpt lat="43.645319" lon="11.2079431"><ele>303.0</ele><time>2026-04-19T09:28:23.216Z</time></trkpt><trkpt lat="43.6451767" lon="11.2079981"><ele>303.0</ele><time>2026-04-19T09:28:24.215Z</time></trkpt><trkpt lat="43.6450428" lon="11.2080637"><ele>303.0</ele><time>2026-04-19T09:28:25.215Z</time></trkpt><trkpt lat="43.6449185" lon="11.2081175"><ele>303.0</ele><time>2026-04-19T09:28:26.209Z</time></trkpt><trkpt lat="43.6448027" lon="11.2081711"><ele>303.0</ele><time>2026-04-19T09:28:27.214Z</time></trkpt><trkpt lat="43.6446996" lon="11.2082246"><ele>303.0</ele><time>2026-04-19T09:28:28.212Z</time></trkpt><trkpt lat="43.644595" lon="11.2082869"><ele>303.0</ele><time>2026-04-19T09:28:29.213Z</time></trkpt><trkpt lat="43.6444813" lon="11.2083795"><ele>302.25</ele><time>2026-04-19T09:28:30.208Z</time></trkpt><trkpt lat="43.6443515" lon="11.2084952"><ele>301.5</ele><time>2026-04-19T09:28:31.21Z</time></trkpt><trkpt lat="43.6442388" lon="11.2086028"><ele>300.75</ele><time>2026-04-19T09:28:32.219Z</time></trkpt><trkpt lat="43.6441357" lon="11.2087153"><ele>300.0</ele><time>2026-04-19T09:28:33.227Z</time></trkpt><trkpt lat="43.6440511" lon="11.2088356"><ele>300.0</ele><time>2026-04-19T09:28:34.208Z</time></trkpt><trkpt lat="43.6439892" lon="11.208986"><ele>300.0</ele><time>2026-04-19T09:28:35.217Z</time></trkpt><trkpt lat="43.6439372" lon="11.2091429"><ele>300.0</ele><time>2026-04-19T09:28:36.209Z</time></trkpt><trkpt lat="43.643899" lon="11.2093067"><ele>300.0</ele><time>2026-04-19T09:28:37.215Z</time></trkpt><trkpt lat="43.6438746" lon="11.209473"><ele>300.0</ele><time>2026-04-19T09:28:38.207Z</time></trkpt><trkpt lat="43.6438655" lon="11.2096276"><ele>300.0</ele><time>2026-04-19T09:28:39.218Z</time></trkpt><trkpt lat="43.6438524" lon="11.2097856"><ele>300.0</ele><time>2026-04-19T09:28:40.212Z</time></trkpt><trkpt lat="43.6438376" lon="11.2099624"><ele>300.0</ele><time>2026-04-19T09:28:41.215Z</time></trkpt><trkpt lat="43.6438153" lon="11.2101488"><ele>299.3333333333333</ele><time>2026-04-19T09:28:42.209Z</time></trkpt><trkpt lat="43.6437639" lon="11.21033"><ele>298.66666666666663</ele><time>2026-04-19T09:28:43.207Z</time></trkpt><trkpt lat="43.6436817" lon="11.2105128"><ele>298.0</ele><time>2026-04-19T09:28:44.209Z</time></trkpt><trkpt lat="43.6435805" lon="11.2106841"><ele>297.5</ele><time>2026-04-19T09:28:45.216Z</time></trkpt><trkpt lat="43.6434806" lon="11.2108301"><ele>297.0</ele><time>2026-04-19T09:28:46.219Z</time></trkpt><trkpt lat="43.6433529" lon="11.210953"><ele>296.5</ele><time>2026-04-19T09:28:47.216Z</time></trkpt><trkpt lat="43.6432307" lon="11.2110629"><ele>296.0</ele><time>2026-04-19T09:28:48.222Z</time></trkpt><trkpt lat="43.6431312" lon="11.2111304"><ele>296.0</ele><time>2026-04-19T09:28:49.218Z</time></trkpt><trkpt lat="43.6430495" lon="11.2111577"><ele>296.0</ele><time>2026-04-19T09:28:50.207Z</time></trkpt><trkpt lat="43.642988" lon="11.2111801"><ele>296.0</ele><time>2026-04-19T09:28:51.2Z</time></trkpt><trkpt lat="43.6428966" lon="11.2111479"><ele>296.0</ele><time>2026-04-19T09:28:53.229Z</time></trkpt><trkpt lat="43.6428177" lon="11.2110612"><ele>296.0</ele><time>2026-04-19T09:28:55.205Z</time></trkpt><trkpt lat="43.6426956" lon="11.2109856"><ele>297.0</ele><time>2026-04-19T09:28:57.208Z</time></trkpt><trkpt lat="43.6426199" lon="11.2109496"><ele>298.0</ele><time>2026-04-19T09:28:58.212Z</time></trkpt><trkpt lat="43.6425424" lon="11.2109195"><ele>299.0</ele><time>2026-04-19T09:28:59.205Z</time></trkpt><trkpt lat="43.6424536" lon="11.2108741"><ele>300.0</ele><time>2026-04-19T09:29:00.19Z</time></trkpt><trkpt lat="43.6423526" lon="11.2108242"><ele>301.0</ele><time>2026-04-19T09:29:01.195Z</time></trkpt><trkpt lat="43.6422511" lon="11.2107746"><ele>301.0</ele><time>2026-04-19T09:29:02.213Z</time></trkpt><trkpt lat="43.6421516" lon="11.2107252"><ele>301.0</ele><time>2026-04-19T09:29:03.203Z</time></trkpt><trkpt lat="43.6420527" lon="11.2107121"><ele>301.0</ele><time>2026-04-19T09:29:04.206Z</time></trkpt><trkpt lat="43.6419517" lon="11.2106871"><ele>301.0</ele><time>2026-04-19T09:29:05.203Z</time></trkpt><trkpt lat="43.6418369" lon="11.2106569"><ele>301.0</ele><time>2026-04-19T09:29:06.207Z</time></trkpt><trkpt lat="43.6417225" lon="11.2106473"><ele>300.8333333333333</ele><time>2026-04-19T09:29:07.212Z</time></trkpt><trkpt lat="43.6416327" lon="11.2106514"><ele>300.66666666666663</ele><time>2026-04-19T09:29:08.221Z</time></trkpt><trkpt lat="43.6415305" lon="11.2106486"><ele>300.5</ele><time>2026-04-19T09:29:09.214Z</time></trkpt><trkpt lat="43.6414377" lon="11.2106501"><ele>300.3333333333333</ele><time>2026-04-19T09:29:10.208Z</time></trkpt><trkpt lat="43.6413552" lon="11.2106541"><ele>300.1666666666667</ele><time>2026-04-19T09:29:11.217Z</time></trkpt><trkpt lat="43.6412787" lon="11.2106466"><ele>300.0</ele><time>2026-04-19T09:29:12.214Z</time></trkpt><trkpt lat="43.6412026" lon="11.2106513"><ele>300.3333333333333</ele><time>2026-04-19T09:29:13.214Z</time></trkpt><trkpt lat="43.6411265" lon="11.2106501"><ele>300.6666666666667</ele><time>2026-04-19T09:29:14.219Z</time></trkpt><trkpt lat="43.6410575" lon="11.2106457"><ele>301.0</ele><time>2026-04-19T09:29:15.246Z</time></trkpt><trkpt lat="43.6409871" lon="11.2106375"><ele>301.33333333333337</ele><time>2026-04-19T09:29:16.208Z</time></trkpt><trkpt lat="43.6409205" lon="11.2106191"><ele>301.6666666666667</ele><time>2026-04-19T09:29:17.216Z</time></trkpt><trkpt lat="43.6408556" lon="11.2105875"><ele>302.0</ele><time>2026-04-19T09:29:18.213Z</time></trkpt><trkpt lat="43.6407417" lon="11.2105255"><ele>302.0</ele><time>2026-04-19T09:29:20.209Z</time></trkpt><trkpt lat="43.6406414" lon="11.2104554"><ele>302.0</ele><time>2026-04-19T09:29:22.215Z</time></trkpt><trkpt lat="43.6405828" lon="11.2104134"><ele>302.0</ele><time>2026-04-19T09:29:23.206Z</time></trkpt><trkpt lat="43.6405219" lon="11.2103621"><ele>302.0</ele><time>2026-04-19T09:29:24.204Z</time></trkpt><trkpt lat="43.6404604" lon="11.2103216"><ele>302.0</ele><time>2026-04-19T09:29:25.215Z</time></trkpt><trkpt lat="43.6403527" lon="11.210258"><ele>302.0</ele><time>2026-04-19T09:29:27.208Z</time></trkpt><trkpt lat="43.6402479" lon="11.2101839"><ele>300.8</ele><time>2026-04-19T09:29:29.212Z</time></trkpt><trkpt lat="43.6401552" lon="11.2100984"><ele>299.6</ele><time>2026-04-19T09:29:31.206Z</time></trkpt><trkpt lat="43.6400871" lon="11.2099907"><ele>298.40000000000003</ele><time>2026-04-19T09:29:33.21Z</time></trkpt><trkpt lat="43.6400164" lon="11.2098408"><ele>297.2</ele><time>2026-04-19T09:29:35.206Z</time></trkpt><trkpt lat="43.6399664" lon="11.2097465"><ele>296.0</ele><time>2026-04-19T09:29:36.219Z</time></trkpt><trkpt lat="43.6399287" lon="11.2096235"><ele>295.0</ele><time>2026-04-19T09:29:37.204Z</time></trkpt><trkpt lat="43.6398917" lon="11.209499"><ele>294.0</ele><time>2026-04-19T09:29:38.227Z</time></trkpt><trkpt lat="43.6398522" lon="11.2093743"><ele>293.0</ele><time>2026-04-19T09:29:39.208Z</time></trkpt><trkpt lat="43.6398151" lon="11.2092493"><ele>292.0</ele><time>2026-04-19T09:29:40.222Z</time></trkpt><trkpt lat="43.6397765" lon="11.2091381"><ele>291.0</ele><time>2026-04-19T09:29:41.213Z</time></trkpt><trkpt lat="43.6397371" lon="11.2090233"><ele>288.8</ele><time>2026-04-19T09:29:42.205Z</time></trkpt><trkpt lat="43.6396964" lon="11.2089056"><ele>286.6</ele><time>2026-04-19T09:29:43.216Z</time></trkpt><trkpt lat="43.63966" lon="11.2087863"><ele>284.4</ele><time>2026-04-19T09:29:44.213Z</time></trkpt><trkpt lat="43.6396231" lon="11.2086629"><ele>282.2</ele><time>2026-04-19T09:29:45.216Z</time></trkpt><trkpt lat="43.6395864" lon="11.2085449"><ele>280.0</ele><time>2026-04-19T09:29:46.213Z</time></trkpt><trkpt lat="43.6395471" lon="11.2084336"><ele>280.0</ele><time>2026-04-19T09:29:47.226Z</time></trkpt><trkpt lat="43.639516" lon="11.2083303"><ele>280.0</ele><time>2026-04-19T09:29:48.214Z</time></trkpt><trkpt lat="43.6394823" lon="11.2082274"><ele>280.0</ele><time>2026-04-19T09:29:49.216Z</time></trkpt><trkpt lat="43.6394498" lon="11.208084"><ele>280.0</ele><time>2026-04-19T09:29:51.213Z</time></trkpt><trkpt lat="43.6393968" lon="11.2079525"><ele>280.0</ele><time>2026-04-19T09:29:53.201Z</time></trkpt><trkpt lat="43.6393579" lon="11.2078473"><ele>279.3333333333333</ele><time>2026-04-19T09:29:54.203Z</time></trkpt><trkpt lat="43.6393246" lon="11.2077273"><ele>278.66666666666663</ele><time>2026-04-19T09:29:55.219Z</time></trkpt><trkpt lat="43.6392837" lon="11.2076037"><ele>278.0</ele><time>2026-04-19T09:29:56.229Z</time></trkpt><trkpt lat="43.6392367" lon="11.207497"><ele>277.3333333333333</ele><time>2026-04-19T09:29:57.209Z</time></trkpt><trkpt lat="43.6392025" lon="11.2073941"><ele>276.6666666666667</ele><time>2026-04-19T09:29:58.21Z</time></trkpt><trkpt lat="43.6391667" lon="11.2072918"><ele>276.0</ele><time>2026-04-19T09:29:59.217Z</time></trkpt><trkpt lat="43.6391269" lon="11.2071971"><ele>276.0</ele><time>2026-04-19T09:30:00.213Z</time></trkpt><trkpt lat="43.6390895" lon="11.2071067"><ele>276.0</ele><time>2026-04-19T09:30:01.224Z</time></trkpt><trkpt lat="43.6390584" lon="11.2070239"><ele>276.0</ele><time>2026-04-19T09:30:02.209Z</time></trkpt><trkpt lat="43.6390308" lon="11.2069081"><ele>276.0</ele><time>2026-04-19T09:30:04.203Z</time></trkpt><trkpt lat="43.6390192" lon="11.2067837"><ele>276.0</ele><time>2026-04-19T09:30:06.212Z</time></trkpt><trkpt lat="43.6389842" lon="11.2066063"><ele>276.0</ele><time>2026-04-19T09:30:08.207Z</time></trkpt><trkpt lat="43.6389601" lon="11.206517"><ele>276.0</ele><time>2026-04-19T09:30:09.21Z</time></trkpt><trkpt lat="43.6389555" lon="11.206418"><ele>276.0</ele><time>2026-04-19T09:30:11.209Z</time></trkpt><trkpt lat="43.638967" lon="11.2063295"><ele>276.0</ele><time>2026-04-19T09:30:13.213Z</time></trkpt><trkpt lat="43.6389431" lon="11.206237"><ele>276.0</ele><time>2026-04-19T09:30:17.219Z</time></trkpt><trkpt lat="43.6388739" lon="11.206249"><ele>276.0</ele><time>2026-04-19T09:30:20.207Z</time></trkpt><trkpt lat="43.6388757" lon="11.2063394"><ele>276.0</ele><time>2026-04-19T09:30:23.204Z</time></trkpt><trkpt lat="43.638888" lon="11.206428"><ele>276.0</ele><time>2026-04-19T09:30:28.211Z</time></trkpt><trkpt lat="43.6389063" lon="11.2065615"><ele>276.0</ele><time>2026-04-19T09:32:40.227Z</time></trkpt><trkpt lat="43.6389496" lon="11.2066954"><ele>276.0</ele><time>2026-04-19T09:32:42.214Z</time></trkpt><trkpt lat="43.6390088" lon="11.2068154"><ele>276.0</ele><time>2026-04-19T09:32:44.211Z</time></trkpt><trkpt lat="43.6390591" lon="11.2069572"><ele>276.0</ele><time>2026-04-19T09:32:46.207Z</time></trkpt><trkpt lat="43.6390924" lon="11.2070428"><ele>276.0</ele><time>2026-04-19T09:32:47.21Z</time></trkpt><trkpt lat="43.6391237" lon="11.2071403"><ele>276.0</ele><time>2026-04-19T09:32:48.243Z</time></trkpt><trkpt lat="43.6391478" lon="11.2072304"><ele>276.0</ele><time>2026-04-19T09:32:49.215Z</time></trkpt><trkpt lat="43.6391834" lon="11.2073257"><ele>276.0</ele><time>2026-04-19T09:32:50.211Z</time></trkpt><trkpt lat="43.6392212" lon="11.2074405"><ele>276.0</ele><time>2026-04-19T09:32:51.217Z</time></trkpt><trkpt lat="43.6392631" lon="11.2075546"><ele>276.0</ele><time>2026-04-19T09:32:52.228Z</time></trkpt><trkpt lat="43.6392958" lon="11.2076521"><ele>275.40000000000003</ele><time>2026-04-19T09:32:53.216Z</time></trkpt><trkpt lat="43.6393475" lon="11.2078108"><ele>274.8</ele><time>2026-04-19T09:32:55.222Z</time></trkpt><trkpt lat="43.6393866" lon="11.2079404"><ele>274.20000000000005</ele><time>2026-04-19T09:32:57.207Z</time></trkpt><trkpt lat="43.6393561" lon="11.2080572"><ele>273.6</ele><time>2026-04-19T09:33:00.215Z</time></trkpt><trkpt lat="43.639281" lon="11.2081073"><ele>273.0</ele><time>2026-04-19T09:33:02.275Z</time></trkpt><trkpt lat="43.6392035" lon="11.2082229"><ele>273.0</ele><time>2026-04-19T09:33:04.233Z</time></trkpt><trkpt lat="43.6391604" lon="11.2082967"><ele>273.0</ele><time>2026-04-19T09:33:05.203Z</time></trkpt><trkpt lat="43.6391081" lon="11.2083752"><ele>273.0</ele><time>2026-04-19T09:33:06.216Z</time></trkpt><trkpt lat="43.639059" lon="11.2084538"><ele>273.0</ele><time>2026-04-19T09:33:07.209Z</time></trkpt><trkpt lat="43.6390087" lon="11.208531"><ele>273.0</ele><time>2026-04-19T09:33:08.236Z</time></trkpt><trkpt lat="43.638956" lon="11.2086047"><ele>273.0</ele><time>2026-04-19T09:33:09.214Z</time></trkpt><trkpt lat="43.6388966" lon="11.2086667"><ele>273.0</ele><time>2026-04-19T09:33:10.228Z</time></trkpt><trkpt lat="43.6387887" lon="11.2087126"><ele>273.0</ele><time>2026-04-19T09:33:12.225Z</time></trkpt><trkpt lat="43.6386993" lon="11.2086479"><ele>273.0</ele><time>2026-04-19T09:33:14.211Z</time></trkpt><trkpt lat="43.638656" lon="11.2085798"><ele>273.0</ele><time>2026-04-19T09:33:15.213Z</time></trkpt><trkpt lat="43.6386162" lon="11.2084922"><ele>273.0</ele><time>2026-04-19T09:33:16.214Z</time></trkpt><trkpt lat="43.638576" lon="11.2084093"><ele>273.0</ele><time>2026-04-19T09:33:17.217Z</time></trkpt><trkpt lat="43.6385264" lon="11.208331"><ele>273.0</ele><time>2026-04-19T09:33:18.215Z</time></trkpt><trkpt lat="43.6384682" lon="11.2082463"><ele>270.8333333333333</ele><time>2026-04-19T09:33:19.219Z</time></trkpt><trkpt lat="43.6384108" lon="11.2081624"><ele>268.6666666666667</ele><time>2026-04-19T09:33:20.211Z</time></trkpt><trkpt lat="43.6383597" lon="11.2080862"><ele>266.5</ele><time>2026-04-19T09:33:21.216Z</time></trkpt><trkpt lat="43.6383044" lon="11.2080024"><ele>264.33333333333337</ele><time>2026-04-19T09:33:22.213Z</time></trkpt><trkpt lat="43.6382499" lon="11.2079135"><ele>262.1666666666667</ele><time>2026-04-19T09:33:23.21Z</time></trkpt><trkpt lat="43.6381989" lon="11.2078314"><ele>260.0</ele><time>2026-04-19T09:33:24.213Z</time></trkpt><trkpt lat="43.6381542" lon="11.2077596"><ele>260.28571428571433</ele><time>2026-04-19T09:33:25.214Z</time></trkpt><trkpt lat="43.6381095" lon="11.207691"><ele>260.57142857142856</ele><time>2026-04-19T09:33:26.22Z</time></trkpt><trkpt lat="43.6380574" lon="11.2076219"><ele>260.8571428571429</ele><time>2026-04-19T09:33:27.209Z</time></trkpt><trkpt lat="43.638013" lon="11.2075579"><ele>261.14285714285717</ele><time>2026-04-19T09:33:28.212Z</time></trkpt><trkpt lat="43.6379684" lon="11.2074873"><ele>261.42857142857144</ele><time>2026-04-19T09:33:29.207Z</time></trkpt><trkpt lat="43.6379212" lon="11.2074198"><ele>261.7142857142857</ele><time>2026-04-19T09:33:30.211Z</time></trkpt><trkpt lat="43.6378723" lon="11.2073519"><ele>262.0</ele><time>2026-04-19T09:33:31.198Z</time></trkpt><trkpt lat="43.6378241" lon="11.207288"><ele>257.4</ele><time>2026-04-19T09:33:32.2Z</time></trkpt><trkpt lat="43.6377423" lon="11.207162"><ele>252.79999999999998</ele><time>2026-04-19T09:33:34.218Z</time></trkpt><trkpt lat="43.6376763" lon="11.2070518"><ele>248.2</ele><time>2026-04-19T09:33:36.213Z</time></trkpt><trkpt lat="43.6376065" lon="11.2069253"><ele>243.6</ele><time>2026-04-19T09:33:38.215Z</time></trkpt><trkpt lat="43.6375701" lon="11.2068516"><ele>239.0</ele><time>2026-04-19T09:33:39.211Z</time></trkpt><trkpt lat="43.6374918" lon="11.2067341"><ele>239.00000000000003</ele><time>2026-04-19T09:33:41.209Z</time></trkpt><trkpt lat="43.6374036" lon="11.2065979"><ele>239.0</ele><time>2026-04-19T09:33:43.214Z</time></trkpt><trkpt lat="43.6373598" lon="11.2065187"><ele>239.0</ele><time>2026-04-19T09:33:44.209Z</time></trkpt><trkpt lat="43.6373075" lon="11.2064382"><ele>239.0</ele><time>2026-04-19T09:33:45.272Z</time></trkpt><trkpt lat="43.6372529" lon="11.206369"><ele>239.00000000000003</ele><time>2026-04-19T09:33:46.254Z</time></trkpt><trkpt lat="43.6371904" lon="11.2062856"><ele>239.0</ele><time>2026-04-19T09:33:47.252Z</time></trkpt><trkpt lat="43.6371245" lon="11.2062144"><ele>240.83333333333334</ele><time>2026-04-19T09:33:48.268Z</time></trkpt><trkpt lat="43.6370471" lon="11.2061637"><ele>242.66666666666669</ele><time>2026-04-19T09:33:49.261Z</time></trkpt><trkpt lat="43.6369753" lon="11.2061113"><ele>244.5</ele><time>2026-04-19T09:33:50.266Z</time></trkpt><trkpt lat="43.6369098" lon="11.2060754"><ele>246.33333333333331</ele><time>2026-04-19T09:33:51.265Z</time></trkpt><trkpt lat="43.6368424" lon="11.2060528"><ele>248.16666666666666</ele><time>2026-04-19T09:33:52.263Z</time></trkpt><trkpt lat="43.6367736" lon="11.2060296"><ele>250.0</ele><time>2026-04-19T09:33:53.256Z</time></trkpt><trkpt lat="43.6366621" lon="11.2059705"><ele>245.66666666666666</ele><time>2026-04-19T09:33:55.251Z</time></trkpt><trkpt lat="43.6365397" lon="11.2059153"><ele>241.33333333333331</ele><time>2026-04-19T09:33:57.247Z</time></trkpt><trkpt lat="43.6364764" lon="11.2058973"><ele>237.0</ele><time>2026-04-19T09:33:58.249Z</time></trkpt><trkpt lat="43.6364126" lon="11.2058832"><ele>232.66666666666669</ele><time>2026-04-19T09:33:59.262Z</time></trkpt><trkpt lat="43.6363431" lon="11.2058628"><ele>228.33333333333334</ele><time>2026-04-19T09:34:00.262Z</time></trkpt><trkpt lat="43.6362607" lon="11.2058415"><ele>224.0</ele><time>2026-04-19T09:34:01.253Z</time></trkpt><trkpt lat="43.6361942" lon="11.2058529"><ele>220.66666666666669</ele><time>2026-04-19T09:34:02.254Z</time></trkpt><trkpt lat="43.6361243" lon="11.2058755"><ele>217.33333333333334</ele><time>2026-04-19T09:34:03.268Z</time></trkpt><trkpt lat="43.6360589" lon="11.2059009"><ele>214.0</ele><time>2026-04-19T09:34:04.268Z</time></trkpt><trkpt lat="43.6359999" lon="11.2059436"><ele>210.66666666666669</ele><time>2026-04-19T09:34:05.264Z</time></trkpt><trkpt lat="43.6359319" lon="11.2060046"><ele>207.33333333333334</ele><time>2026-04-19T09:34:06.27Z</time></trkpt><trkpt lat="43.6358591" lon="11.2060611"><ele>204.0</ele><time>2026-04-19T09:34:07.26Z</time></trkpt><trkpt lat="43.6357758" lon="11.2061049"><ele>204.0</ele><time>2026-04-19T09:34:08.264Z</time></trkpt><trkpt lat="43.635686" lon="11.2061511"><ele>204.0</ele><time>2026-04-19T09:34:09.267Z</time></trkpt><trkpt lat="43.635614" lon="11.2062086"><ele>204.0</ele><time>2026-04-19T09:34:10.27Z</time></trkpt><trkpt lat="43.6355512" lon="11.2062636"><ele>204.0</ele><time>2026-04-19T09:34:11.272Z</time></trkpt><trkpt lat="43.6354825" lon="11.206315"><ele>204.0</ele><time>2026-04-19T09:34:12.273Z</time></trkpt><trkpt lat="43.6354146" lon="11.2063722"><ele>204.0</ele><time>2026-04-19T09:34:13.259Z</time></trkpt><trkpt lat="43.6353541" lon="11.2064189"><ele>203.66666666666666</ele><time>2026-04-19T09:34:14.206Z</time></trkpt><trkpt lat="43.6352935" lon="11.2064631"><ele>203.33333333333331</ele><time>2026-04-19T09:34:15.203Z</time></trkpt><trkpt lat="43.6351898" lon="11.2065377"><ele>203.0</ele><time>2026-04-19T09:34:17.209Z</time></trkpt><trkpt lat="43.6350933" lon="11.2065894"><ele>202.66666666666666</ele><time>2026-04-19T09:34:19.201Z</time></trkpt><trkpt lat="43.6350243" lon="11.206643"><ele>202.33333333333331</ele><time>2026-04-19T09:34:21.209Z</time></trkpt><trkpt lat="43.6349667" lon="11.2066824"><ele>202.0</ele><time>2026-04-19T09:34:23.212Z</time></trkpt><trkpt lat="43.6348902" lon="11.206735"><ele>202.0</ele><time>2026-04-19T09:34:25.207Z</time></trkpt><trkpt lat="43.6348187" lon="11.2067851"><ele>202.0</ele><time>2026-04-19T09:34:27.205Z</time></trkpt><trkpt lat="43.6347373" lon="11.2068602"><ele>202.0</ele><time>2026-04-19T09:34:29.198Z</time></trkpt><trkpt lat="43.6346536" lon="11.2069471"><ele>202.0</ele><time>2026-04-19T09:34:31.198Z</time></trkpt><trkpt lat="43.6345714" lon="11.2070627"><ele>202.0</ele><time>2026-04-19T09:34:33.2Z</time></trkpt><trkpt lat="43.6345036" lon="11.2072027"><ele>199.39999999999998</ele><time>2026-04-19T09:34:35.215Z</time></trkpt><trkpt lat="43.6344432" lon="11.2073219"><ele>196.79999999999998</ele><time>2026-04-19T09:34:37.201Z</time></trkpt><trkpt lat="43.634409" lon="11.2074551"><ele>194.2</ele><time>2026-04-19T09:34:39.207Z</time></trkpt><trkpt lat="43.6343811" lon="11.2075881"><ele>191.6</ele><time>2026-04-19T09:34:41.208Z</time></trkpt><trkpt lat="43.6343599" lon="11.2077346"><ele>189.0</ele><time>2026-04-19T09:34:43.207Z</time></trkpt><trkpt lat="43.6343147" lon="11.2078527"><ele>189.0</ele><time>2026-04-19T09:34:45.212Z</time></trkpt><trkpt lat="43.6342557" lon="11.207946"><ele>189.0</ele><time>2026-04-19T09:34:47.208Z</time></trkpt><trkpt lat="43.6341602" lon="11.2079339"><ele>189.0</ele><time>2026-04-19T09:34:50.224Z</time></trkpt><trkpt lat="43.6340916" lon="11.2078621"><ele>189.0</ele><time>2026-04-19T09:34:52.218Z</time></trkpt><trkpt lat="43.6340147" lon="11.2077867"><ele>189.0</ele><time>2026-04-19T09:34:54.209Z</time></trkpt><trkpt lat="43.6339192" lon="11.2077059"><ele>189.0</ele><time>2026-04-19T09:34:56.213Z</time></trkpt><trkpt lat="43.6338334" lon="11.2076253"><ele>189.0</ele><time>2026-04-19T09:34:58.207Z</time></trkpt><trkpt lat="43.633749" lon="11.2075541"><ele>189.0</ele><time>2026-04-19T09:35:00.208Z</time></trkpt><trkpt lat="43.6336583" lon="11.2075193"><ele>189.0</ele><time>2026-04-19T09:35:02.213Z</time></trkpt><trkpt lat="43.6335669" lon="11.2075129"><ele>189.0</ele><time>2026-04-19T09:35:04.208Z</time></trkpt><trkpt lat="43.63347" lon="11.2075288"><ele>186.39999999999998</ele><time>2026-04-19T09:35:06.213Z</time></trkpt><trkpt lat="43.6333736" lon="11.2075235"><ele>183.8</ele><time>2026-04-19T09:35:08.217Z</time></trkpt><trkpt lat="43.6332884" lon="11.2074756"><ele>181.2</ele><time>2026-04-19T09:35:10.211Z</time></trkpt><trkpt lat="43.6331963" lon="11.2074023"><ele>178.60000000000002</ele><time>2026-04-19T09:35:12.208Z</time></trkpt><trkpt lat="43.6330961" lon="11.2073428"><ele>176.0</ele><time>2026-04-19T09:35:14.205Z</time></trkpt><trkpt lat="43.6329946" lon="11.2072958"><ele>175.66666666666666</ele><time>2026-04-19T09:35:16.207Z</time></trkpt><trkpt lat="43.6329054" lon="11.2072936"><ele>175.33333333333331</ele><time>2026-04-19T09:35:18.206Z</time></trkpt><trkpt lat="43.6328198" lon="11.2072941"><ele>175.0</ele><time>2026-04-19T09:35:21.253Z</time></trkpt><trkpt lat="43.6327992" lon="11.2072032"><ele>174.66666666666666</ele><time>2026-04-19T09:35:24.203Z</time></trkpt><trkpt lat="43.6328071" lon="11.2070971"><ele>174.33333333333334</ele><time>2026-04-19T09:35:27.2Z</time></trkpt><trkpt lat="43.6328251" lon="11.2069902"><ele>174.0</ele><time>2026-04-19T09:35:30.201Z</time></trkpt><trkpt lat="43.6328491" lon="11.2068866"><ele>174.0</ele><time>2026-04-19T09:35:32.193Z</time></trkpt><trkpt lat="43.6328794" lon="11.2067552"><ele>174.0</ele><time>2026-04-19T09:35:34.199Z</time></trkpt><trkpt lat="43.6329208" lon="11.2066674"><ele>174.0</ele><time>2026-04-19T09:35:35.201Z</time></trkpt><trkpt lat="43.6329649" lon="11.2065705"><ele>174.0</ele><time>2026-04-19T09:35:36.212Z</time></trkpt><trkpt lat="43.6330051" lon="11.2064807"><ele>174.0</ele><time>2026-04-19T09:35:37.192Z</time></trkpt><trkpt lat="43.6330361" lon="11.206389"><ele>174.0</ele><time>2026-04-19T09:35:38.208Z</time></trkpt><trkpt lat="43.6330746" lon="11.2062904"><ele>173.39999999999998</ele><time>2026-04-19T09:35:39.214Z</time></trkpt><trkpt lat="43.6331022" lon="11.206178"><ele>172.8</ele><time>2026-04-19T09:35:40.2Z</time></trkpt><trkpt lat="43.6331251" lon="11.2060571"><ele>172.2</ele><time>2026-04-19T09:35:41.2Z</time></trkpt><trkpt lat="43.6331574" lon="11.2059388"><ele>171.60000000000002</ele><time>2026-04-19T09:35:42.21Z</time></trkpt><trkpt lat="43.6331954" lon="11.2058179"><ele>171.0</ele><time>2026-04-19T09:35:43.203Z</time></trkpt><trkpt lat="43.633229" lon="11.2056949"><ele>171.60000000000002</ele><time>2026-04-19T09:35:44.199Z</time></trkpt><trkpt lat="43.6332739" lon="11.2055619"><ele>172.2</ele><time>2026-04-19T09:35:45.203Z</time></trkpt><trkpt lat="43.6333143" lon="11.2054247"><ele>172.8</ele><time>2026-04-19T09:35:46.212Z</time></trkpt><trkpt lat="43.633363" lon="11.2052936"><ele>173.39999999999998</ele><time>2026-04-19T09:35:47.203Z</time></trkpt><trkpt lat="43.6334168" lon="11.2051771"><ele>174.0</ele><time>2026-04-19T09:35:48.223Z</time></trkpt><trkpt lat="43.6334721" lon="11.2050824"><ele>174.0</ele><time>2026-04-19T09:35:49.198Z</time></trkpt><trkpt lat="43.6335221" lon="11.2049937"><ele>174.0</ele><time>2026-04-19T09:35:50.201Z</time></trkpt><trkpt lat="43.6335659" lon="11.2049065"><ele>174.0</ele><time>2026-04-19T09:35:51.207Z</time></trkpt><trkpt lat="43.6335971" lon="11.2048101"><ele>174.0</ele><time>2026-04-19T09:35:52.209Z</time></trkpt><trkpt lat="43.6336204" lon="11.2047284"><ele>174.0</ele><time>2026-04-19T09:35:53.203Z</time></trkpt><trkpt lat="43.6336365" lon="11.204638"><ele>174.0</ele><time>2026-04-19T09:35:54.201Z</time></trkpt><trkpt lat="43.6336565" lon="11.2045407"><ele>174.0</ele><time>2026-04-19T09:35:55.207Z</time></trkpt><trkpt lat="43.633682" lon="11.2044385"><ele>173.0</ele><time>2026-04-19T09:35:56.216Z</time></trkpt><trkpt lat="43.6337121" lon="11.2043304"><ele>172.0</ele><time>2026-04-19T09:35:57.202Z</time></trkpt><trkpt lat="43.6337431" lon="11.2042127"><ele>171.0</ele><time>2026-04-19T09:35:58.201Z</time></trkpt><trkpt lat="43.6337719" lon="11.204109"><ele>170.0</ele><time>2026-04-19T09:35:59.212Z</time></trkpt><trkpt lat="43.6337973" lon="11.2040101"><ele>169.0</ele><time>2026-04-19T09:36:00.203Z</time></trkpt><trkpt lat="43.6338175" lon="11.2039225"><ele>168.0</ele><time>2026-04-19T09:36:01.198Z</time></trkpt><trkpt lat="43.6338657" lon="11.2037647"><ele>168.0</ele><time>2026-04-19T09:36:03.212Z</time></trkpt><trkpt lat="43.6339233" lon="11.2036133"><ele>168.0</ele><time>2026-04-19T09:36:05.197Z</time></trkpt><trkpt lat="43.6339752" lon="11.2034722"><ele>168.0</ele><time>2026-04-19T09:36:07.202Z</time></trkpt><trkpt lat="43.6340411" lon="11.2033462"><ele>168.0</ele><time>2026-04-19T09:36:09.203Z</time></trkpt><trkpt lat="43.634135" lon="11.2032394"><ele>168.0</ele><time>2026-04-19T09:36:11.201Z</time></trkpt><trkpt lat="43.6341864" lon="11.2031804"><ele>168.0</ele><time>2026-04-19T09:36:12.212Z</time></trkpt><trkpt lat="43.6342374" lon="11.2030605"><ele>168.0</ele><time>2026-04-19T09:36:14.212Z</time></trkpt><trkpt lat="43.6342579" lon="11.2029418"><ele>168.0</ele><time>2026-04-19T09:36:16.201Z</time></trkpt><trkpt lat="43.6342423" lon="11.2028194"><ele>168.0</ele><time>2026-04-19T09:36:18.201Z</time></trkpt><trkpt lat="43.6341819" lon="11.2026985"><ele>168.0</ele><time>2026-04-19T09:36:20.212Z</time></trkpt><trkpt lat="43.6341193" lon="11.202572"><ele>168.0</ele><time>2026-04-19T09:36:22.211Z</time></trkpt><trkpt lat="43.6340762" lon="11.2024454"><ele>168.0</ele><time>2026-04-19T09:36:24.205Z</time></trkpt><trkpt lat="43.6340829" lon="11.2022988"><ele>168.0</ele><time>2026-04-19T09:36:26.208Z</time></trkpt><trkpt lat="43.6341262" lon="11.2021531"><ele>168.0</ele><time>2026-04-19T09:36:28.206Z</time></trkpt><trkpt lat="43.6341569" lon="11.2020733"><ele>167.66666666666666</ele><time>2026-04-19T09:36:29.211Z</time></trkpt><trkpt lat="43.6341793" lon="11.2019851"><ele>167.33333333333334</ele><time>2026-04-19T09:36:30.207Z</time></trkpt><trkpt lat="43.6342018" lon="11.2018888"><ele>167.0</ele><time>2026-04-19T09:36:31.208Z</time></trkpt><trkpt lat="43.6342317" lon="11.2017955"><ele>166.66666666666669</ele><time>2026-04-19T09:36:32.212Z</time></trkpt><trkpt lat="43.634271" lon="11.2016958"><ele>166.33333333333334</ele><time>2026-04-19T09:36:33.203Z</time></trkpt><trkpt lat="43.6343132" lon="11.2016026"><ele>166.0</ele><time>2026-04-19T09:36:34.202Z</time></trkpt><trkpt lat="43.6343535" lon="11.2015031"><ele>165.33333333333334</ele><time>2026-04-19T09:36:35.208Z</time></trkpt><trkpt lat="43.6344017" lon="11.201404"><ele>164.66666666666669</ele><time>2026-04-19T09:36:36.196Z</time></trkpt><trkpt lat="43.6344556" lon="11.2013005"><ele>164.0</ele><time>2026-04-19T09:36:37.212Z</time></trkpt><trkpt lat="43.6345129" lon="11.2011966"><ele>163.33333333333334</ele><time>2026-04-19T09:36:38.205Z</time></trkpt><trkpt lat="43.6345595" lon="11.2010882"><ele>162.66666666666666</ele><time>2026-04-19T09:36:39.21Z</time></trkpt><trkpt lat="43.6345998" lon="11.2009914"><ele>162.0</ele><time>2026-04-19T09:36:40.211Z</time></trkpt><trkpt lat="43.6346339" lon="11.2009013"><ele>162.0</ele><time>2026-04-19T09:36:41.207Z</time></trkpt><trkpt lat="43.6346629" lon="11.2008035"><ele>162.0</ele><time>2026-04-19T09:36:42.227Z</time></trkpt><trkpt lat="43.6346841" lon="11.2006999"><ele>162.0</ele><time>2026-04-19T09:36:43.212Z</time></trkpt><trkpt lat="43.6347022" lon="11.200604"><ele>162.0</ele><time>2026-04-19T09:36:44.21Z</time></trkpt><trkpt lat="43.6347127" lon="11.200493"><ele>162.0</ele><time>2026-04-19T09:36:45.212Z</time></trkpt><trkpt lat="43.6347215" lon="11.200385"><ele>162.0</ele><time>2026-04-19T09:36:46.204Z</time></trkpt><trkpt lat="43.6347125" lon="11.2002876"><ele>162.0</ele><time>2026-04-19T09:36:47.198Z</time></trkpt><trkpt lat="43.6346948" lon="11.2001962"><ele>162.0</ele><time>2026-04-19T09:36:48.205Z</time></trkpt><trkpt lat="43.6346268" lon="11.2000588"><ele>162.0</ele><time>2026-04-19T09:36:50.2Z</time></trkpt><trkpt lat="43.6345644" lon="11.1999395"><ele>162.0</ele><time>2026-04-19T09:36:52.212Z</time></trkpt><trkpt lat="43.6345274" lon="11.1998222"><ele>162.0</ele><time>2026-04-19T09:36:54.2Z</time></trkpt><trkpt lat="43.6345247" lon="11.1997127"><ele>161.66666666666666</ele><time>2026-04-19T09:36:56.202Z</time></trkpt><trkpt lat="43.634503" lon="11.1996271"><ele>161.33333333333334</ele><time>2026-04-19T09:37:01.204Z</time></trkpt><trkpt lat="43.6345121" lon="11.1994882"><ele>161.0</ele><time>2026-04-19T09:37:08.217Z</time></trkpt><trkpt lat="43.6345157" lon="11.1993174"><ele>160.66666666666669</ele><time>2026-04-19T09:37:10.208Z</time></trkpt><trkpt lat="43.6345135" lon="11.1992238"><ele>160.33333333333334</ele><time>2026-04-19T09:37:11.203Z</time></trkpt><trkpt lat="43.6345067" lon="11.1991173"><ele>160.0</ele><time>2026-04-19T09:37:12.195Z</time></trkpt><trkpt lat="43.6345037" lon="11.1990068"><ele>159.6</ele><time>2026-04-19T09:37:13.206Z</time></trkpt><trkpt lat="43.6345038" lon="11.198885"><ele>159.2</ele><time>2026-04-19T09:37:14.194Z</time></trkpt><trkpt lat="43.6345086" lon="11.1987657"><ele>158.8</ele><time>2026-04-19T09:37:15.189Z</time></trkpt><trkpt lat="43.6345285" lon="11.1986378"><ele>158.4</ele><time>2026-04-19T09:37:16.206Z</time></trkpt><trkpt lat="43.6345594" lon="11.1984992"><ele>158.0</ele><time>2026-04-19T09:37:17.201Z</time></trkpt><trkpt lat="43.6345861" lon="11.1983549"><ele>158.0</ele><time>2026-04-19T09:37:18.203Z</time></trkpt><trkpt lat="43.6346153" lon="11.1982089"><ele>158.0</ele><time>2026-04-19T09:37:19.204Z</time></trkpt><trkpt lat="43.6346494" lon="11.1980576"><ele>158.0</ele><time>2026-04-19T09:37:20.196Z</time></trkpt><trkpt lat="43.6346885" lon="11.1979222"><ele>158.0</ele><time>2026-04-19T09:37:21.206Z</time></trkpt><trkpt lat="43.6347268" lon="11.197776"><ele>158.0</ele><time>2026-04-19T09:37:22.198Z</time></trkpt><trkpt lat="43.6347621" lon="11.1976122"><ele>158.0</ele><time>2026-04-19T09:37:23.202Z</time></trkpt><trkpt lat="43.634801" lon="11.1974468"><ele>158.0</ele><time>2026-04-19T09:37:24.213Z</time></trkpt><trkpt lat="43.6348404" lon="11.1972721"><ele>158.0</ele><time>2026-04-19T09:37:25.2Z</time></trkpt><trkpt lat="43.6348733" lon="11.1971063"><ele>158.0</ele><time>2026-04-19T09:37:26.205Z</time></trkpt><trkpt lat="43.6349065" lon="11.1969421"><ele>158.0</ele><time>2026-04-19T09:37:27.206Z</time></trkpt><trkpt lat="43.6349367" lon="11.1967821"><ele>158.0</ele><time>2026-04-19T09:37:28.206Z</time></trkpt><trkpt lat="43.6349692" lon="11.1966269"><ele>158.0</ele><time>2026-04-19T09:37:29.196Z</time></trkpt><trkpt lat="43.6350007" lon="11.1964736"><ele>158.0</ele><time>2026-04-19T09:37:30.22Z</time></trkpt><trkpt lat="43.635038" lon="11.1963199"><ele>159.0</ele><time>2026-04-19T09:37:31.209Z</time></trkpt><trkpt lat="43.6350675" lon="11.1961657"><ele>160.0</ele><time>2026-04-19T09:37:32.204Z</time></trkpt><trkpt lat="43.6350987" lon="11.1960181"><ele>161.0</ele><time>2026-04-19T09:37:33.203Z</time></trkpt><trkpt lat="43.6351344" lon="11.1958646"><ele>162.0</ele><time>2026-04-19T09:37:34.196Z</time></trkpt><trkpt lat="43.6351678" lon="11.1957192"><ele>163.39999999999998</ele><time>2026-04-19T09:37:35.196Z</time></trkpt><trkpt lat="43.6351988" lon="11.1955734"><ele>164.79999999999998</ele><time>2026-04-19T09:37:36.203Z</time></trkpt><trkpt lat="43.635232" lon="11.1954323"><ele>166.2</ele><time>2026-04-19T09:37:37.214Z</time></trkpt><trkpt lat="43.6352573" lon="11.1952803"><ele>167.6</ele><time>2026-04-19T09:37:38.205Z</time></trkpt><trkpt lat="43.6352796" lon="11.1951212"><ele>169.0</ele><time>2026-04-19T09:37:39.206Z</time></trkpt><trkpt lat="43.6353026" lon="11.1949575"><ele>164.5</ele><time>2026-04-19T09:37:40.208Z</time></trkpt><trkpt lat="43.6353286" lon="11.1948003"><ele>160.0</ele><time>2026-04-19T09:37:41.201Z</time></trkpt><trkpt lat="43.6353573" lon="11.1946437"><ele>155.5</ele><time>2026-04-19T09:37:42.201Z</time></trkpt><trkpt lat="43.6353852" lon="11.1944965"><ele>151.0</ele><time>2026-04-19T09:37:43.206Z</time></trkpt><trkpt lat="43.6354132" lon="11.1943526"><ele>151.0</ele><time>2026-04-19T09:37:44.205Z</time></trkpt><trkpt lat="43.6354422" lon="11.1942188"><ele>151.0</ele><time>2026-04-19T09:37:45.206Z</time></trkpt><trkpt lat="43.6354754" lon="11.1940882"><ele>151.0</ele><time>2026-04-19T09:37:46.2Z</time></trkpt><trkpt lat="43.6355079" lon="11.1939569"><ele>151.0</ele><time>2026-04-19T09:37:47.197Z</time></trkpt><trkpt lat="43.635532" lon="11.1938387"><ele>151.0</ele><time>2026-04-19T09:37:48.199Z</time></trkpt><trkpt lat="43.6355552" lon="11.1937473"><ele>151.2</ele><time>2026-04-19T09:37:49.205Z</time></trkpt><trkpt lat="43.6355827" lon="11.1935978"><ele>151.39999999999998</ele><time>2026-04-19T09:37:51.206Z</time></trkpt><trkpt lat="43.6355954" lon="11.1934751"><ele>151.6</ele><time>2026-04-19T09:37:53.2Z</time></trkpt><trkpt lat="43.6356023" lon="11.1933863"><ele>151.79999999999998</ele><time>2026-04-19T09:38:20.207Z</time></trkpt><trkpt lat="43.6356202" lon="11.1932106"><ele>152.0</ele><time>2026-04-19T09:38:22.204Z</time></trkpt><trkpt lat="43.6356405" lon="11.1930985"><ele>152.0</ele><time>2026-04-19T09:38:23.207Z</time></trkpt><trkpt lat="43.6356614" lon="11.1929815"><ele>152.0</ele><time>2026-04-19T09:38:24.213Z</time></trkpt><trkpt lat="43.6356733" lon="11.1928504"><ele>152.0</ele><time>2026-04-19T09:38:25.208Z</time></trkpt><trkpt lat="43.6356828" lon="11.1927238"><ele>152.0</ele><time>2026-04-19T09:38:26.209Z</time></trkpt><trkpt lat="43.6356935" lon="11.1925897"><ele>152.0</ele><time>2026-04-19T09:38:27.214Z</time></trkpt><trkpt lat="43.6357166" lon="11.1924474"><ele>151.79999999999998</ele><time>2026-04-19T09:38:28.204Z</time></trkpt><trkpt lat="43.6357473" lon="11.1923022"><ele>151.6</ele><time>2026-04-19T09:38:29.215Z</time></trkpt><trkpt lat="43.6357815" lon="11.1921583"><ele>151.39999999999998</ele><time>2026-04-19T09:38:30.215Z</time></trkpt><trkpt lat="43.6358194" lon="11.1920162"><ele>151.2</ele><time>2026-04-19T09:38:31.195Z</time></trkpt><trkpt lat="43.6358423" lon="11.1918842"><ele>151.0</ele><time>2026-04-19T09:38:32.2Z</time></trkpt><trkpt lat="43.6358605" lon="11.191763"><ele>151.0</ele><time>2026-04-19T09:38:33.2Z</time></trkpt><trkpt lat="43.6358743" lon="11.1916516"><ele>151.0</ele><time>2026-04-19T09:38:34.2Z</time></trkpt><trkpt lat="43.6358926" lon="11.1915345"><ele>151.0</ele><time>2026-04-19T09:38:35.205Z</time></trkpt><trkpt lat="43.6359089" lon="11.19142"><ele>151.0</ele><time>2026-04-19T09:38:36.204Z</time></trkpt><trkpt lat="43.6359225" lon="11.1913166"><ele>151.0</ele><time>2026-04-19T09:38:37.207Z</time></trkpt><trkpt lat="43.6359393" lon="11.1912092"><ele>151.0</ele><time>2026-04-19T09:38:38.208Z</time></trkpt><trkpt lat="43.6359549" lon="11.1911015"><ele>150.66666666666669</ele><time>2026-04-19T09:38:39.2Z</time></trkpt><trkpt lat="43.6359646" lon="11.1909865"><ele>150.33333333333334</ele><time>2026-04-19T09:38:40.203Z</time></trkpt><trkpt lat="43.6359757" lon="11.1908746"><ele>150.0</ele><time>2026-04-19T09:38:41.207Z</time></trkpt><trkpt lat="43.6359704" lon="11.1907694"><ele>149.66666666666666</ele><time>2026-04-19T09:38:42.201Z</time></trkpt><trkpt lat="43.6359616" lon="11.1906579"><ele>149.33333333333331</ele><time>2026-04-19T09:38:43.204Z</time></trkpt><trkpt lat="43.6359547" lon="11.1905482"><ele>149.0</ele><time>2026-04-19T09:38:44.203Z</time></trkpt><trkpt lat="43.6359455" lon="11.1904436"><ele>148.71428571428572</ele><time>2026-04-19T09:38:45.213Z</time></trkpt><trkpt lat="43.6359414" lon="11.1903431"><ele>148.42857142857142</ele><time>2026-04-19T09:38:46.215Z</time></trkpt><trkpt lat="43.6359414" lon="11.1902466"><ele>148.14285714285714</ele><time>2026-04-19T09:38:47.223Z</time></trkpt><trkpt lat="43.6359368" lon="11.1901516"><ele>147.85714285714286</ele><time>2026-04-19T09:38:48.216Z</time></trkpt><trkpt lat="43.635929" lon="11.1900538"><ele>147.57142857142856</ele><time>2026-04-19T09:38:49.21Z</time></trkpt><trkpt lat="43.6359143" lon="11.1899599"><ele>147.28571428571428</ele><time>2026-04-19T09:38:50.202Z</time></trkpt><trkpt lat="43.6358826" lon="11.1898603"><ele>147.0</ele><time>2026-04-19T09:38:51.201Z</time></trkpt><trkpt lat="43.6358601" lon="11.1897506"><ele>146.66666666666666</ele><time>2026-04-19T09:38:52.21Z</time></trkpt><trkpt lat="43.6358409" lon="11.189645"><ele>146.33333333333334</ele><time>2026-04-19T09:38:53.184Z</time></trkpt><trkpt lat="43.6358212" lon="11.1895221"><ele>146.0</ele><time>2026-04-19T09:38:54.201Z</time></trkpt><trkpt lat="43.6358056" lon="11.1894195"><ele>145.66666666666669</ele><time>2026-04-19T09:38:55.197Z</time></trkpt><trkpt lat="43.6357951" lon="11.1893098"><ele>145.33333333333334</ele><time>2026-04-19T09:38:56.206Z</time></trkpt><trkpt lat="43.6357841" lon="11.1892205"><ele>145.0</ele><time>2026-04-19T09:38:57.207Z</time></trkpt><trkpt lat="43.6357648" lon="11.1891369"><ele>145.0</ele><time>2026-04-19T09:38:58.193Z</time></trkpt><trkpt lat="43.6357423" lon="11.1889823"><ele>145.0</ele><time>2026-04-19T09:39:00.2Z</time></trkpt><trkpt lat="43.6357222" lon="11.1888589"><ele>145.0</ele><time>2026-04-19T09:39:02.203Z</time></trkpt><trkpt lat="43.6357183" lon="11.1887389"><ele>145.0</ele><time>2026-04-19T09:39:04.201Z</time></trkpt><trkpt lat="43.6357296" lon="11.1885954"><ele>145.0</ele><time>2026-04-19T09:39:06.202Z</time></trkpt><trkpt lat="43.6357108" lon="11.1884933"><ele>145.0</ele><time>2026-04-19T09:39:07.219Z</time></trkpt><trkpt lat="43.6356903" lon="11.1883936"><ele>145.0</ele><time>2026-04-19T09:39:08.202Z</time></trkpt><trkpt lat="43.6356543" lon="11.1882941"><ele>145.0</ele><time>2026-04-19T09:39:09.201Z</time></trkpt><trkpt lat="43.6356249" lon="11.1881897"><ele>145.0</ele><time>2026-04-19T09:39:10.202Z</time></trkpt><trkpt lat="43.6355927" lon="11.1880706"><ele>145.0</ele><time>2026-04-19T09:39:11.198Z</time></trkpt><trkpt lat="43.6355622" lon="11.1879798"><ele>145.0</ele><time>2026-04-19T09:39:12.204Z</time></trkpt><trkpt lat="43.6355338" lon="11.1879002"><ele>144.66666666666669</ele><time>2026-04-19T09:39:13.19Z</time></trkpt><trkpt lat="43.6355008" lon="11.1878224"><ele>144.33333333333334</ele><time>2026-04-19T09:39:14.208Z</time></trkpt><trkpt lat="43.6354607" lon="11.187732"><ele>144.0</ele><time>2026-04-19T09:39:15.207Z</time></trkpt><trkpt lat="43.6354323" lon="11.1876458"><ele>143.66666666666666</ele><time>2026-04-19T09:39:16.201Z</time></trkpt><trkpt lat="43.635409" lon="11.1875566"><ele>143.33333333333331</ele><time>2026-04-19T09:39:17.197Z</time></trkpt><trkpt lat="43.6353759" lon="11.1873843"><ele>143.0</ele><time>2026-04-19T09:39:19.203Z</time></trkpt><trkpt lat="43.6353697" lon="11.1872906"><ele>142.8</ele><time>2026-04-19T09:39:20.201Z</time></trkpt><trkpt lat="43.6353875" lon="11.1871179"><ele>142.60000000000002</ele><time>2026-04-19T09:39:22.202Z</time></trkpt><trkpt lat="43.6354117" lon="11.1870338"><ele>142.39999999999998</ele><time>2026-04-19T09:39:23.209Z</time></trkpt><trkpt lat="43.635462" lon="11.1868925"><ele>142.2</ele><time>2026-04-19T09:39:25.209Z</time></trkpt><trkpt lat="43.6355164" lon="11.186783"><ele>142.0</ele><time>2026-04-19T09:39:27.209Z</time></trkpt><trkpt lat="43.6355603" lon="11.186713"><ele>142.0</ele><time>2026-04-19T09:39:30.213Z</time></trkpt><trkpt lat="43.6356298" lon="11.1866878"><ele>142.0</ele><time>2026-04-19T09:39:32.21Z</time></trkpt><trkpt lat="43.6357249" lon="11.1867076"><ele>142.0</ele><time>2026-04-19T09:39:34.206Z</time></trkpt><trkpt lat="43.6358276" lon="11.1867766"><ele>142.0</ele><time>2026-04-19T09:39:36.224Z</time></trkpt><trkpt lat="43.6358969" lon="11.1868318"><ele>142.0</ele><time>2026-04-19T09:39:38.211Z</time></trkpt><trkpt lat="43.6359603" lon="11.1868044"><ele>142.0</ele><time>2026-04-19T09:39:41.2Z</time></trkpt><trkpt lat="43.6359745" lon="11.1867114"><ele>142.0</ele><time>2026-04-19T09:39:44.22Z</time></trkpt><trkpt lat="43.6359905" lon="11.1865758"><ele>142.0</ele><time>2026-04-19T09:39:47.219Z</time></trkpt><trkpt lat="43.6360005" lon="11.1864839"><ele>142.0</ele><time>2026-04-19T09:39:48.208Z</time></trkpt><trkpt lat="43.6360212" lon="11.1863338"><ele>142.0</ele><time>2026-04-19T09:39:50.2Z</time></trkpt><trkpt lat="43.6360389" lon="11.186197"><ele>142.0</ele><time>2026-04-19T09:39:52.199Z</time></trkpt><trkpt lat="43.6360468" lon="11.1860985"><ele>141.83333333333334</ele><time>2026-04-19T09:39:53.204Z</time></trkpt><trkpt lat="43.6360555" lon="11.1859953"><ele>141.66666666666669</ele><time>2026-04-19T09:39:54.212Z</time></trkpt><trkpt lat="43.6360766" lon="11.1858852"><ele>141.5</ele><time>2026-04-19T09:39:55.231Z</time></trkpt><trkpt lat="43.6360827" lon="11.1857908"><ele>141.33333333333334</ele><time>2026-04-19T09:39:56.196Z</time></trkpt><trkpt lat="43.6361097" lon="11.1856397"><ele>141.16666666666666</ele><time>2026-04-19T09:39:58.206Z</time></trkpt><trkpt lat="43.6361228" lon="11.1854914"><ele>141.0</ele><time>2026-04-19T09:40:00.21Z</time></trkpt><trkpt lat="43.6361254" lon="11.1853753"><ele>140.6</ele><time>2026-04-19T09:40:02.205Z</time></trkpt><trkpt lat="43.6360874" lon="11.1852741"><ele>140.2</ele><time>2026-04-19T09:40:04.217Z</time></trkpt><trkpt lat="43.6360574" lon="11.1851392"><ele>139.8</ele><time>2026-04-19T09:40:06.22Z</time></trkpt><trkpt lat="43.6360227" lon="11.1849784"><ele>139.4</ele><time>2026-04-19T09:40:08.222Z</time></trkpt><trkpt lat="43.6360048" lon="11.1848929"><ele>139.0</ele><time>2026-04-19T09:40:09.218Z</time></trkpt><trkpt lat="43.6359708" lon="11.1847332"><ele>138.8</ele><time>2026-04-19T09:40:11.224Z</time></trkpt><trkpt lat="43.6359437" lon="11.1845812"><ele>138.60000000000002</ele><time>2026-04-19T09:40:13.211Z</time></trkpt><trkpt lat="43.635904" lon="11.1844523"><ele>138.4</ele><time>2026-04-19T09:40:15.223Z</time></trkpt><trkpt lat="43.6358576" lon="11.1843426"><ele>138.20000000000002</ele><time>2026-04-19T09:40:17.203Z</time></trkpt><trkpt lat="43.6358135" lon="11.1841996"><ele>138.0</ele><time>2026-04-19T09:40:19.203Z</time></trkpt><trkpt lat="43.6357738" lon="11.1840648"><ele>138.16666666666666</ele><time>2026-04-19T09:40:21.202Z</time></trkpt><trkpt lat="43.6357362" lon="11.1839692"><ele>138.33333333333334</ele><time>2026-04-19T09:40:23.199Z</time></trkpt><trkpt lat="43.6356883" lon="11.1838866"><ele>138.5</ele><time>2026-04-19T09:40:25.21Z</time></trkpt><trkpt lat="43.6356306" lon="11.1838272"><ele>138.66666666666669</ele><time>2026-04-19T09:40:34.213Z</time></trkpt><trkpt lat="43.635576" lon="11.1837725"><ele>138.83333333333334</ele><time>2026-04-19T09:40:36.204Z</time></trkpt><trkpt lat="43.6355267" lon="11.1836714"><ele>139.0</ele><time>2026-04-19T09:40:38.206Z</time></trkpt><trkpt lat="43.635466" lon="11.1835649"><ele>139.0</ele><time>2026-04-19T09:40:40.205Z</time></trkpt><trkpt lat="43.6354241" lon="11.183469"><ele>139.0</ele><time>2026-04-19T09:40:42.204Z</time></trkpt><trkpt lat="43.6353841" lon="11.1833777"><ele>139.0</ele><time>2026-04-19T09:40:45.21Z</time></trkpt><trkpt lat="43.6353493" lon="11.1832927"><ele>139.0</ele><time>2026-04-19T09:40:53.221Z</time></trkpt><trkpt lat="43.6353252" lon="11.1832061"><ele>139.0</ele><time>2026-04-19T09:40:55.223Z</time></trkpt><trkpt lat="43.6352868" lon="11.1831335"><ele>139.0</ele><time>2026-04-19T09:42:57.208Z</time></trkpt><trkpt lat="43.6352929" lon="11.1832402"><ele>139.0</ele><time>2026-04-19T09:44:06.229Z</time></trkpt><trkpt lat="43.6353325" lon="11.1833362"><ele>139.0</ele><time>2026-04-19T09:44:08.218Z</time></trkpt><trkpt lat="43.6353958" lon="11.1834323"><ele>139.0</ele><time>2026-04-19T09:44:10.216Z</time></trkpt><trkpt lat="43.6354337" lon="11.1835464"><ele>139.0</ele><time>2026-04-19T09:44:12.225Z</time></trkpt><trkpt lat="43.6354781" lon="11.1836484"><ele>139.0</ele><time>2026-04-19T09:44:14.228Z</time></trkpt><trkpt lat="43.6355307" lon="11.1837473"><ele>139.0</ele><time>2026-04-19T09:44:16.224Z</time></trkpt><trkpt lat="43.635576" lon="11.1838161"><ele>139.0</ele><time>2026-04-19T09:44:18.216Z</time></trkpt><trkpt lat="43.6356321" lon="11.1838685"><ele>139.0</ele><time>2026-04-19T09:44:21.212Z</time></trkpt><trkpt lat="43.6356856" lon="11.1839436"><ele>139.0</ele><time>2026-04-19T09:44:23.222Z</time></trkpt><trkpt lat="43.6357443" lon="11.1840776"><ele>139.0</ele><time>2026-04-19T09:44:25.215Z</time></trkpt><trkpt lat="43.6357966" lon="11.1842344"><ele>139.0</ele><time>2026-04-19T09:44:27.222Z</time></trkpt><trkpt lat="43.6358297" lon="11.1843327"><ele>139.0</ele><time>2026-04-19T09:44:28.222Z</time></trkpt><trkpt lat="43.6358673" lon="11.1844384"><ele>139.0</ele><time>2026-04-19T09:44:29.225Z</time></trkpt><trkpt lat="43.6359052" lon="11.1845393"><ele>139.0</ele><time>2026-04-19T09:44:30.215Z</time></trkpt><trkpt lat="43.6359368" lon="11.1846432"><ele>139.0</ele><time>2026-04-19T09:44:31.22Z</time></trkpt><trkpt lat="43.6359647" lon="11.1847496"><ele>139.0</ele><time>2026-04-19T09:44:32.214Z</time></trkpt><trkpt lat="43.6359898" lon="11.1848496"><ele>139.0</ele><time>2026-04-19T09:44:33.213Z</time></trkpt><trkpt lat="43.6360063" lon="11.1849431"><ele>139.0</ele><time>2026-04-19T09:44:34.227Z</time></trkpt><trkpt lat="43.6360226" lon="11.1850285"><ele>139.0</ele><time>2026-04-19T09:44:35.204Z</time></trkpt><trkpt lat="43.6360498" lon="11.1851917"><ele>139.0</ele><time>2026-04-19T09:44:37.222Z</time></trkpt><trkpt lat="43.6360764" lon="11.185305"><ele>139.0</ele><time>2026-04-19T09:44:39.229Z</time></trkpt><trkpt lat="43.636132" lon="11.1853728"><ele>139.0</ele><time>2026-04-19T09:44:42.207Z</time></trkpt><trkpt lat="43.6362239" lon="11.1853572"><ele>139.0</ele><time>2026-04-19T09:44:44.212Z</time></trkpt><trkpt lat="43.6363036" lon="11.1853308"><ele>140.16666666666669</ele><time>2026-04-19T09:44:45.216Z</time></trkpt><trkpt lat="43.6363909" lon="11.1853155"><ele>141.33333333333334</ele><time>2026-04-19T09:44:46.214Z</time></trkpt><trkpt lat="43.6364736" lon="11.1852997"><ele>142.5</ele><time>2026-04-19T09:44:47.231Z</time></trkpt><trkpt lat="43.6365486" lon="11.1852993"><ele>143.66666666666666</ele><time>2026-04-19T09:44:48.21Z</time></trkpt><trkpt lat="43.6366278" lon="11.1853022"><ele>144.83333333333331</ele><time>2026-04-19T09:44:49.218Z</time></trkpt><trkpt lat="43.6367072" lon="11.185313"><ele>146.0</ele><time>2026-04-19T09:44:50.219Z</time></trkpt><trkpt lat="43.6367786" lon="11.1853203"><ele>146.0</ele><time>2026-04-19T09:44:51.219Z</time></trkpt><trkpt lat="43.6368898" lon="11.1852978"><ele>146.0</ele><time>2026-04-19T09:44:53.213Z</time></trkpt><trkpt lat="43.6369885" lon="11.1852513"><ele>146.0</ele><time>2026-04-19T09:44:55.218Z</time></trkpt><trkpt lat="43.6370603" lon="11.1852335"><ele>146.0</ele><time>2026-04-19T09:44:56.221Z</time></trkpt><trkpt lat="43.6371341" lon="11.1852243"><ele>146.0</ele><time>2026-04-19T09:44:57.209Z</time></trkpt><trkpt lat="43.6372202" lon="11.1852185"><ele>149.33333333333331</ele><time>2026-04-19T09:44:58.224Z</time></trkpt><trkpt lat="43.6372856" lon="11.1852137"><ele>152.66666666666666</ele><time>2026-04-19T09:44:59.21Z</time></trkpt><trkpt lat="43.6373505" lon="11.1852076"><ele>156.0</ele><time>2026-04-19T09:45:00.213Z</time></trkpt><trkpt lat="43.6374646" lon="11.1852014"><ele>159.33333333333334</ele><time>2026-04-19T09:45:02.213Z</time></trkpt><trkpt lat="43.6375257" lon="11.1852414"><ele>162.66666666666669</ele><time>2026-04-19T09:45:06.217Z</time></trkpt><trkpt lat="43.6375928" lon="11.1852978"><ele>166.0</ele><time>2026-04-19T09:45:09.22Z</time></trkpt><trkpt lat="43.6376307" lon="11.1853723"><ele>166.0</ele><time>2026-04-19T09:45:12.215Z</time></trkpt><trkpt lat="43.6376628" lon="11.1854775"><ele>166.0</ele><time>2026-04-19T09:45:15.228Z</time></trkpt><trkpt lat="43.6377212" lon="11.1855266"><ele>166.0</ele><time>2026-04-19T09:45:21.213Z</time></trkpt><trkpt lat="43.6377933" lon="11.185474"><ele>166.0</ele><time>2026-04-19T09:45:30.22Z</time></trkpt><trkpt lat="43.6378901" lon="11.185346"><ele>166.0</ele><time>2026-04-19T09:45:32.218Z</time></trkpt><trkpt lat="43.6379486" lon="11.1852709"><ele>166.0</ele><time>2026-04-19T09:45:33.212Z</time></trkpt><trkpt lat="43.6380184" lon="11.1851648"><ele>169.75</ele><time>2026-04-19T09:45:34.221Z</time></trkpt><trkpt lat="43.6380916" lon="11.1850589"><ele>173.5</ele><time>2026-04-19T09:45:35.214Z</time></trkpt><trkpt lat="43.63818" lon="11.1849442"><ele>177.25</ele><time>2026-04-19T09:45:36.222Z</time></trkpt><trkpt lat="43.6382823" lon="11.1847942"><ele>181.0</ele><time>2026-04-19T09:45:37.222Z</time></trkpt><trkpt lat="43.6383859" lon="11.1846389"><ele>181.75</ele><time>2026-04-19T09:45:38.228Z</time></trkpt><trkpt lat="43.6384785" lon="11.1845035"><ele>182.5</ele><time>2026-04-19T09:45:39.215Z</time></trkpt><trkpt lat="43.6385711" lon="11.1843749"><ele>183.25</ele><time>2026-04-19T09:45:40.217Z</time></trkpt><trkpt lat="43.6386668" lon="11.1842567"><ele>184.0</ele><time>2026-04-19T09:45:41.222Z</time></trkpt><trkpt lat="43.6387569" lon="11.1841384"><ele>188.25</ele><time>2026-04-19T09:45:42.218Z</time></trkpt><trkpt lat="43.6388456" lon="11.1840203"><ele>192.5</ele><time>2026-04-19T09:45:43.219Z</time></trkpt><trkpt lat="43.6389302" lon="11.1839082"><ele>196.75</ele><time>2026-04-19T09:45:44.214Z</time></trkpt><trkpt lat="43.6390141" lon="11.183789"><ele>201.0</ele><time>2026-04-19T09:45:45.229Z</time></trkpt><trkpt lat="43.6390975" lon="11.183683"><ele>201.20000000000002</ele><time>2026-04-19T09:45:46.226Z</time></trkpt><trkpt lat="43.6391766" lon="11.183574"><ele>201.4</ele><time>2026-04-19T09:45:47.208Z</time></trkpt><trkpt lat="43.6392515" lon="11.1834676"><ele>201.6</ele><time>2026-04-19T09:45:48.206Z</time></trkpt><trkpt lat="43.639324" lon="11.1833707"><ele>201.8</ele><time>2026-04-19T09:45:49.223Z</time></trkpt><trkpt lat="43.6394013" lon="11.1832767"><ele>202.0</ele><time>2026-04-19T09:45:50.211Z</time></trkpt><trkpt lat="43.6394745" lon="11.1831769"><ele>204.16666666666666</ele><time>2026-04-19T09:45:51.212Z</time></trkpt><trkpt lat="43.6395358" lon="11.1830842"><ele>206.33333333333331</ele><time>2026-04-19T09:45:52.224Z</time></trkpt><trkpt lat="43.6395915" lon="11.1830076"><ele>208.5</ele><time>2026-04-19T09:45:53.212Z</time></trkpt><trkpt lat="43.6396583" lon="11.1829216"><ele>210.66666666666669</ele><time>2026-04-19T09:45:55.213Z</time></trkpt><trkpt lat="43.6396221" lon="11.1828201"><ele>212.83333333333334</ele><time>2026-04-19T09:45:59.212Z</time></trkpt><trkpt lat="43.6395811" lon="11.1827352"><ele>215.0</ele><time>2026-04-19T09:46:01.227Z</time></trkpt><trkpt lat="43.6395043" lon="11.1826156"><ele>212.50000000000003</ele><time>2026-04-19T09:46:03.202Z</time></trkpt><trkpt lat="43.6394561" lon="11.1825304"><ele>210.0</ele><time>2026-04-19T09:46:04.206Z</time></trkpt><trkpt lat="43.6393932" lon="11.1824539"><ele>207.5</ele><time>2026-04-19T09:46:05.222Z</time></trkpt><trkpt lat="43.6393328" lon="11.1823782"><ele>205.0</ele><time>2026-04-19T09:46:06.219Z</time></trkpt><trkpt lat="43.6392688" lon="11.1822886"><ele>202.50000000000003</ele><time>2026-04-19T09:46:07.213Z</time></trkpt><trkpt lat="43.6392058" lon="11.18219"><ele>200.0</ele><time>2026-04-19T09:46:08.218Z</time></trkpt><trkpt lat="43.6391428" lon="11.1821021"><ele>199.50000000000003</ele><time>2026-04-19T09:46:09.212Z</time></trkpt><trkpt lat="43.6390798" lon="11.1820125"><ele>199.0</ele><time>2026-04-19T09:46:10.212Z</time></trkpt><trkpt lat="43.6390164" lon="11.1819306"><ele>198.5</ele><time>2026-04-19T09:46:11.209Z</time></trkpt><trkpt lat="43.6389541" lon="11.1818504"><ele>198.0</ele><time>2026-04-19T09:46:12.217Z</time></trkpt><trkpt lat="43.6388931" lon="11.1817732"><ele>197.50000000000003</ele><time>2026-04-19T09:46:13.211Z</time></trkpt><trkpt lat="43.6388365" lon="11.1816923"><ele>197.0</ele><time>2026-04-19T09:46:14.211Z</time></trkpt><trkpt lat="43.6387783" lon="11.1816106"><ele>197.00000000000003</ele><time>2026-04-19T09:46:15.214Z</time></trkpt><trkpt lat="43.6387203" lon="11.1815266"><ele>197.0</ele><time>2026-04-19T09:46:16.218Z</time></trkpt><trkpt lat="43.638663" lon="11.1814523"><ele>197.0</ele><time>2026-04-19T09:46:17.21Z</time></trkpt><trkpt lat="43.6386161" lon="11.1813831"><ele>197.0</ele><time>2026-04-19T09:46:18.209Z</time></trkpt><trkpt lat="43.6385312" lon="11.1812749"><ele>197.00000000000003</ele><time>2026-04-19T09:46:20.211Z</time></trkpt><trkpt lat="43.6384612" lon="11.18118"><ele>197.0</ele><time>2026-04-19T09:46:22.225Z</time></trkpt><trkpt lat="43.6384164" lon="11.1811122"><ele>194.2</ele><time>2026-04-19T09:46:24.217Z</time></trkpt><trkpt lat="43.6384484" lon="11.1810076"><ele>191.39999999999998</ele><time>2026-04-19T09:46:26.216Z</time></trkpt><trkpt lat="43.6384888" lon="11.1808983"><ele>188.60000000000002</ele><time>2026-04-19T09:46:28.222Z</time></trkpt><trkpt lat="43.6385226" lon="11.1807544"><ele>185.8</ele><time>2026-04-19T09:46:30.227Z</time></trkpt><trkpt lat="43.6384942" lon="11.1806052"><ele>183.0</ele><time>2026-04-19T09:46:32.215Z</time></trkpt><trkpt lat="43.6384472" lon="11.1805268"><ele>181.4</ele><time>2026-04-19T09:46:33.211Z</time></trkpt><trkpt lat="43.63838" lon="11.1804499"><ele>179.8</ele><time>2026-04-19T09:46:34.219Z</time></trkpt><trkpt lat="43.6383025" lon="11.1803735"><ele>178.2</ele><time>2026-04-19T09:46:35.213Z</time></trkpt><trkpt lat="43.6382295" lon="11.1802998"><ele>176.6</ele><time>2026-04-19T09:46:36.221Z</time></trkpt><trkpt lat="43.6381528" lon="11.180219"><ele>175.0</ele><time>2026-04-19T09:46:37.212Z</time></trkpt><trkpt lat="43.6380841" lon="11.1801435"><ele>175.0</ele><time>2026-04-19T09:46:38.215Z</time></trkpt><trkpt lat="43.6380226" lon="11.1800696"><ele>175.0</ele><time>2026-04-19T09:46:39.216Z</time></trkpt><trkpt lat="43.637964" lon="11.1799932"><ele>175.0</ele><time>2026-04-19T09:46:40.22Z</time></trkpt><trkpt lat="43.6379194" lon="11.1798995"><ele>175.0</ele><time>2026-04-19T09:46:41.204Z</time></trkpt><trkpt lat="43.637889" lon="11.1797916"><ele>175.0</ele><time>2026-04-19T09:46:42.206Z</time></trkpt><trkpt lat="43.6378719" lon="11.1796676"><ele>175.0</ele><time>2026-04-19T09:46:43.208Z</time></trkpt><trkpt lat="43.6378544" lon="11.1795713"><ele>173.66666666666669</ele><time>2026-04-19T09:46:44.219Z</time></trkpt><trkpt lat="43.6378404" lon="11.1794834"><ele>172.33333333333334</ele><time>2026-04-19T09:46:45.226Z</time></trkpt><trkpt lat="43.6378203" lon="11.1793914"><ele>171.0</ele><time>2026-04-19T09:46:47.209Z</time></trkpt><trkpt lat="43.6377798" lon="11.1793124"><ele>169.66666666666666</ele><time>2026-04-19T09:46:49.22Z</time></trkpt><trkpt lat="43.6377094" lon="11.1792118"><ele>168.33333333333331</ele><time>2026-04-19T09:46:51.21Z</time></trkpt><trkpt lat="43.637611" lon="11.1791493"><ele>167.0</ele><time>2026-04-19T09:46:53.21Z</time></trkpt><trkpt lat="43.6375002" lon="11.1791417"><ele>165.4</ele><time>2026-04-19T09:46:55.205Z</time></trkpt><trkpt lat="43.6373926" lon="11.1791658"><ele>163.79999999999998</ele><time>2026-04-19T09:46:57.209Z</time></trkpt><trkpt lat="43.6373169" lon="11.1790976"><ele>162.2</ele><time>2026-04-19T09:47:00.212Z</time></trkpt><trkpt lat="43.6373643" lon="11.1789609"><ele>160.6</ele><time>2026-04-19T09:47:02.207Z</time></trkpt><trkpt lat="43.6374574" lon="11.1789278"><ele>159.0</ele><time>2026-04-19T09:47:04.205Z</time></trkpt><trkpt lat="43.6375744" lon="11.1789022"><ele>156.8</ele><time>2026-04-19T09:47:06.211Z</time></trkpt><trkpt lat="43.6376777" lon="11.1788402"><ele>154.60000000000002</ele><time>2026-04-19T09:47:08.213Z</time></trkpt><trkpt lat="43.6377346" lon="11.1787525"><ele>152.4</ele><time>2026-04-19T09:47:10.213Z</time></trkpt><trkpt lat="43.6377293" lon="11.1786321"><ele>150.20000000000002</ele><time>2026-04-19T09:47:12.208Z</time></trkpt><trkpt lat="43.6376845" lon="11.178513"><ele>148.0</ele><time>2026-04-19T09:47:14.205Z</time></trkpt><trkpt lat="43.6375938" lon="11.1783824"><ele>148.0</ele><time>2026-04-19T09:47:16.213Z</time></trkpt><trkpt lat="43.6375425" lon="11.1783097"><ele>148.0</ele><time>2026-04-19T09:47:17.205Z</time></trkpt><trkpt lat="43.6374985" lon="11.1782368"><ele>148.0</ele><time>2026-04-19T09:47:18.199Z</time></trkpt><trkpt lat="43.6374524" lon="11.1781702"><ele>142.0</ele><time>2026-04-19T09:47:19.209Z</time></trkpt><trkpt lat="43.6373776" lon="11.1780858"><ele>142.0</ele><time>2026-04-19T09:47:21.211Z</time></trkpt><trkpt lat="43.6373001" lon="11.178073"><ele>142.0</ele><time>2026-04-19T09:47:24.205Z</time></trkpt></trkseg></trk></gpx>